[[{"header":{"parameterUnit":"m.s-1","parameterCategory":1,"la1":31.0,"la2":29.5877,"lo1":-88.7671,"lo2":-86.6584,"dy":0.0162,"dx":0.0185,"nx":115,"ny":88,"refTime":"2023-06-12T12:00:00:Z","depth":0,"parameterNumber":2,"parameterNumberName":"U-component_of_WINDS"},"data":[0.0,0.0,0.0,0.0,0.0,0.0,0.0,0.0,0.0,0.0,0.0,0.0,0.0,0.0,0.0,0.0,0.0,0.0,0.0,0.0,0.0,0.0,0.0,0.0,0.0,0.0,0.0,0.0,0.0,0.0,0.0,0.0,0.0,0.0,0.0,0.0,0.0,0.0,0.0,0.0,0.0,0.0,0.0,0.0,0.0,0.0,0.0,0.0,0.0,0.0,0.0,0.0,0.0,0.0,0.0,0.0,0.0,0.0,0.0,0.0,0.0,0.0,0.0,0.0,0.0,0.0,0.0,0.0,0.0,0.0,0.0,0.0,0.0,0.0,0.0,0.0,0.0,0.0,0.0,0.0,0.0,0.0,0.0,0.0,0.0,0.0,0.0,0.0,0.0,0.0,0.0,0.0,0.0,0.0,0.0,0.0,0.0,0.0,0.0,0.0,0.0,0.0,0.0,0.0,0.0,0.0,0.0,0.0,0.0,0.0,0.0,0.0,0.0,0.0,0.0,0.0,0.0,0.0,0.0,0.0,0.0,0.0,0.0,0.0,0.0,0.0,0.0,0.0,0.0,0.0,0.0,0.0,0.0,0.0,0.0,0.0,0.0,0.0,0.0,0.0,0.0,0.0,0.0,0.0,0.0,0.0,0.0,0.0,0.0,0.0,0.0,0.0,0.0,0.0,0.0,0.0,0.0,0.0,0.0,0.0,0.0,0.0,0.0,0.0,0.0,0.0,0.0,0.0,0.0,0.0,0.0,0.0,0.0,0.0,0.0,0.0,0.0,0.0,0.0,0.0,0.0,0.0,0.0,0.0,0.0,0.0,0.0,0.0,0.0,0.0,0.0,0.0,0.0,0.0,0.0,0.0,0.0,0.0,0.0,0.0,0.0,0.0,0.0,0.0,0.0,0.0,0.0,0.0,0.0,0.0,0.0,0.0,0.0,0.0,0.0,0.0,0.0,0.0,0.0,0.0,0.0,0.0,0.0,0.0,0.0,0.0,0.0,0.0,0.0,0.0,0.0,0.0,0.0,0.0,0.0,0.0,0.0,0.0,0.0,0.0,0.0,0.0,0.0,0.0,0.0,0.0,0.0,0.0,0.0,0.0,0.0,0.0,0.0,0.0,0.0,0.0,0.0,0.0,0.0,0.0,0.0,0.0,0.0,0.0,0.0,0.0,0.0,0.0,0.0,0.0,0.0,0.0,0.0,0.0,0.0,0.0,0.0,0.0,0.0,0.0,0.0,0.0,0.0,0.0,0.0,0.0,0.0,0.0,0.0,0.0,0.0,0.0,0.0,0.0,0.0,0.0,0.0,0.0,0.0,0.0,0.0,0.0,0.0,0.0,0.0,0.0,0.0,0.0,0.0,0.0,0.0,0.0,0.0,0.0,0.0,0.0,0.0,0.0,0.0,0.0,0.0,0.0,0.0,0.0,0.0,0.0,0.0,0.0,0.0,0.0,0.0,0.0,0.0,0.0,0.0,0.0,0.0,0.0,0.0,0.0,0.0,0.0,0.0,0.0,0.0,0.0,0.0,0.0,0.0,0.0,0.0,0.0,0.0,0.0,0.0,0.0,0.0,0.0,0.0,0.0,0.0,0.0,0.0,0.0,0.0,0.0,0.0,0.0,0.0,0.0,0.0,0.0,0.0,0.0,0.0,0.0,0.0,0.0,0.0,0.0,0.0,0.0,0.0,0.0,0.0,0.0,0.0,0.0,0.0,0.0,0.0,0.0,0.0,0.0,0.0,0.0,0.0,0.0,0.0,0.0,0.0,0.0,0.0,0.0,0.0,0.0,0.0,0.0,0.0,0.0,0.0,0.0,0.0,0.0,0.0,0.0,0.0,0.0,0.0,0.0,0.0,0.0,0.0,0.0,0.0,0.0,0.0,0.0,0.0,0.0,0.0,0.0,0.0,0.0,0.0,0.0,0.0,0.0,0.0,0.0,0.0,0.0,0.0,0.0,0.0,0.0,0.0,0.0,0.0,0.0,0.0,0.0,0.0,0.0,0.0,0.0,0.0,0.0,0.0,0.0,0.0,0.0,0.0,0.0,0.0,0.0,0.0,0.0,0.0,0.0,0.0,0.0,0.0,0.0,0.0,0.0,0.0,0.0,0.0,0.0,0.0,0.0,0.0,0.0,0.0,0.0,0.0,0.0,0.0,0.0,0.0,0.0,0.0,0.0,0.0,0.0,0.0,0.0,0.0,0.0,0.0,0.0,0.0,0.0,0.0,0.0,0.0,0.0,0.0,0.0,0.0,0.0,0.0,0.0,0.0,0.0,0.0,0.0,0.0,0.0,0.0,0.0,0.0,0.0,0.0,0.0,0.0,0.0,0.0,0.0,0.0,0.0,0.0,0.0,0.0,0.0,0.0,0.0,0.0,0.0,0.0,0.0,0.0,0.0,0.0,0.0,0.0,0.0,0.0,0.0,0.0,0.0,0.0,0.0,0.0,0.0,0.0,0.0,0.0,0.0,0.0,0.0,0.0,0.0,0.0,0.0,0.0,0.0,0.0,0.0,0.0,0.0,0.0,0.0,0.0,0.0,0.0,0.0,0.0,0.0,0.0,0.0,0.0,0.0,0.0,0.0,0.0,0.0,0.0,0.0,0.0,0.0,0.0,0.0,0.0,0.0,0.0,0.0,0.0,0.0,0.0,0.0,0.0,0.0,0.0,0.0,0.0,0.0,0.0,0.0,0.0,0.0,0.0,0.0,0.0,0.0,0.0,0.0,0.0,0.0,0.0,0.0,0.0,0.0,0.0,0.0,0.0,0.0,0.0,0.0,0.0,0.0,0.0,0.0,0.0,0.0,0.0,0.0,0.0,0.0,0.0,0.0,0.0,0.0,0.0,0.0,0.0,0.0,0.0,0.0,0.0,0.0,0.0,0.0,0.0,0.0,0.0,0.0,0.0,0.0,0.0,0.0,0.0,0.0,0.0,0.0,0.0,0.0,0.0,0.0,0.0,0.0,0.0,0.0,0.0,0.0,0.0,0.0,0.0,0.0,0.0,0.0,0.0,0.0,0.0,0.0,0.0,0.0,0.0,0.0,0.0,0.0,0.0,0.0,0.0,0.0,0.0,0.0,0.0,0.0,0.0,0.0,0.0,0.0,0.0,0.0,0.0,0.0,0.0,0.0,0.0,0.0,0.0,0.0,0.0,0.0,0.0,0.0,0.0,0.0,0.0,0.0,0.0,0.0,0.0,0.0,0.0,0.0,0.0,0.0,0.0,0.0,0.0,0.0,0.0,0.0,0.0,0.0,0.0,0.0,0.0,0.0,0.0,0.0,0.0,0.0,0.0,0.0,0.0,0.0,0.0,0.0,0.0,0.0,0.0,0.0,0.0,0.0,0.0,0.0,0.0,0.0,0.0,0.0,0.0,0.0,0.0,0.0,0.0,0.0,0.0,0.0,0.0,0.0,0.0,0.0,0.0,0.0,0.0,0.0,0.0,0.0,0.0,0.0,0.0,0.0,0.0,0.0,0.0,0.0,0.0,0.0,0.0,0.0,0.0,0.0,0.0,0.0,0.0,0.0,0.0,0.0,0.0,0.0,0.0,0.0,0.0,0.0,0.0,0.0,0.0,0.0,0.0,0.0,0.0,0.0,0.0,0.0,0.0,0.0,0.0,0.0,0.0,0.0,0.0,0.0,0.0,0.0,0.0,0.0,0.0,0.0,0.0,0.0,0.0,0.0,0.0,0.0,0.0,0.0,0.0,0.0,0.0,0.0,0.0,0.0,0.0,0.0,0.0,0.0,0.0,0.0,0.0,0.0,0.0,0.0,0.0,0.0,0.0,0.0,0.0,0.0,0.0,0.0,0.0,0.0,0.0,0.0,0.0,0.0,0.0,0.0,0.0,0.0,0.0,0.0,0.0,0.0,0.0,0.0,0.0,0.0,0.0,0.0,0.0,0.0,0.0,0.0,0.0,0.0,0.0,0.0,0.0,0.0,0.0,0.0,0.0,0.0,0.0,0.0,0.0,0.0,0.0,0.0,0.0,0.0,0.0,0.0,0.0,0.0,0.0,0.0,0.0,0.0,0.0,0.0,0.0,0.0,0.0,0.0,0.0,0.0,0.0,0.0,0.0,0.0,0.0,0.0,0.0,0.0,0.0,0.0,0.0,0.0,0.0,0.0,0.0,0.0,0.0,0.0,0.0,0.0,0.0,0.0,0.0,0.0,0.0,0.0,0.0,0.0,0.0,0.0,0.0,0.0,0.0,0.0,0.0,0.0,0.0,0.0,0.0,0.0,0.0,0.0,0.0,0.0,-3.6831,0.0,0.0,0.0,0.0,0.0,0.0,0.0,0.0,0.0,0.0,0.0,0.0,0.0,0.0,0.0,0.0,0.0,0.0,0.0,0.0,0.0,0.0,0.0,0.0,0.0,0.0,0.0,0.0,0.0,0.0,0.0,0.0,0.0,0.0,0.0,0.0,0.0,0.0,0.0,0.0,0.0,0.0,0.0,0.0,0.0,0.0,0.0,0.0,0.0,0.0,0.0,0.0,0.0,0.0,0.0,0.0,0.0,0.0,0.0,0.0,0.0,0.0,0.0,0.0,0.0,0.0,0.0,0.0,0.0,0.0,0.0,0.0,0.0,0.0,0.0,0.0,0.0,0.0,0.0,0.0,0.0,0.0,0.0,0.0,0.0,0.0,0.0,0.0,0.0,0.0,0.0,0.0,0.0,0.0,0.0,0.0,0.0,0.0,0.0,0.0,0.0,0.0,0.0,0.0,0.0,0.0,0.0,0.0,0.0,0.0,-3.9954,-3.9919,-3.8789,-3.7921,-3.7475,0.0,0.0,0.0,0.0,0.0,0.0,0.0,0.0,0.0,0.0,0.0,0.0,0.0,0.0,0.0,0.0,0.0,0.0,0.0,0.0,0.0,0.0,0.0,0.0,0.0,0.0,0.0,0.0,0.0,0.0,0.0,0.0,0.0,0.0,0.0,0.0,0.0,0.0,0.0,0.0,0.0,0.0,0.0,0.0,0.0,0.0,0.0,0.0,0.0,0.0,0.0,0.0,0.0,0.0,0.0,0.0,0.0,0.0,0.0,0.0,0.0,0.0,0.0,0.0,0.0,0.0,0.0,0.0,0.0,0.0,0.0,0.0,0.0,0.0,0.0,0.0,0.0,0.0,0.0,0.0,0.0,0.0,0.0,0.0,0.0,0.0,0.0,0.0,0.0,0.0,0.0,0.0,0.0,0.0,0.0,0.0,0.0,0.0,0.0,0.0,0.0,0.0,0.0,0.0,0.0,0.0,0.0,0.0,0.0,0.0,0.0,0.0,-3.9581,-3.8713,-3.7937,0.0,0.0,0.0,0.0,0.0,0.0,0.0,0.0,0.0,0.0,0.0,0.0,0.0,0.0,0.0,0.0,0.0,0.0,0.0,0.0,0.0,0.0,0.0,0.0,0.0,0.0,0.0,0.0,0.0,0.0,0.0,0.0,0.0,0.0,0.0,0.0,0.0,0.0,0.0,0.0,0.0,0.0,0.0,0.0,0.0,0.0,0.0,0.0,0.0,0.0,0.0,0.0,0.0,0.0,0.0,0.0,0.0,0.0,0.0,0.0,0.0,0.0,0.0,0.0,0.0,0.0,0.0,0.0,0.0,0.0,0.0,0.0,0.0,0.0,0.0,0.0,0.0,0.0,0.0,0.0,0.0,0.0,0.0,0.0,0.0,0.0,0.0,0.0,0.0,0.0,0.0,0.0,0.0,0.0,0.0,0.0,0.0,0.0,0.0,0.0,0.0,0.0,0.0,0.0,0.0,0.0,0.0,0.0,0.0,0.0,-4.0459,-4.0329,-3.9538,0.0,-3.7706,0.0,0.0,0.0,0.0,0.0,0.0,0.0,0.0,0.0,0.0,0.0,0.0,0.0,0.0,0.0,0.0,0.0,0.0,0.0,0.0,0.0,0.0,0.0,0.0,0.0,0.0,0.0,0.0,0.0,0.0,0.0,0.0,0.0,0.0,0.0,0.0,0.0,0.0,0.0,0.0,0.0,0.0,0.0,0.0,0.0,0.0,0.0,0.0,0.0,0.0,0.0,0.0,0.0,0.0,0.0,0.0,0.0,0.0,0.0,0.0,0.0,0.0,0.0,0.0,0.0,0.0,0.0,0.0,0.0,0.0,0.0,0.0,0.0,0.0,0.0,0.0,0.0,0.0,0.0,0.0,0.0,0.0,0.0,0.0,0.0,0.0,0.0,0.0,0.0,0.0,0.0,0.0,0.0,0.0,0.0,0.0,0.0,0.0,0.0,0.0,0.0,0.0,0.0,0.0,0.0,0.0,0.0,0.0,0.0,0.0,-4.1016,-4.0949,-4.0048,-3.9358,0.0,0.0,0.0,0.0,0.0,0.0,0.0,0.0,0.0,0.0,0.0,0.0,0.0,0.0,0.0,0.0,0.0,0.0,0.0,0.0,0.0,0.0,0.0,0.0,0.0,0.0,0.0,0.0,0.0,0.0,0.0,0.0,0.0,0.0,0.0,0.0,0.0,0.0,0.0,0.0,0.0,0.0,0.0,0.0,0.0,0.0,0.0,0.0,0.0,0.0,0.0,0.0,0.0,0.0,0.0,0.0,0.0,0.0,0.0,0.0,0.0,0.0,0.0,0.0,0.0,0.0,0.0,0.0,0.0,0.0,0.0,0.0,0.0,0.0,0.0,0.0,0.0,0.0,0.0,0.0,0.0,0.0,0.0,0.0,0.0,0.0,0.0,0.0,0.0,0.0,0.0,0.0,0.0,0.0,0.0,0.0,0.0,0.0,0.0,0.0,0.0,0.0,0.0,0.0,0.0,0.0,0.0,0.0,0.0,0.0,-4.1403,-4.1335,-4.1277,-4.0585,-4.0032,-3.9721,0.0,0.0,0.0,0.0,0.0,0.0,0.0,0.0,0.0,0.0,0.0,0.0,0.0,0.0,0.0,0.0,0.0,0.0,0.0,0.0,0.0,0.0,0.0,0.0,0.0,0.0,0.0,0.0,0.0,0.0,0.0,0.0,0.0,0.0,0.0,0.0,0.0,0.0,0.0,0.0,0.0,0.0,0.0,0.0,0.0,0.0,0.0,0.0,0.0,0.0,0.0,0.0,0.0,0.0,0.0,0.0,0.0,0.0,0.0,0.0,0.0,0.0,0.0,0.0,0.0,0.0,0.0,0.0,0.0,0.0,0.0,0.0,0.0,0.0,0.0,0.0,0.0,0.0,0.0,0.0,0.0,0.0,0.0,0.0,0.0,0.0,0.0,0.0,0.0,0.0,0.0,0.0,0.0,0.0,0.0,0.0,0.0,0.0,0.0,0.0,0.0,0.0,0.0,0.0,0.0,0.0,0.0,0.0,-4.1232,-4.1209,-4.1198,-4.1117,-4.0931,-4.048,0.0,0.0,0.0,0.0,0.0,0.0,0.0,0.0,0.0,0.0,0.0,0.0,0.0,0.0,0.0,0.0,0.0,0.0,0.0,0.0,0.0,0.0,0.0,0.0,0.0,0.0,0.0,0.0,0.0,0.0,0.0,0.0,0.0,0.0,0.0,0.0,0.0,0.0,0.0,0.0,0.0,0.0,0.0,0.0,0.0,0.0,0.0,0.0,0.0,0.0,0.0,0.0,0.0,0.0,0.0,0.0,0.0,0.0,0.0,0.0,0.0,0.0,0.0,0.0,0.0,0.0,0.0,0.0,0.0,0.0,0.0,0.0,0.0,0.0,0.0,0.0,0.0,0.0,0.0,0.0,0.0,0.0,0.0,0.0,0.0,0.0,0.0,0.0,0.0,0.0,0.0,0.0,0.0,0.0,0.0,0.0,0.0,0.0,0.0,0.0,0.0,0.0,0.0,0.0,0.0,0.0,0.0,0.0,0.0,-4.1186,-4.1152,-4.1093,-4.1,-4.0918,-4.0756,0.0,0.0,0.0,0.0,0.0,0.0,0.0,0.0,0.0,0.0,0.0,0.0,0.0,0.0,0.0,0.0,0.0,0.0,0.0,0.0,0.0,0.0,0.0,0.0,0.0,0.0,0.0,0.0,0.0,0.0,0.0,0.0,0.0,0.0,0.0,0.0,0.0,0.0,0.0,0.0,0.0,0.0,0.0,0.0,0.0,0.0,0.0,0.0,0.0,0.0,0.0,0.0,0.0,0.0,0.0,0.0,0.0,0.0,0.0,0.0,0.0,0.0,0.0,0.0,0.0,0.0,0.0,0.0,0.0,0.0,0.0,0.0,0.0,0.0,0.0,0.0,0.0,0.0,0.0,0.0,0.0,0.0,0.0,0.0,0.0,0.0,0.0,0.0,0.0,0.0,0.0,0.0,0.0,0.0,0.0,0.0,0.0,0.0,0.0,0.0,0.0,0.0,0.0,0.0,0.0,0.0,0.0,0.0,0.0,-4.1441,0.0,-4.1345,-4.1274,-4.1274,-4.117,0.0,0.0,0.0,0.0,0.0,0.0,0.0,0.0,0.0,0.0,0.0,0.0,0.0,0.0,0.0,0.0,0.0,0.0,0.0,0.0,0.0,0.0,0.0,0.0,0.0,0.0,0.0,0.0,0.0,0.0,0.0,0.0,0.0,0.0,0.0,0.0,0.0,0.0,0.0,0.0,0.0,0.0,0.0,0.0,0.0,0.0,0.0,0.0,0.0,0.0,0.0,0.0,0.0,0.0,0.0,0.0,0.0,0.0,0.0,0.0,0.0,0.0,0.0,0.0,0.0,0.0,0.0,0.0,0.0,0.0,0.0,0.0,0.0,0.0,0.0,0.0,0.0,0.0,0.0,0.0,0.0,0.0,0.0,0.0,0.0,0.0,0.0,0.0,0.0,0.0,0.0,0.0,0.0,0.0,0.0,0.0,0.0,0.0,0.0,0.0,0.0,0.0,0.0,0.0,0.0,0.0,0.0,0.0,-4.1274,-4.1964,-4.1999,-4.2033,-4.2033,-4.2033,-4.1688,0.0,0.0,0.0,0.0,0.0,0.0,0.0,0.0,0.0,0.0,0.0,0.0,0.0,0.0,0.0,0.0,0.0,0.0,0.0,0.0,0.0,0.0,0.0,0.0,0.0,0.0,0.0,0.0,0.0,0.0,0.0,0.0,0.0,0.0,0.0,0.0,0.0,0.0,0.0,0.0,0.0,0.0,0.0,0.0,0.0,0.0,0.0,0.0,0.0,0.0,0.0,0.0,0.0,0.0,0.0,0.0,0.0,0.0,0.0,0.0,0.0,0.0,0.0,0.0,0.0,0.0,0.0,0.0,0.0,0.0,0.0,0.0,0.0,0.0,0.0,0.0,0.0,0.0,0.0,0.0,0.0,0.0,0.0,0.0,0.0,0.0,0.0,0.0,0.0,0.0,0.0,0.0,0.0,0.0,0.0,0.0,0.0,0.0,0.0,0.0,0.0,0.0,0.0,0.0,0.0,0.0,0.0,0.0,0.0,-4.1974,-4.2551,-4.2827,-4.2827,-4.2827,-4.2447,0.0,0.0,0.0,0.0,0.0,0.0,0.0,0.0,0.0,0.0,0.0,0.0,0.0,0.0,0.0,0.0,0.0,0.0,0.0,0.0,0.0,0.0,0.0,0.0,0.0,0.0,0.0,0.0,0.0,0.0,0.0,0.0,0.0,0.0,0.0,0.0,0.0,0.0,0.0,0.0,0.0,0.0,0.0,0.0,0.0,0.0,0.0,0.0,0.0,0.0,0.0,0.0,0.0,0.0,0.0,0.0,0.0,0.0,0.0,0.0,0.0,0.0,0.0,0.0,0.0,0.0,0.0,0.0,0.0,0.0,0.0,0.0,0.0,0.0,0.0,0.0,0.0,0.0,0.0,0.0,0.0,0.0,0.0,0.0,0.0,0.0,0.0,0.0,0.0,0.0,0.0,0.0,0.0,0.0,0.0,0.0,0.0,0.0,0.0,0.0,0.0,0.0,0.0,0.0,0.0,0.0,0.0,0.0,0.0,-4.3285,-4.3768,-4.4009,-4.4035,-4.4035,-4.3552,-4.2482,0.0,0.0,0.0,0.0,0.0,0.0,0.0,0.0,0.0,0.0,0.0,0.0,0.0,0.0,0.0,0.0,0.0,0.0,0.0,0.0,0.0,0.0,0.0,0.0,0.0,0.0,0.0,0.0,0.0,0.0,0.0,0.0,0.0,0.0,0.0,0.0,0.0,0.0,0.0,0.0,0.0,0.0,0.0,0.0,0.0,0.0,0.0,0.0,0.0,0.0,0.0,0.0,0.0,0.0,0.0,0.0,0.0,0.0,0.0,0.0,0.0,0.0,0.0,0.0,0.0,0.0,0.0,0.0,0.0,0.0,0.0,0.0,0.0,0.0,0.0,0.0,0.0,0.0,0.0,0.0,0.0,0.0,0.0,0.0,0.0,0.0,0.0,0.0,0.0,0.0,0.0,0.0,0.0,0.0,0.0,0.0,0.0,0.0,0.0,0.0,0.0,0.0,0.0,0.0,0.0,0.0,0.0,0.0,-4.5638,-4.5638,-4.5604,-4.5535,-4.5535,-4.4837,0.0,0.0,0.0,0.0,0.0,0.0,0.0,0.0,0.0,0.0,0.0,0.0,0.0,0.0,0.0,0.0,0.0,0.0,0.0,0.0,0.0,0.0,0.0,0.0,0.0,0.0,0.0,0.0,0.0,0.0,0.0,0.0,0.0,0.0,0.0,0.0,0.0,0.0,0.0,0.0,0.0,0.0,0.0,0.0,0.0,0.0,0.0,0.0,0.0,0.0,0.0,0.0,0.0,0.0,0.0,0.0,0.0,0.0,0.0,0.0,0.0,0.0,0.0,0.0,0.0,0.0,0.0,0.0,0.0,0.0,0.0,0.0,0.0,0.0,0.0,0.0,0.0,0.0,0.0,0.0,0.0,0.0,0.0,0.0,0.0,0.0,0.0,0.0,0.0,0.0,0.0,0.0,0.0,0.0,0.0,0.0,0.0,0.0,0.0,0.0,0.0,0.0,0.0,0.0,0.0,0.0,0.0,0.0,0.0,-4.87,-4.8655,-4.8111,-4.7155,-4.7086,-4.6362,0.0,0.0,0.0,0.0,0.0,0.0,0.0,0.0,0.0,0.0,0.0,0.0,0.0,0.0,0.0,0.0,0.0,0.0,0.0,0.0,0.0,0.0,0.0,0.0,0.0,0.0,0.0,0.0,0.0,0.0,0.0,0.0,0.0,0.0,0.0,0.0,0.0,0.0,0.0,0.0,0.0,0.0,0.0,0.0,0.0,0.0,0.0,0.0,0.0,0.0,0.0,0.0,0.0,0.0,0.0,0.0,0.0,0.0,0.0,0.0,0.0,0.0,0.0,0.0,0.0,0.0,0.0,0.0,0.0,0.0,0.0,0.0,0.0,0.0,0.0,0.0,0.0,0.0,0.0,0.0,0.0,0.0,0.0,0.0,0.0,0.0,0.0,0.0,0.0,0.0,0.0,0.0,0.0,0.0,0.0,0.0,0.0,0.0,0.0,0.0,0.0,0.0,0.0,0.0,0.0,0.0,0.0,0.0,-4.7761,-4.9825,-5.0296,-5.0198,-4.9399,-4.8781,-4.7745,0.0,0.0,0.0,0.0,0.0,0.0,0.0,0.0,0.0,0.0,0.0,0.0,0.0,0.0,0.0,0.0,0.0,0.0,0.0,0.0,0.0,0.0,0.0,0.0,0.0,0.0,0.0,0.0,0.0,0.0,0.0,0.0,0.0,0.0,0.0,0.0,0.0,0.0,0.0,0.0,0.0,0.0,0.0,0.0,0.0,0.0,0.0,0.0,0.0,0.0,0.0,0.0,0.0,0.0,0.0,0.0,0.0,0.0,0.0,0.0,0.0,0.0,0.0,0.0,0.0,0.0,0.0,0.0,0.0,0.0,0.0,0.0,0.0,0.0,0.0,0.0,0.0,0.0,0.0,0.0,0.0,0.0,0.0,0.0,0.0,0.0,0.0,0.0,0.0,0.0,0.0,0.0,0.0,0.0,0.0,0.0,0.0,0.0,0.0,0.0,0.0,0.0,0.0,0.0,0.0,0.0,0.0,0.0,-4.913,-5.0022,-5.1244,-5.1936,-5.197,-5.0465,-4.8988,0.0,0.0,0.0,0.0,0.0,0.0,0.0,0.0,0.0,0.0,0.0,0.0,0.0,0.0,0.0,0.0,0.0,0.0,0.0,0.0,0.0,0.0,0.0,0.0,0.0,0.0,0.0,0.0,0.0,0.0,0.0,0.0,0.0,0.0,0.0,0.0,0.0,0.0,0.0,0.0,0.0,0.0,0.0,0.0,0.0,0.0,0.0,0.0,0.0,0.0,0.0,0.0,0.0,0.0,0.0,0.0,0.0,0.0,0.0,0.0,0.0,0.0,0.0,0.0,0.0,0.0,0.0,0.0,0.0,0.0,0.0,0.0,0.0,0.0,0.0,0.0,0.0,0.0,0.0,0.0,0.0,0.0,0.0,0.0,0.0,0.0,0.0,0.0,0.0,0.0,0.0,0.0,0.0,0.0,0.0,0.0,0.0,0.0,0.0,0.0,0.0,0.0,0.0,0.0,0.0,0.0,0.0,0.0,-5.0369,-5.2064,-5.2895,-5.3546,-5.4124,-5.17,-4.9983,0.0,0.0,0.0,0.0,0.0,0.0,0.0,0.0,0.0,0.0,0.0,0.0,0.0,0.0,0.0,0.0,0.0,0.0,0.0,0.0,0.0,0.0,0.0,0.0,0.0,0.0,0.0,0.0,0.0,0.0,0.0,0.0,0.0,0.0,0.0,0.0,0.0,0.0,0.0,0.0,0.0,0.0,0.0,0.0,0.0,0.0,0.0,0.0,-4.0362,0.0,0.0,0.0,0.0,0.0,0.0,0.0,0.0,0.0,0.0,0.0,0.0,0.0,0.0,0.0,0.0,0.0,0.0,0.0,0.0,0.0,0.0,0.0,0.0,0.0,0.0,0.0,0.0,0.0,0.0,0.0,0.0,0.0,0.0,0.0,0.0,0.0,0.0,0.0,0.0,0.0,0.0,0.0,0.0,0.0,0.0,0.0,0.0,0.0,0.0,0.0,0.0,0.0,0.0,0.0,0.0,0.0,0.0,0.0,-5.1014,-5.3134,-5.382,-5.4466,-5.511,-5.3073,-5.1301,0.0,0.0,0.0,0.0,0.0,0.0,0.0,0.0,0.0,0.0,0.0,0.0,0.0,0.0,0.0,0.0,0.0,0.0,0.0,0.0,0.0,0.0,0.0,0.0,0.0,0.0,0.0,0.0,0.0,0.0,0.0,0.0,0.0,0.0,0.0,0.0,0.0,0.0,0.0,0.0,0.0,0.0,0.0,0.0,0.0,0.0,0.0,0.0,0.0,0.0,0.0,0.0,0.0,0.0,0.0,0.0,0.0,0.0,0.0,0.0,0.0,0.0,0.0,0.0,0.0,0.0,0.0,0.0,0.0,0.0,0.0,0.0,0.0,0.0,0.0,0.0,0.0,0.0,0.0,0.0,0.0,0.0,0.0,0.0,0.0,0.0,0.0,0.0,0.0,0.0,0.0,0.0,0.0,0.0,0.0,0.0,0.0,0.0,0.0,0.0,0.0,0.0,0.0,0.0,0.0,0.0,0.0,-4.993,-5.1679,-5.3719,-5.4533,-5.5243,-5.5817,-5.4566,-5.284,-5.0697,0.0,0.0,0.0,0.0,0.0,0.0,0.0,0.0,0.0,0.0,0.0,0.0,0.0,0.0,0.0,0.0,0.0,0.0,0.0,0.0,0.0,0.0,0.0,0.0,0.0,0.0,0.0,0.0,0.0,0.0,0.0,0.0,0.0,0.0,0.0,0.0,0.0,0.0,-4.094,-4.0934,0.0,0.0,0.0,0.0,0.0,0.0,0.0,0.0,-4.2388,0.0,0.0,0.0,0.0,0.0,0.0,0.0,0.0,0.0,0.0,0.0,0.0,0.0,0.0,0.0,0.0,0.0,0.0,0.0,0.0,0.0,0.0,0.0,0.0,0.0,0.0,0.0,0.0,0.0,0.0,0.0,0.0,0.0,0.0,0.0,0.0,0.0,0.0,0.0,0.0,0.0,0.0,0.0,0.0,0.0,0.0,0.0,0.0,0.0,0.0,0.0,0.0,0.0,0.0,0.0,0.0,-4.8201,-5.0827,-5.2939,-5.4432,-5.5785,-5.6494,-5.6596,-5.5784,-5.4262,-5.2028,0.0,0.0,0.0,0.0,0.0,0.0,0.0,0.0,0.0,0.0,0.0,0.0,0.0,0.0,0.0,0.0,0.0,0.0,0.0,0.0,0.0,0.0,0.0,0.0,0.0,0.0,0.0,0.0,0.0,0.0,0.0,0.0,0.0,0.0,0.0,0.0,0.0,0.0,0.0,-4.1542,-4.169,0.0,0.0,0.0,0.0,0.0,0.0,0.0,0.0,-4.32,0.0,0.0,0.0,0.0,0.0,0.0,0.0,0.0,0.0,0.0,0.0,0.0,0.0,0.0,0.0,0.0,0.0,0.0,0.0,0.0,0.0,0.0,0.0,0.0,0.0,0.0,0.0,0.0,0.0,0.0,0.0,0.0,0.0,0.0,0.0,0.0,0.0,0.0,0.0,0.0,0.0,0.0,0.0,0.0,0.0,0.0,0.0,0.0,0.0,0.0,0.0,0.0,0.0,0.0,0.0,-4.9267,-5.1378,-5.3314,-5.5108,-5.6224,-5.6968,-5.734,-5.6292,-5.4837,0.0,0.0,0.0,0.0,0.0,0.0,0.0,0.0,0.0,0.0,0.0,0.0,0.0,0.0,0.0,0.0,0.0,0.0,0.0,0.0,0.0,0.0,0.0,0.0,0.0,0.0,0.0,0.0,0.0,0.0,0.0,0.0,0.0,0.0,0.0,0.0,0.0,0.0,0.0,0.0,-4.2134,-4.2312,-4.2974,0.0,0.0,0.0,0.0,0.0,0.0,-4.3775,-4.4012,0.0,0.0,0.0,0.0,0.0,0.0,0.0,0.0,0.0,0.0,0.0,0.0,0.0,0.0,0.0,0.0,0.0,0.0,0.0,0.0,0.0,0.0,0.0,0.0,0.0,0.0,0.0,0.0,0.0,0.0,0.0,0.0,0.0,0.0,0.0,0.0,0.0,0.0,0.0,0.0,0.0,0.0,0.0,0.0,0.0,0.0,0.0,0.0,0.0,0.0,0.0,0.0,0.0,0.0,0.0,-5.0221,-5.1925,-5.3721,-5.5614,-5.6562,-5.7306,-5.7848,-5.6461,-5.5108,0.0,0.0,0.0,0.0,0.0,0.0,0.0,0.0,0.0,0.0,0.0,0.0,0.0,0.0,0.0,0.0,0.0,0.0,0.0,0.0,0.0,0.0,0.0,0.0,0.0,0.0,0.0,0.0,0.0,0.0,0.0,0.0,0.0,0.0,0.0,0.0,0.0,0.0,0.0,0.0,0.0,-4.3192,-4.3939,-4.4067,0.0,0.0,0.0,0.0,-4.5055,-4.5055,0.0,0.0,0.0,0.0,0.0,0.0,0.0,0.0,0.0,0.0,0.0,0.0,0.0,0.0,0.0,0.0,0.0,0.0,0.0,0.0,0.0,0.0,0.0,0.0,0.0,0.0,0.0,0.0,0.0,0.0,0.0,0.0,0.0,0.0,0.0,0.0,0.0,0.0,0.0,0.0,0.0,0.0,0.0,0.0,0.0,0.0,0.0,0.0,0.0,0.0,0.0,0.0,0.0,0.0,0.0,0.0,-5.0166,-5.2942,-5.4769,-5.5716,-5.707,-5.7814,-5.7848,-5.6461,-5.531,0.0,0.0,0.0,0.0,0.0,0.0,0.0,0.0,0.0,0.0,0.0,0.0,0.0,0.0,0.0,0.0,0.0,0.0,0.0,0.0,0.0,0.0,0.0,0.0,0.0,0.0,0.0,0.0,0.0,0.0,0.0,0.0,0.0,0.0,0.0,0.0,0.0,0.0,0.0,0.0,0.0,-4.4615,-4.5359,-4.5974,-4.6447,0.0,0.0,-4.6549,-4.6515,-4.6549,0.0,0.0,0.0,0.0,0.0,0.0,0.0,0.0,0.0,0.0,0.0,0.0,0.0,0.0,0.0,0.0,0.0,0.0,0.0,0.0,0.0,0.0,0.0,0.0,0.0,0.0,0.0,0.0,0.0,0.0,0.0,0.0,0.0,0.0,0.0,0.0,0.0,0.0,0.0,0.0,0.0,0.0,0.0,0.0,0.0,0.0,0.0,0.0,0.0,0.0,0.0,0.0,0.0,0.0,0.0,-4.952,-5.1319,-5.3484,-5.5344,-5.69,-5.7983,-5.8524,-5.8524,-5.7103,-5.5784,0.0,0.0,0.0,0.0,0.0,0.0,0.0,0.0,0.0,0.0,0.0,0.0,0.0,0.0,0.0,0.0,0.0,0.0,0.0,0.0,0.0,0.0,0.0,0.0,0.0,0.0,0.0,0.0,0.0,0.0,0.0,0.0,0.0,0.0,0.0,0.0,0.0,0.0,0.0,0.0,0.0,0.0,-4.621,-4.6583,0.0,0.0,0.0,-4.6786,-4.6786,0.0,0.0,0.0,0.0,0.0,0.0,0.0,0.0,0.0,0.0,0.0,0.0,0.0,0.0,0.0,0.0,0.0,0.0,0.0,0.0,0.0,0.0,0.0,0.0,0.0,0.0,0.0,0.0,0.0,0.0,0.0,0.0,0.0,0.0,0.0,0.0,0.0,0.0,0.0,0.0,0.0,0.0,0.0,0.0,0.0,0.0,0.0,0.0,0.0,0.0,0.0,0.0,0.0,0.0,0.0,0.0,0.0,-5.2266,-5.3991,-5.5852,-5.7814,-5.8626,-5.8998,-5.8998,-5.7746,0.0,0.0,0.0,0.0,0.0,0.0,0.0,0.0,0.0,0.0,0.0,0.0,0.0,0.0,0.0,0.0,0.0,0.0,0.0,0.0,0.0,0.0,0.0,0.0,0.0,0.0,0.0,-3.9388,0.0,0.0,0.0,0.0,0.0,0.0,0.0,0.0,0.0,0.0,0.0,0.0,0.0,0.0,-4.6515,-4.7259,-4.7496,-4.7665,0.0,0.0,-4.7834,-4.7631,-4.7631,-4.7564,0.0,0.0,0.0,0.0,0.0,0.0,0.0,0.0,0.0,0.0,0.0,0.0,0.0,0.0,0.0,0.0,0.0,0.0,0.0,0.0,0.0,0.0,0.0,0.0,0.0,0.0,0.0,0.0,0.0,0.0,0.0,0.0,0.0,0.0,0.0,0.0,0.0,0.0,0.0,0.0,0.0,0.0,0.0,0.0,0.0,0.0,0.0,0.0,0.0,0.0,0.0,0.0,0.0,0.0,0.0,-5.2334,-5.4499,-5.6359,-5.7848,-5.8626,-5.8998,-5.8998,-5.8254,-5.7137,0.0,0.0,0.0,0.0,0.0,0.0,0.0,0.0,0.0,0.0,0.0,0.0,0.0,0.0,0.0,0.0,0.0,0.0,0.0,0.0,0.0,0.0,0.0,0.0,0.0,0.0,0.0,0.0,0.0,0.0,0.0,0.0,0.0,0.0,0.0,0.0,0.0,0.0,0.0,0.0,0.0,-4.8007,-4.8748,-4.9424,-5.0101,0.0,0.0,-5.0676,-4.9965,-4.9864,-4.9627,-4.8951,0.0,0.0,0.0,0.0,0.0,0.0,0.0,0.0,0.0,0.0,0.0,0.0,0.0,0.0,0.0,0.0,0.0,0.0,0.0,0.0,0.0,0.0,0.0,0.0,0.0,0.0,0.0,0.0,0.0,0.0,0.0,0.0,0.0,0.0,0.0,0.0,0.0,0.0,0.0,0.0,0.0,0.0,0.0,0.0,0.0,0.0,0.0,0.0,0.0,0.0,0.0,0.0,0.0,-5.1758,-5.3687,-5.548,-5.7306,-5.9167,-6.0013,-6.0182,-5.9674,-5.8964,-5.7679,0.0,0.0,0.0,0.0,0.0,0.0,0.0,0.0,0.0,0.0,0.0,0.0,0.0,0.0,0.0,0.0,0.0,0.0,0.0,0.0,0.0,0.0,0.0,0.0,0.0,0.0,0.0,0.0,-4.1728,-4.1953,-4.1835,0.0,0.0,0.0,0.0,0.0,0.0,0.0,0.0,0.0,0.0,-4.8849,-4.956,-5.0304,0.0,0.0,-5.1217,-5.1116,-5.0811,-5.0371,-4.9999,-4.9729,-4.9086,0.0,0.0,0.0,0.0,0.0,0.0,0.0,0.0,0.0,0.0,0.0,0.0,0.0,0.0,0.0,0.0,0.0,0.0,0.0,0.0,0.0,0.0,0.0,0.0,0.0,0.0,0.0,0.0,0.0,0.0,0.0,0.0,0.0,0.0,0.0,0.0,0.0,0.0,0.0,0.0,0.0,0.0,0.0,0.0,0.0,0.0,0.0,0.0,0.0,0.0,0.0,0.0,-5.2773,-5.4566,-5.6258,-5.8084,-6.0047,-6.0892,-6.1028,-6.0486,-5.9742,-5.8389,0.0,0.0,0.0,0.0,0.0,0.0,0.0,0.0,0.0,0.0,0.0,0.0,0.0,0.0,0.0,0.0,0.0,0.0,0.0,0.0,0.0,0.0,0.0,0.0,0.0,0.0,0.0,0.0,-4.2347,-4.2704,-4.2811,0.0,0.0,0.0,0.0,0.0,0.0,0.0,0.0,0.0,0.0,-4.9661,-5.0608,-5.1217,-5.1623,-5.186,-5.1894,-5.1826,-5.1589,-5.1116,-5.0676,-5.0473,0.0,0.0,0.0,0.0,0.0,0.0,0.0,0.0,0.0,0.0,0.0,0.0,0.0,0.0,0.0,0.0,0.0,0.0,0.0,0.0,0.0,0.0,0.0,0.0,0.0,0.0,0.0,0.0,0.0,0.0,-4.7603,0.0,0.0,0.0,0.0,0.0,0.0,0.0,0.0,0.0,0.0,0.0,0.0,0.0,0.0,0.0,0.0,0.0,0.0,0.0,0.0,0.0,0.0,-5.3822,-5.4634,-5.6765,-5.8626,-6.008,-6.0892,-6.1298,-6.1264,-6.0486,-5.9336,-5.7814,0.0,0.0,0.0,0.0,0.0,0.0,0.0,0.0,0.0,0.0,0.0,0.0,0.0,0.0,0.0,0.0,0.0,0.0,0.0,0.0,0.0,0.0,0.0,0.0,0.0,0.0,-4.268,-4.2584,-4.2845,0.0,0.0,0.0,0.0,0.0,0.0,0.0,0.0,0.0,0.0,-4.9627,-5.0608,-5.2029,-5.2266,-5.2536,-5.3315,-5.3416,-5.3179,-5.2401,-5.2266,-5.2029,0.0,0.0,0.0,0.0,0.0,0.0,0.0,0.0,0.0,0.0,0.0,0.0,0.0,0.0,0.0,0.0,0.0,0.0,0.0,0.0,0.0,0.0,0.0,0.0,0.0,0.0,0.0,-4.8689,-4.8778,0.0,0.0,0.0,0.0,0.0,0.0,0.0,0.0,0.0,0.0,0.0,-5.1911,-5.1847,0.0,0.0,0.0,0.0,0.0,0.0,0.0,0.0,0.0,0.0,0.0,0.0,-5.4329,-5.6055,-5.7746,-5.937,-6.0858,-6.1637,-6.1772,-6.1298,-6.052,-5.8964,-5.6528,0.0,0.0,0.0,0.0,0.0,0.0,0.0,0.0,0.0,0.0,0.0,0.0,0.0,0.0,0.0,0.0,0.0,0.0,0.0,0.0,0.0,0.0,0.0,0.0,0.0,-4.3403,0.0,0.0,0.0,0.0,0.0,0.0,0.0,0.0,0.0,0.0,0.0,-4.8917,-4.9627,-5.0777,-5.1758,-5.2232,-5.2773,-5.3179,0.0,0.0,0.0,0.0,0.0,0.0,0.0,0.0,0.0,0.0,0.0,0.0,0.0,0.0,-4.9424,-4.8443,-4.8274,-4.8274,-4.8274,0.0,0.0,0.0,0.0,0.0,0.0,0.0,0.0,0.0,0.0,0.0,0.0,0.0,0.0,-5.0825,0.0,-5.083,0.0,0.0,0.0,0.0,0.0,0.0,0.0,0.0,-5.2656,-5.3103,-5.3685,-5.3685,-5.3618,0.0,-5.3484,-5.3247,0.0,0.0,0.0,0.0,0.0,0.0,0.0,0.0,-5.548,-5.7171,-5.8626,-6.0013,-6.1264,-6.2009,-6.2178,-6.167,-6.0655,-5.8964,-5.6562,-5.5074,-5.3788,0.0,0.0,0.0,0.0,0.0,0.0,0.0,0.0,0.0,0.0,0.0,0.0,0.0,0.0,0.0,0.0,0.0,0.0,0.0,0.0,0.0,0.0,0.0,-4.479,0.0,0.0,0.0,0.0,0.0,0.0,0.0,0.0,0.0,-4.8376,-4.9154,-5.0033,-5.0777,-5.1691,-5.2401,-5.2672,0.0,0.0,0.0,0.0,0.0,0.0,0.0,-5.2739,-5.2739,-5.2097,-5.1522,-5.1219,-5.1217,-5.1217,-5.1217,0.0,0.0,-4.9932,-4.9796,-4.9763,-4.9763,-4.9763,-4.9763,-4.9763,-5.0135,-5.0473,0.0,0.0,0.0,0.0,0.0,0.0,0.0,0.0,-5.3753,-5.3786,0.0,-5.3202,0.0,0.0,0.0,0.0,0.0,-5.2584,0.0,0.0,-5.4533,-5.5212,-5.5784,-5.5818,-5.5818,-5.5818,-5.5783,-5.5784,-5.5581,-5.2808,0.0,0.0,0.0,0.0,0.0,0.0,-5.7205,-5.7915,-5.937,-6.052,-6.1332,-6.2042,-6.2381,-6.2279,-6.0892,-5.937,-5.7915,-5.6494,-5.5074,-5.3585,-5.2773,0.0,0.0,0.0,0.0,0.0,0.0,0.0,0.0,0.0,0.0,0.0,0.0,0.0,0.0,0.0,0.0,0.0,0.0,0.0,0.0,-4.638,0.0,0.0,0.0,0.0,0.0,0.0,0.0,0.0,0.0,0.0,-4.9255,-5.0338,-5.1488,-5.2198,0.0,0.0,0.0,0.0,-5.3585,-5.3619,-5.3585,-5.3585,-5.3551,-5.3551,-5.3518,-5.3484,0.0,0.0,-5.142,-5.1286,-5.132,-5.1319,-5.1354,-5.1252,-5.1285,-5.1151,-5.115,-5.1117,-5.1083,-5.1183,-5.1217,-5.1117,-5.1251,-5.9232,0.0,0.0,0.0,0.0,-5.663,-5.663,-5.663,-5.6701,-5.6396,-5.5888,-5.5893,0.0,0.0,0.0,0.0,0.0,0.0,-5.5383,-5.5922,-5.6159,-5.6869,-5.8051,-5.8084,-5.8048,-5.8084,-5.8048,-5.778,-5.7205,-5.5886,-5.4938,-5.4465,0.0,0.0,0.0,0.0,-5.7949,-5.8727,-6.0182,-6.1332,-6.2076,-6.2279,-6.2144,-6.1603,-6.0655,-5.9404,-5.7949,-5.7002,-5.5818,-5.4363,-5.3551,0.0,0.0,0.0,0.0,0.0,0.0,0.0,0.0,0.0,0.0,0.0,0.0,0.0,0.0,0.0,0.0,0.0,0.0,0.0,-4.6481,-4.6684,-4.6786,0.0,0.0,0.0,0.0,0.0,0.0,0.0,0.0,0.0,-5.1386,-5.1725,-5.2063,0.0,0.0,-5.4025,-5.4262,-5.4735,-5.5074,-5.5074,-5.5074,0.0,-5.4363,-5.4262,-5.4093,-5.3585,-5.3315,-5.3078,-5.2875,-5.2841,-5.2841,-5.2841,-5.2841,-5.2841,-5.2807,-5.1928,-5.1285,-5.1217,-5.1217,-5.1217,-5.1219,-5.1589,-5.1995,-6.2535,-6.0486,-5.9607,-5.9066,-5.8761,-5.8761,-5.8761,-5.8761,-5.8761,-5.8524,-5.8084,-5.7923,-5.7315,-5.6467,-5.6301,0.0,0.0,0.0,-5.738,-5.7679,-5.7983,-5.8592,-5.9404,-5.9438,-5.9438,-5.9438,-5.9438,-5.9201,-5.8761,-5.8321,-5.7881,-5.7442,0.0,0.0,-5.7036,-5.8186,-5.9167,-5.9945,-6.0825,-6.167,-6.2381,-6.2415,-6.2178,-6.1738,-6.0689,-5.9674,-5.8795,-5.7509,-5.6258,-5.5074,-5.4329,-5.345,0.0,0.0,0.0,0.0,0.0,0.0,0.0,0.0,0.0,0.0,0.0,-4.6786,-4.6786,0.0,0.0,0.0,-4.7327,-4.78,-4.8071,-4.8376,0.0,0.0,0.0,0.0,0.0,0.0,0.0,-5.1555,-5.23,-5.2909,-5.3179,-5.345,-5.3551,-5.3247,-5.4262,-5.504,-5.504,0.0,-5.5681,-5.5681,-5.5681,-5.5547,-5.5108,-5.504,-5.4871,-5.4431,-5.4397,-5.4262,-5.3957,-5.3923,-5.3822,-5.3585,-5.3518,-5.3518,-5.3518,-5.2739,-5.2131,-5.2131,-5.2098,-5.2131,-5.2131,-5.2469,-5.2875,-6.5353,-6.4681,-6.2685,-6.1332,-6.0486,-6.0452,-6.0452,-6.0452,-6.0452,-6.0419,-6.0317,-5.9607,-5.9201,-5.9066,-5.8355,0.0,-5.8084,-5.8863,-5.9235,-5.9302,-6.0047,-6.0385,-6.0452,-6.0486,-6.0419,-6.0385,-6.0385,-6.0351,-6.0283,-6.0216,-6.0216,-6.025,-5.8863,-5.849,-5.9099,-5.981,-6.0588,-6.14,-6.1467,-6.1806,-6.2482,-6.2415,-6.2415,-6.2381,-6.0892,-6.008,-6.0047,-5.8017,-5.6528,-5.5715,-5.504,-5.3991,-5.2503,0.0,0.0,0.0,0.0,0.0,0.0,0.0,0.0,0.0,0.0,0.0,0.0,0.0,0.0,0.0,-4.8376,0.0,-5.0101,-5.0811,0.0,0.0,0.0,-5.1185,-5.1285,-5.1354,-5.1657,-5.2401,0.0,0.0,-5.46,-5.5344,-5.5547,-5.4871,-5.5378,-5.5783,-5.5818,-5.5886,-5.585,-5.5987,-5.5919,-5.5886,-5.5818,-5.5681,-5.5615,-5.5581,-5.5681,-5.5412,-5.4837,-5.4668,-5.4397,-5.3754,-5.3619,-5.3619,-5.3619,-5.3551,-5.3619,-5.3653,-5.3619,-5.3585,-5.3551,-5.3653,-5.3923,-6.7579,-6.7083,-6.6542,-6.5256,-6.3565,-6.3531,-6.3531,-6.3531,-6.3531,-6.3226,-6.2651,-6.1907,-6.0926,-5.9844,-5.9641,-5.9573,-5.9607,-6.0385,-6.1061,-6.1637,-6.2347,-6.299,-6.3531,-6.3531,-6.326,-6.2719,-6.2685,-6.2415,-6.1839,-6.1298,-6.1298,-6.1772,-6.0926,-6.0283,-5.9877,-6.0622,-6.14,-6.211,-6.2685,-6.3091,-6.3226,-6.2685,-6.2415,-6.2381,-6.0892,-6.008,-6.008,-5.8524,-5.7036,-5.5784,-5.5547,-5.4769,-5.3281,-5.2638,0.0,0.0,0.0,0.0,0.0,0.0,0.0,0.0,0.0,-4.8714,-4.9255,0.0,-4.9526,0.0,-5.0473,-5.0777,-5.0947,-5.1083,0.0,0.0,-5.1217,-5.1454,-5.1995,-5.257,-5.3247,-5.3957,-5.4702,-5.5243,-5.5446,-5.6089,-5.6494,-5.6292,-5.6427,-5.6528,-5.6562,-5.7036,-5.7374,-5.734,-5.7306,-5.7171,-5.663,-5.6055,-5.575,-5.5681,-5.5681,-5.5649,-5.548,-5.5446,-5.5209,-5.4499,-5.4329,-5.4329,-5.4329,-5.4329,-5.4566,-5.5006,-5.4735,-5.4329,-5.4363,-5.4769,-5.5243,-6.9026,-6.8436,-6.8436,-6.7726,-6.6542,-6.5865,-6.5392,-6.5087,-6.5087,-6.4681,-6.3971,-6.3565,-6.2922,-6.211,-6.211,-6.211,-6.2144,-6.2584,-6.299,-6.3396,-6.3802,-6.4208,-6.4613,-6.4613,-6.441,-6.4005,-6.4005,-6.3768,-6.3362,-6.2956,-6.299,-6.3362,-6.299,-6.255,-6.2144,-6.2245,-6.2651,-6.3362,-6.3463,-6.3491,-6.3457,-6.2787,-6.2415,-6.2347,-6.0892,-6.008,-6.008,-5.8693,-5.7374,-5.6258,-5.5886,-5.5175,-5.4059,-5.3247,-5.2672,0.0,0.0,0.0,0.0,0.0,0.0,0.0,0.0,0.0,0.0,0.0,-5.0777,-5.1183,-5.1522,-5.1691,-5.1691,-5.2334,-5.2706,-5.2706,-5.301,-5.3382,-5.3788,-5.4228,-5.4634,-5.504,-5.575,-5.619,-5.6224,-5.6833,-5.7273,-5.7273,-5.7273,-5.7273,-5.7306,-5.7645,-5.7881,-5.7881,-5.7881,-5.778,-5.734,-5.6968,-5.6697,-5.6664,-5.6697,-5.6596,-5.6258,-5.619,-5.5953,-5.5277,-5.5074,-5.5108,-5.5074,-5.5074,-5.5243,-5.5547,-5.5649,-5.548,-5.5175,-5.5412,-5.5784,-6.9958,-6.9383,-6.9383,-6.9383,-6.9282,-6.7963,-6.6914,-6.6136,-6.6136,-6.5662,-6.4884,-6.4783,-6.4681,-6.4613,-6.4613,-6.4613,-6.4613,-6.4715,-6.4749,-6.4749,-6.485,-6.4884,-6.4884,-6.4884,-6.485,-6.4749,-6.4749,-6.4715,-6.4613,-6.4613,-6.4613,-6.4613,-6.4613,-6.4647,-6.4715,-6.4106,-6.4106,-6.4715,-6.4038,-6.3626,-6.3632,-6.2821,-6.2415,-6.2347,-6.0926,-6.008,-6.0047,-5.8693,-5.7543,-5.6833,-5.619,-5.548,-5.4634,-5.3991,-5.3281,0.0,-5.2435,0.0,0.0,0.0,0.0,0.0,0.0,0.0,0.0,-5.1454,-5.1555,-5.1623,-5.2232,-5.2638,-5.2706,-5.3957,-5.4735,-5.4735,-5.531,-5.5681,-5.5681,-5.5784,-5.5852,-5.5852,-5.6494,-5.6934,-5.6968,-5.7509,-5.7881,-5.7848,-5.7814,-5.7814,-5.7848,-5.7848,-5.7881,-5.7881,-5.7881,-5.7881,-5.7814,-5.7814,-5.778,-5.7814,-5.778,-5.7679,-5.7036,-5.6934,-5.6697,-5.6055,-5.5852,-5.5852,-5.5852,-5.5852,-5.5919,-5.6089,-5.6528,-5.663,-5.6055,-5.6021,-5.619,-7.1041,-7.0906,-7.0906,-7.0906,-7.0872,-7.0567,-6.9722,-6.847,-6.8436,-6.7692,-6.6373,-6.5764,-6.5155,-6.4613,-6.4613,-6.4613,-6.4613,-6.5222,-6.5493,-6.5493,-6.6102,-6.6406,-6.6406,-6.6406,-6.6068,-6.5527,-6.5459,-6.5189,-6.4613,-6.4613,-6.4613,-6.4613,-6.4613,-6.4918,-6.5425,0.0,0.0,0.0,-6.4783,-6.441,-6.4343,-6.3091,-6.2415,-6.2381,-6.0892,0.0,-6.0047,-5.8693,-5.7543,-5.6867,-5.6664,0.0,0.0,0.0,0.0,0.0,0.0,0.0,0.0,0.0,0.0,0.0,-5.3619,-5.3416,-5.2232,-5.2706,-5.3315,-5.389,-5.4059,-5.4397,-5.5006,-5.531,-5.5513,-5.5513,-5.5615,-5.5681,-5.5681,-5.6224,-5.6596,-5.6596,-5.7239,-5.7679,-5.7645,-5.7814,-5.7881,-5.7881,-5.7881,-5.7881,-5.7881,-5.7881,-5.7881,-5.7881,-5.7881,-5.7881,-5.7881,-5.7881,-5.7881,-5.7881,-5.7881,-5.7814,-5.7679,-5.7645,-5.7408,-5.6697,-5.6596,-5.6562,-5.6562,-5.6596,-5.6765,-5.734,-5.7577,-5.7476,-5.6765,-5.707,-5.7509,-7.1312,0.0,-7.1312,-7.1312,0.0,-7.1312,-7.0906,-7.0161,-6.9789,-6.8774,-6.7354,-6.6948,-6.6373,-6.5696,-6.5696,-6.5696,-6.5696,-6.6068,-6.6237,-6.6271,-6.6643,-6.6812,-6.6812,-6.6812,-6.6609,-6.6237,-6.6237,-6.6068,-6.5696,-6.5696,-6.5696,-6.5696,-6.5696,-6.5899,-6.6237,-6.6237,-6.6237,-6.6237,-6.5527,-6.4952,-6.458,-6.3531,-6.2787,-6.2381,-6.0892,0.0,0.0,0.0,0.0,0.0,0.0,0.0,0.0,-5.5344,0.0,-5.4634,-5.46,-5.46,-5.46,-5.4566,-5.46,-5.46,-5.4938,-5.4803,-5.4025,-5.4363,-5.4735,-5.5108,-5.5141,-5.531,-5.5683,-5.6021,-5.6258,-5.6292,-5.6562,-5.6799,-5.6833,-5.7103,-5.734,-5.7374,-5.7645,-5.7881,-5.7881,-5.7881,-5.7881,-5.7881,-5.7881,-5.7881,-5.7881,-5.7881,-5.7881,-5.7881,-5.7881,-5.7881,-5.7881,-5.7881,-5.7881,-5.7881,-5.7881,-5.7881,-5.7881,-5.7611,-5.7205,-5.6867,-5.6799,-5.6799,-5.6833,-5.707,-5.7476,-5.778,-5.7881,-5.778,-5.7408,-5.7645,-5.7881,-7.1481,-7.1481,-7.1379,-7.1312,-7.1312,-7.1312,-7.1312,-7.1278,0.0,0.0,0.0,-6.803,-6.7557,-6.7015,-6.688,-6.6812,-6.6812,-6.6812,-6.6812,-6.6812,-6.6812,-6.6812,-6.6812,-6.6812,-6.6812,-6.6812,-6.6812,-6.6812,-6.6812,-6.6812,-6.6812,-6.6812,-6.6812,-6.6812,-6.6812,-6.6812,-6.6812,-6.6779,-6.6068,-6.5324,-6.4613,-6.3903,-6.3159,-6.2415,-6.0892,-6.008,-6.008,-5.866,-5.7881,-5.7848,-5.734,-5.6934,-5.6799,-5.6224,-5.5817,-5.5716,-5.5681,-5.5681,-5.5681,-5.5681,-5.5749,-5.5886,-5.5919,-5.5852,-5.5716,-5.5681,-5.5784,-5.585,-5.5919,-5.5953,-5.6089,-5.663,-5.7002,-5.7002,-5.7543,-5.7848,-5.7848,-5.7881,-5.7848,-5.7881,-5.7881,-5.7881,-5.7881,-5.7881,-5.7881,-5.7881,-5.7881,-5.7881,-5.7881,-5.7881,-5.7881,-5.7881,-5.7881,-5.7881,-5.7881,-5.7881,-5.7881,-5.7881,-5.7881,-5.7848,-5.7645,-5.7205,-5.6799,-5.6562,-5.6596,-5.663,-5.6799,-5.7205,-5.7712,-5.7848,-5.7881,-5.7881,-5.7881,-5.7881,-5.7881,-7.2259,-7.2191,-7.1582,-7.1312,-7.1312,-7.1312,-7.1312,-7.1244,-7.05,-7.006,-6.9789,-6.847,-6.7861,-6.7726,-6.7117,-6.6812,-6.6812,-6.6812,-6.6812,-6.6812,-6.6812,-6.6812,-6.6812,-6.6812,-6.6812,-6.6812,-6.6812,-6.6812,-6.6812,-6.6812,-6.6812,-6.6812,-6.6812,-6.6812,-6.6812,-6.6812,-6.6812,-6.6812,-6.6068,-6.5324,-6.4613,-6.3903,-6.3159,-6.2381,-6.0892,-6.008,-6.008,-5.8693,-5.7881,-5.7881,-5.778,-5.7442,-5.6833,-5.6697,-5.6359,-5.5784,-5.5716,-5.5681,-5.5716,-5.5681,-5.5987,-5.6562,-5.6664,-5.6393,-5.5749,-5.5681,-5.5952,-5.6562,-5.6664,-5.69,-5.7476,-5.7645,-5.7679,-5.7712,-5.7814,-5.7881,-5.7881,-5.7881,-5.7881,-5.7881,-5.7881,-5.7881,-5.7881,-5.7918,-5.7918,-5.7881,-5.7881,-5.7881,-5.7881,-5.7881,-5.7881,-5.7881,-5.7881,-5.7881,-5.7881,-5.7881,-5.7918,-5.7881,-5.7918,-5.7715,-5.7139,-5.6902,-5.653,-5.5987,-5.5852,-5.6089,-5.6596,-5.6867,-5.7239,-5.7712,-5.7881,-5.7881,-5.7881,-5.7881,-5.7881,-7.3003,-7.2902,-7.2191,-7.1887,-7.1887,-7.1481,-7.1312,-7.1278,-7.0939,-7.0567,-7.0128,-6.9417,-6.8673,-6.7895,-6.7557,-6.7184,-6.6812,-6.6812,-6.6812,-6.6812,-6.6812,-6.6812,-6.6812,-6.6812,-6.6812,-6.6812,-6.6812,-6.6812,-6.6812,-6.6812,-6.6812,-6.6812,-6.6812,-6.6812,-6.6812,-6.6812,-6.6812,-6.6812,-6.6474,-6.573,-6.4613,-6.4275,-6.3565,-6.2415,-6.1332,-6.052,-6.0114,-5.9066,-5.8321,-5.7915,-5.7881,-5.7746,-5.7408,-5.7408,-5.7239,-5.6934,-5.69,-5.69,-5.69,-5.69,-5.7036,-5.7374,-5.7374,-5.7273,-5.6934,-5.69,-5.7036,-5.734,-5.7374,-5.7509,-5.7848,-5.7881,-5.7881,-5.7881,-5.7881,-5.7881,-5.7881,-5.7881,-5.7881,-5.7881,-5.7881,-5.7881,-5.7881,-5.7991,-5.8024,-5.7918,-5.7881,-5.7918,-5.7918,-5.7991,-5.8027,-5.7918,-5.7881,-5.7881,-5.7918,-5.7991,-5.8027,-5.8063,-5.8135,-5.7901,-5.7185,-5.6776,-5.6095,-5.5415,-5.5177,-5.5412,-5.6089,-5.6562,-5.707,-5.7679,-5.7881,-5.7881,-5.7881,-5.7881,-5.7881,-7.3747,-7.368,-7.2766,-7.2326,-7.2124,-7.1548,-7.1312,-7.1312,-7.1312,-7.0973,-7.0466,-7.0263,-6.9417,-6.8233,-6.7996,-6.7489,-6.688,-6.6812,-6.6812,-6.6812,-6.6812,-6.6812,-6.6812,-6.6812,-6.6812,-6.6812,-6.6812,-6.6812,-6.6812,-6.6812,-6.6812,-6.6812,-6.6812,-6.6812,-6.6812,-6.6812,-6.6812,-6.6812,-6.6812,-6.6102,-6.4681,-6.4613,-6.3903,-6.2482,-6.167,-6.1028,-6.0385,-5.9641,-5.8998,-5.8423,-5.822,-5.8152,-5.8118,-5.7983,-5.7881,-5.7881,-5.7881,-5.7881,-5.7881,-5.7881,-5.7881,-5.7881,-5.7881,-5.7881,-5.7881,-5.7881,-5.7881,-5.7881,-5.7848,-5.7848,-5.7881,-5.7881,-5.7881,-5.7881,-5.7881,-5.7881,-5.7881,-5.7881,-5.7918,-5.7954,-5.7954,-5.7991,-5.8027,-5.8171,-5.8205,-5.8063,-5.8027,-5.8027,-5.8061,-5.8171,-5.8205,-5.8099,-5.8027,-5.8063,-5.8027,-5.8169,-5.8277,-5.8277,-5.8384,-5.8079,-5.7395,-5.661,-5.5826,-5.5145,-5.4669,-5.4941,-5.5618,-5.6263,-5.6975,-5.7791,-5.8063,-5.8027,-5.7991,-5.7918,-5.7918,-7.4525,-7.4289,-7.3003,-7.2022,-7.1447,-7.1345,-7.1312,-7.1312,-7.1312,-7.1312,-7.1109,-7.05,-6.9755,-6.8977,-6.8233,-6.7557,-6.6846,-6.6812,-6.6812,-6.6812,-6.6812,-6.6812,-6.6812,-6.6812,-6.6812,-6.6812,-6.6812,-6.6812,-6.6812,-6.6812,-6.6812,-6.6812,-6.6812,-6.6812,-6.6812,-6.6812,-6.6812,-6.6812,-6.6812,-6.6102,-6.4715,-6.4613,-6.3903,-6.2448,-6.1704,-6.1264,-6.1129,-6.0419,-5.9979,-5.9844,-5.9235,-5.8896,-5.8863,-5.8287,-5.7881,-5.7915,-5.7915,-5.7881,-5.7881,-5.7881,-5.7915,-5.7881,-5.7881,-5.7881,-5.7881,-5.7881,-5.7881,-5.7881,-5.7881,-5.7881,-5.7881,-5.7881,-5.7881,-5.7881,-5.7881,-5.7881,-5.7881,-5.7881,-5.7954,-5.8135,-5.8169,-5.8207,-5.8384,-5.8419,-5.8455,-5.8419,-5.8384,-5.8384,-5.8384,-5.8419,-5.849,-5.8455,-5.8455,-5.8455,-5.8419,-5.8455,-5.849,-5.849,-5.849,-5.8184,-5.7534,-5.6816,-5.5962,-5.5416,-5.4699,-5.4837,-5.5724,-5.6304,-5.685,-5.7973,-5.8384,-5.8384,-5.8205,-5.8097,-5.7954,-7.527,-7.51,-7.3646,-7.236,-7.1379,-7.1312,-7.1312,-7.1312,-7.1312,-7.1312,-7.1278,-7.1007,-7.0195,-6.9079,-6.8741,-6.7963,-6.6846,-6.6812,-6.6812,-6.6812,-6.6812,-6.6812,-6.6812,-6.6812,-6.6812,-6.6812,-6.6812,-6.6812,-6.6812,-6.6812,-6.6812,-6.6812,-6.6812,-6.6812,-6.6812,-6.6812,-6.6812,-6.6812,-6.6812,-6.6305,-6.5324,-6.4816,-6.4106,-6.3125,-6.2313,-6.1738,-6.1332,-6.096,-6.0588,-6.0148,-5.981,-5.9641,-5.9641,-5.937,-5.9201,-5.9201,-5.9201,-5.8998,-5.8592,-5.8558,-5.8355,-5.7915,-5.7881,-5.7881,-5.7881,-5.7881,-5.7881,-5.7881,-5.7881,-5.7881,-5.7881,-5.7881,-5.7881,-5.7881,-5.7881,-5.7918,-5.7881,-5.7991,-5.8099,-5.8171,-5.8312,-5.8419,-5.849,-5.849,-5.8561,-5.8631,-5.8596,-5.8525,-5.8525,-5.8596,-5.8666,-5.8666,-5.8736,-5.8701,-5.8596,-5.8596,-5.8666,-5.8701,-5.8771,-5.8531,-5.7878,-5.7398,-5.685,-5.6062,-5.555,-5.562,-5.6713,-5.6918,-5.7294,-5.8252,-5.849,-5.8455,-5.8384,-5.8312,-5.8277,-7.5405,-7.5168,-7.3781,-7.2462,-7.1345,-7.1312,-7.1312,-7.1312,-7.1312,-7.1312,-7.1312,-7.1312,-7.0601,-6.9485,-6.9214,-6.8368,-6.7184,-6.6914,-6.6812,-6.6812,-6.6812,-6.6812,-6.6812,-6.6812,-6.6812,-6.6812,-6.6812,-6.6812,-6.6812,-6.6812,-6.6812,-6.6812,-6.6812,-6.6812,-6.6812,-6.6812,-6.6812,-6.6812,-6.6812,-6.6542,-6.5967,-6.529,-6.4444,-6.3565,-6.299,-6.2347,-6.1637,-6.1603,-6.1332,-6.0757,-6.052,-6.0419,-6.0419,-6.0216,-6.008,-6.008,-6.008,-5.9877,-5.9336,-5.9302,-5.9099,-5.8558,-5.849,-5.849,-5.8457,-5.8321,-5.8223,-5.8259,-5.8126,-5.7954,-5.7881,-5.7954,-5.7954,-5.7991,-5.8027,-5.8063,-5.8063,-5.8171,-5.8312,-5.8384,-5.8525,-5.8596,-5.8631,-5.8666,-5.8736,-5.8806,-5.8736,-5.8631,-5.8666,-5.8771,-5.884,-5.884,-5.8944,-5.8875,-5.8667,-5.8771,-5.884,-5.8875,-5.8909,-5.8806,-5.8254,-5.8015,-5.7706,-5.6916,-5.6677,-5.6712,-5.7261,-5.7535,-5.7741,-5.8323,-5.8631,-5.8596,-5.8596,-5.8561,-5.8525,-7.4661,-7.4424,-7.3071,-7.2022,-7.1312,-7.1312,-7.1312,-7.1312,-7.1312,-7.1312,-7.1312,-7.1312,-7.0872,-7.0094,-6.9451,-6.8639,-6.7793,-6.7117,-6.6812,-6.6812,-6.6812,-6.6812,-6.6812,-6.6812,-6.6812,-6.6812,-6.6812,-6.6812,-6.6812,-6.6812,-6.6812,-6.6812,-6.6812,-6.6812,-6.6812,-6.6812,-6.6812,-6.6812,-6.6812,-6.6779,-6.6643,-6.6,-6.4986,-6.3802,-6.3463,-6.3057,-6.2415,-6.2313,-6.2279,-6.2245,-6.1603,-6.1231,-6.1197,-6.0554,-6.0216,-6.0182,-6.0148,-6.0148,-6.008,-6.0047,-5.9979,-5.9945,-5.9847,-5.9945,-5.9817,-5.9275,-5.8973,-5.9188,-5.8579,-5.8099,-5.7991,-5.8099,-5.8205,-5.8205,-5.8348,-5.8419,-5.8455,-5.8455,-5.8561,-5.8701,-5.877,-5.8806,-5.8944,-5.8978,-5.8944,-5.8978,-5.8978,-5.8944,-5.8909,-5.8944,-5.8978,-5.8978,-5.8978,-5.8978,-5.8978,-5.8944,-5.8944,-5.8978,-5.8944,-5.8978,-5.8737,-5.8461,-5.8082,-5.7737,-5.7394,-5.7326,-5.7704,-5.8013,-5.8289,-5.86,-5.8737,-5.8771,-5.8771,-5.8631,-5.8596,-7.4052,-7.3172,-7.2631,-7.1988,-7.1345,-7.1312,-7.1312,-7.1312,-7.1312,-7.1312,-7.1312,-7.1312,-7.1176,-7.0838,-6.9654,-6.8673,-6.7861,-6.7151,-6.6812,-6.6812,-6.6812,-6.6812,-6.6812,-6.6812,-6.6812,-6.6812,-6.6812,-6.6812,-6.6812,-6.6812,-6.6812,-6.6812,-6.6812,-6.6812,-6.6812,-6.6812,-6.6812,-6.6812,-6.6812,-6.6812,-6.6812,-6.6542,-6.5899,-6.4952,-6.3971,-6.3159,-6.2415,-6.2415,-6.2415,-6.2415,-6.211,-6.2009,-6.1975,-6.1738,-6.1569,-6.1569,-6.1569,-6.1366,-6.096,-6.0892,-6.0694,-6.0337,-6.0337,-6.0479,-6.0387,-5.9879,-5.9402,-5.9373,-5.8827,-5.8348,-5.8314,-5.8348,-5.8419,-5.8419,-5.8455,-5.8525,-5.8525,-5.8596,-5.8701,-5.8771,-5.8875,-5.8944,-5.8978,-5.9012,-5.9012,-5.9012,-5.9012,-5.9012,-5.9012,-5.9012,-5.9012,-5.9012,-5.9012,-5.9012,-5.9012,-5.8978,-5.8978,-5.8978,-5.9012,-5.9012,-5.884,-5.8806,-5.8496,-5.8427,-5.8081,-5.8081,-5.8427,-5.8461,-5.8737,-5.8771,-5.8944,-5.8909,-5.8944,-5.8806,-5.8806,-7.3172,-7.2124,-7.2056,-7.1785,-7.1345,-7.1312,-7.1312,-7.1312,-7.1312,-7.1312,-7.1312,-7.1312,-7.1312,-7.1075,-6.9755,-6.8842,-6.8199,-6.7286,-6.6812,-6.6812,-6.6812,-6.6812,-6.6812,-6.6812,-6.6812,-6.6812,-6.6812,-6.6812,-6.6812,-6.6812,-6.6812,-6.6812,-6.6812,-6.6812,-6.6812,-6.6812,-6.6812,-6.6812,-6.6812,-6.6812,-6.6812,-6.6812,-6.6474,-6.5662,-6.4715,-6.3734,-6.2821,-6.2516,-6.2415,-6.2415,-6.2415,-6.2415,-6.2415,-6.2415,-6.2415,-6.2415,-6.2381,-6.2251,-6.1849,-6.1748,-6.1626,-6.1272,-6.131,-6.1385,-6.1465,-6.0816,-6.0337,-5.9963,-5.9383,-5.8904,-5.87,-5.8632,-5.8666,-5.8631,-5.8631,-5.8666,-5.8666,-5.8771,-5.884,-5.8875,-5.8909,-5.8978,-5.9012,-5.9012,-5.9012,-5.9012,-5.9012,-5.9012,-5.9012,-5.9012,-5.9012,-5.9012,-5.9012,-5.9012,-5.9012,-5.9012,-5.9012,-5.9012,-5.9012,-5.9012,-5.9012,-5.9012,-5.9012,-5.9012,-5.9012,-5.9012,-5.9012,-5.9012,-5.9012,-5.9012,-5.8978,-5.8944,-5.8978,-5.8978,-5.8978,-7.1988,-7.1413,-7.1312,-7.1379,-7.1312,-7.1312,-7.1312,-7.1312,-7.1312,-7.1312,-7.1312,-7.1312,-7.1312,-7.1007,-6.9755,-6.9079,-6.8741,-6.7489,-6.6812,-6.6812,-6.6812,-6.6812,-6.6812,-6.6812,-6.6812,-6.6812,-6.6812,-6.6812,-6.6812,-6.6812,-6.6812,-6.6812,-6.6812,-6.6812,-6.6812,-6.6812,-6.6812,-6.6812,-6.6812,-6.6812,-6.6812,-6.6812,-6.6508,-6.5831,-6.5595,-6.4918,-6.3599,-6.2854,-6.2482,-6.2415,-6.2415,-6.2415,-6.2415,-6.2415,-6.242,-6.2454,-6.2454,-6.2498,-6.262,-6.2625,-6.2668,-6.2723,-6.2863,-6.2764,-6.2665,-6.2152,-6.1471,-6.0897,-6.0213,-5.9631,-5.9082,-5.8944,-5.8944,-5.884,-5.884,-5.8944,-5.8944,-5.8978,-5.8978,-5.8978,-5.8978,-5.9012,-5.9012,-5.9012,-5.9012,-5.9012,-5.9012,-5.9012,-5.9012,-5.9012,-5.9012,-5.9012,-5.9012,-5.9012,-5.9012,-5.9012,-5.9012,-5.9012,-5.9012,-5.9012,-5.9012,-5.9012,-5.9012,-5.9012,-5.9012,-5.9012,-5.9012,-5.9012,-5.9012,-5.9012,-5.9012,-5.9012,-5.9012,-5.9012,-5.9012,-7.1515,-7.1312,-7.1312,-7.1312,-7.1312,-7.1312,-7.1312,-7.1312,-7.1312,-7.1312,-7.1312,-7.1312,-7.1312,-7.0973,-6.9789,-6.9079,-6.8977,-6.7557,-6.6812,-6.6812,-6.6812,-6.6812,-6.6812,-6.6812,-6.6812,-6.6812,-6.6812,-6.6812,-6.6812,-6.6812,-6.6812,-6.6812,-6.6812,-6.6812,-6.6812,-6.6812,-6.6812,-6.6812,-6.6812,-6.6812,-6.6812,-6.6812,-6.6677,-6.644,-6.5967,-6.5425,-6.4986,-6.3835,-6.2956,-6.2448,-6.2415,-6.2415,-6.2415,-6.2415,-6.2459,-6.261,-6.261,-6.2693,-6.2885,-6.2923,-6.3,-6.3152,-6.3189,-6.3265,-6.3311,-6.2726,-6.2004,-6.132,-6.0563,-5.984,-5.9185,-5.9012,-5.8978,-5.8909,-5.8978,-5.9012,-5.9012,-5.9012,-5.9012,-5.9012,-5.9012,-5.9012,-5.9012,-5.9012,-5.9012,-5.9012,-5.9012,-5.9012,-5.9012,-5.9012,-5.9012,-5.9012,-5.9012,-5.9012,-5.9012,-5.9012,-5.9012,-5.9012,-5.9012,-5.9012,-5.9012,-5.9012,-5.9012,-5.9012,-5.9012,-5.9012,-5.9012,-5.9012,-5.9012,-5.9012,-5.9012,-5.9012,-5.9012,-5.9012,-5.9012,-7.1312,-7.1312,-7.1312,-7.1312,-7.1312,-7.1312,-7.1312,-7.1312,-7.1312,-7.1312,-7.1312,-7.1312,-7.1312,-7.1007,-6.9755,-6.9113,-6.8944,-6.7523,-6.6812,-6.6812,-6.6812,-6.6812,-6.6812,-6.6812,-6.6812,-6.6812,-6.6812,-6.6812,-6.6812,-6.6812,-6.6812,-6.6812,-6.6812,-6.6812,-6.6812,-6.6812,-6.6812,-6.6812,-6.6812,-6.6812,-6.6812,-6.6812,-6.6812,-6.6745,-6.6339,-6.6,-6.5662,-6.4783,-6.3869,-6.2956,-6.2629,-6.2532,-6.2498,-6.2576,-6.2693,-6.277,-6.2808,-6.2885,-6.3076,-6.3114,-6.3189,-6.3377,-6.3414,-6.3452,-6.3459,-6.3082,-6.2565,-6.1806,-6.1082,-6.0289,-5.9599,-5.915,-5.9012,-5.9012,-5.8978,-5.9012,-5.9012,-5.9012,-5.9012,-5.9012,-5.9012,-5.9012,-5.9012,-5.9012,-5.9012,-5.9012,-5.9012,-5.9012,-5.9012,-5.9012,-5.9012,-5.9012,-5.9012,-5.9012,-5.9012,-5.9012,-5.9012,-5.9012,-5.9012,-5.9012,-5.9012,-5.9012,-5.9012,-5.9012,-5.9012,-5.9012,-5.9012,-5.9012,-5.9012,-5.9012,-5.9012,-5.9012,-5.9012,-5.9012,-5.9012,-7.1312,-7.1312,-7.1312,-7.1312,-7.1312,-7.1312,-7.1312,-7.1312,-7.1312,-7.1312,-7.1312,-7.1312,-7.1244,-7.0906,-6.9688,-6.9045,-6.8774,-6.7523,-6.6812,-6.6812,-6.6812,-6.6812,-6.6812,-6.6812,-6.6812,-6.6812,-6.6812,-6.6812,-6.6812,-6.6812,-6.6812,-6.6812,-6.6812,-6.6812,-6.6812,-6.6812,-6.6812,-6.6812,-6.6812,-6.6812,-6.6812,-6.6812,-6.6812,-6.6812,-6.6745,-6.644,-6.5933,-6.5636,-6.4925,-6.3672,-6.295,-6.2727,-6.2731,-6.2885,-6.2962,-6.3,-6.3038,-6.3114,-6.3265,-6.3302,-6.3377,-6.3526,-6.3563,-6.36,-6.3565,-6.3496,-6.3117,-6.2427,-6.1772,-6.1013,-6.022,-5.9599,-5.9185,-5.9012,-5.9012,-5.9012,-5.9012,-5.9012,-5.9012,-5.9012,-5.9012,-5.9012,-5.9012,-5.9012,-5.9012,-5.9012,-5.9012,-5.9012,-5.9012,-5.9012,-5.9012,-5.9012,-5.9012,-5.9012,-5.9012,-5.9012,-5.9012,-5.9012,-5.9012,-5.9012,-5.9012,-5.9012,-5.9012,-5.9012,-5.9012,-5.9012,-5.9012,-5.9012,-5.9012,-5.9012,-5.9012,-5.9012,-5.9012,-5.9012,-5.9012,-7.1312,-7.1312,-7.1312,-7.1312,-7.1312,-7.1312,-7.1312,-7.1312,-7.1312,-7.1312,-7.1312,-7.1312,-7.1007,-7.0398,-6.9519,-6.8808,-6.8132,-6.7252,-6.6812,-6.6812,-6.6812,-6.6812,-6.6812,-6.6812,-6.6812,-6.6812,-6.6812,-6.6812,-6.6812,-6.6812,-6.6812,-6.6812,-6.6812,-6.6812,-6.6812,-6.6812,-6.6812,-6.6812,-6.6812,-6.6812,-6.6812,-6.6812,-6.6812,-6.6812,-6.6812,-6.6711,-6.6474,-6.6166,-6.5264,-6.3838,-6.3217,-6.2923,-6.2923,-6.2966,-6.3114,-6.3189,-6.3227,-6.3302,-6.3489,-6.3526,-6.3563,-6.36,-6.36,-6.36,-6.36,-6.36,-6.322,-6.2634,-6.222,-6.1634,-6.053,-6.0013,-5.9633,-5.9116,-5.9012,-5.9012,-5.9012,-5.9012,-5.9012,-5.9012,-5.9012,-5.9012,-5.9012,-5.9012,-5.9012,-5.9012,-5.9012,-5.9012,-5.9012,-5.9012,-5.9012,-5.9012,-5.9012,-5.9012,-5.9012,-5.9012,-5.9012,-5.9012,-5.9012,-5.9012,-5.9012,-5.9012,-5.9012,-5.9012,-5.9012,-5.9012,-5.9012,-5.9012,-5.9012,-5.9012,-5.9012,-5.9047,-5.9012,-5.9012,-5.9047,-7.1312,-7.1312,-7.1312,-7.1312,-7.1312,-7.1312,-7.1312,-7.1312,-7.1312,-7.1312,-7.1244,-7.0973,-7.0601,-7.0094,-6.9079,-6.8368,-6.7861,-6.7151,-6.6846,-6.6812,-6.6812,-6.6812,-6.6812,-6.6812,-6.6812,-6.6812,-6.6812,-6.6812,-6.6812,-6.6812,-6.6812,-6.6812,-6.6812,-6.6812,-6.6812,-6.6812,-6.6812,-6.6812,-6.6812,-6.6812,-6.6812,-6.6812,-6.6812,-6.6812,-6.6812,-6.6812,-6.6837,-6.6432,-6.5431,-6.421,-6.3683,-6.3422,-6.3186,-6.3227,-6.3302,-6.3414,-6.3414,-6.3489,-6.3563,-6.36,-6.36,-6.36,-6.36,-6.36,-6.36,-6.36,-6.3324,-6.3048,-6.2703,-6.2048,-6.1323,-6.0634,-5.9875,-5.9185,-5.9012,-5.9012,-5.9012,-5.9012,-5.9012,-5.9012,-5.9012,-5.9012,-5.9012,-5.9012,-5.9012,-5.9012,-5.9012,-5.9012,-5.9012,-5.9012,-5.9012,-5.9012,-5.9012,-5.9012,-5.9012,-5.9012,-5.9047,-5.9047,-5.9081,-5.9047,-5.9047,-5.9047,-5.9012,-5.9012,-5.9012,-5.9012,-5.9047,-5.9047,-5.9047,-5.9081,-5.9081,-5.9149,-5.9183,-5.9183,-5.9149,-7.1356,-7.1312,-7.1312,-7.1312,-7.1312,-7.1312,-7.1312,-7.1312,-7.1176,-7.1142,-7.0973,-7.0398,-6.9958,-6.9857,-6.8538,-6.7861,-6.7726,-6.7083,-6.688,-6.6812,-6.6812,-6.6812,-6.6812,-6.6812,-6.6812,-6.6812,-6.6812,-6.6812,-6.6812,-6.6812,-6.6812,-6.6812,-6.6812,-6.6812,-6.6812,-6.6812,-6.6812,-6.6812,-6.6812,-6.6812,-6.6812,-6.6812,-6.6812,-6.6812,-6.6854,-6.7014,-6.7052,-6.6745,-6.5909,-6.4478,-6.4461,-6.4057,-6.3546,-6.3629,-6.3563,-6.3563,-6.3563,-6.36,-6.36,-6.36,-6.36,-6.36,-6.36,-6.36,-6.36,-6.36,-6.3565,-6.3462,-6.2979,-6.2599,-6.2151,-6.1082,-6.0047,-5.9392,-5.915,-5.9012,-5.9012,-5.9012,-5.9012,-5.9012,-5.9012,-5.9012,-5.9012,-5.9012,-5.9012,-5.9012,-5.9012,-5.9012,-5.9012,-5.9012,-5.9012,-5.9012,-5.9012,-5.9012,-5.9012,-5.9047,-5.9081,-5.9149,-5.9183,-5.9183,-5.9217,-5.9183,-5.9081,-5.9081,-5.9217,-5.9217,-5.9149,-5.9149,-5.9183,-5.9217,-5.9319,-5.9419,-5.9486,-5.9419,-5.9419,-7.1512,-7.1512,-7.1401,-7.1312,-7.1312,-7.1312,-7.1312,-7.1278,-7.0703,-7.05,-7.0263,-6.9654,-6.9011,-6.8436,-6.803,-6.759,-6.7151,-6.688,-6.6812,-6.6812,-6.6812,-6.6812,-6.6812,-6.6812,-6.6812,-6.6812,-6.6812,-6.6812,-6.6812,-6.6812,-6.6812,-6.6812,-6.6812,-6.6812,-6.6812,-6.6812,-6.6812,-6.6812,-6.6812,-6.6812,-6.6812,-6.6812,-6.6812,-6.6812,-6.698,-6.7222,-6.7394,-6.7461,-6.7113,-6.6342,-6.5352,-6.4697,-6.4318,-6.3873,-6.3669,-6.36,-6.36,-6.36,-6.36,-6.36,-6.36,-6.36,-6.36,-6.36,-6.36,-6.36,-6.36,-6.36,-6.3427,-6.3048,-6.2427,-6.1082,-6.0254,-5.984,-5.9357,-5.9012,-5.9012,-5.9012,-5.9012,-5.9012,-5.9012,-5.9012,-5.9012,-5.9012,-5.9012,-5.9012,-5.9012,-5.9012,-5.9012,-5.9047,-5.9081,-5.9115,-5.9115,-5.9183,-5.9217,-5.9251,-5.9285,-5.9319,-5.9319,-5.9351,-5.9386,-5.9352,-5.9318,-5.9386,-5.9521,-5.9453,-5.9352,-5.9386,-5.9419,-5.9486,-5.952,-5.9586,-5.9619,-5.9654,-5.9687,-7.1776,-7.1732,-7.1546,-7.1457,-7.1412,-7.1356,-7.1312,-7.1176,-7.05,-7.0195,-6.9925,-6.9079,-6.8301,-6.7861,-6.7557,-6.7151,-6.688,-6.6812,-6.6812,-6.6812,-6.6812,-6.6812,-6.6812,-6.6812,-6.6812,-6.6812,-6.6812,-6.6812,-6.6812,-6.6812,-6.6812,-6.6812,-6.6812,-6.6812,-6.6812,-6.6812,-6.6812,-6.6812,-6.6812,-6.6812,-6.6812,-6.6812,-6.6812,-6.6854,-6.7056,-6.7304,-6.7475,-6.7678,-6.7679,-6.7286,-6.6393,-6.5393,-6.4772,-6.4324,-6.3979,-6.3634,-6.36,-6.36,-6.36,-6.36,-6.36,-6.36,-6.36,-6.36,-6.36,-6.36,-6.36,-6.36,-6.3531,-6.3289,-6.253,-6.1496,-6.0703,-6.0116,-5.9495,-5.9047,-5.9012,-5.9012,-5.9012,-5.9012,-5.9012,-5.9012,-5.9012,-5.9047,-5.9081,-5.9149,-5.9149,-5.9183,-5.9352,-5.9352,-5.9352,-5.9352,-5.9319,-5.9352,-5.9419,-5.9453,-5.9453,-5.9486,-5.9486,-5.9586,-5.9617,-5.9584,-5.9551,-5.9619,-5.9654,-5.9588,-5.9554,-5.9621,-5.9652,-5.9685,-5.9683,-5.9751,-5.9816,-5.9881,-5.9914,-7.2029,-7.2029,-7.1776,-7.1644,-7.1634,-7.1457,-7.1255,-7.1052,-7.0331,-6.9823,-6.9586,-6.8301,-6.7692,-6.7557,-6.7117,-6.6846,-6.6812,-6.6812,-6.6812,-6.6812,-6.6812,-6.6812,-6.6812,-6.6812,-6.6812,-6.6812,-6.6812,-6.6812,-6.6812,-6.6812,-6.6812,-6.6812,-6.6812,-6.6812,-6.6812,-6.6812,-6.6812,-6.6812,-6.6812,-6.6812,-6.6812,-6.6812,-6.6812,-6.6854,-6.7105,-6.7346,-6.755,-6.7719,-6.7925,-6.8049,-6.7497,-6.6393,-6.529,-6.4669,-6.4358,-6.3669,-6.36,-6.36,-6.36,-6.36,-6.36,-6.36,-6.36,-6.36,-6.36,-6.36,-6.36,-6.36,-6.3531,-6.3358,-6.2703,-6.1737,-6.1047,-6.0392,-5.9599,-5.9081,-5.9047,-5.9047,-5.9047,-5.9012,-5.9047,-5.9081,-5.9115,-5.9149,-5.9217,-5.9284,-5.9319,-5.9386,-5.952,-5.9621,-5.9553,-5.9486,-5.9453,-5.952,-5.9586,-5.9718,-5.9718,-5.9751,-5.9753,-5.9816,-5.9911,-5.9975,-5.9943,-5.9751,-5.9718,-5.9718,-5.9753,-5.9786,-5.9816,-5.9846,-5.9943,-6.0043,-6.0107,-6.0171,-6.0171,-7.2245,-7.2245,-7.2029,-7.1942,-7.1898,-7.1644,-7.1216,-7.0561,-6.9708,-6.891,-6.8233,-6.7421,-6.7049,-6.6981,-6.6914,-6.6812,-6.6812,-6.6812,-6.6812,-6.6812,-6.6812,-6.6812,-6.6812,-6.6812,-6.6812,-6.6812,-6.6812,-6.6812,-6.6812,-6.6812,-6.6812,-6.6812,-6.6812,-6.6812,-6.688,-6.6812,-6.6846,-6.6914,-6.688,-6.6812,-6.6812,-6.6812,-6.6812,-6.6854,-6.7188,-6.7469,-6.7557,-6.7839,-6.8044,-6.8083,-6.798,-6.7083,-6.5911,-6.5117,-6.4427,-6.3772,-6.36,-6.36,-6.36,-6.36,-6.36,-6.36,-6.36,-6.36,-6.36,-6.36,-6.36,-6.36,-6.36,-6.3496,-6.3393,-6.222,-6.1392,-6.0806,-6.0013,-5.915,-5.9217,-5.9251,-5.9183,-5.9115,-5.9149,-5.9217,-5.9285,-5.9319,-5.9419,-5.952,-5.9586,-5.9619,-5.9753,-5.9753,-5.9685,-5.9654,-5.9588,-5.9652,-5.9748,-5.9911,-6.0043,-6.0075,-6.0107,-6.0206,-6.0297,-6.0423,-6.036,-6.0139,-6.001,-6.0043,-6.0043,-6.001,-6.0075,-6.0202,-6.0266,-6.0329,-6.036,-6.0392,-6.0423,-7.2501,-7.2501,-7.2245,-7.2159,-7.2047,-7.142,-7.094,-7.0376,-6.9228,-6.8396,-6.7836,-6.7151,-6.6812,-6.6812,-6.6812,-6.6812,-6.6812,-6.6812,-6.6812,-6.6812,-6.6812,-6.6812,-6.6812,-6.6812,-6.6812,-6.6812,-6.6812,-6.6812,-6.6812,-6.6812,-6.6812,-6.6812,-6.6812,-6.6981,-6.7184,-6.7015,-6.7083,-6.7151,-6.7015,-6.6812,-6.6812,-6.6812,-6.6854,-6.7063,-6.7312,-6.755,-6.7678,-6.7885,-6.8083,-6.8083,-6.8083,-6.7463,-6.6566,-6.5669,-6.4772,-6.3876,-6.36,-6.36,-6.36,-6.36,-6.36,-6.36,-6.36,-6.36,-6.36,-6.36,-6.36,-6.36,-6.36,-6.36,-6.3531,-6.2496,-6.1877,-6.1326,-6.0393,-5.9736,-5.9525,-5.9454,-5.9419,-5.9318,-5.9419,-5.9486,-5.9453,-5.952,-5.9619,-5.9685,-5.9783,-5.9916,-6.0016,-6.0118,-6.0153,-6.0256,-6.0258,-6.0186,-6.0212,-6.0237,-6.0297,-6.0329,-6.0423,-6.0521,-6.0583,-6.064,-6.0578,-6.0392,-6.036,-6.0423,-6.036,-6.036,-6.0423,-6.0454,-6.0485,-6.0516,-6.0547,-6.0609,-6.0671,-7.2671,-7.2671,-7.2459,-7.227,-7.1987,-7.1268,-7.0533,-6.9918,-6.8855,-6.8074,-6.759,-6.7117,-6.6812,-6.6812,-6.6812,-6.6812,-6.6812,-6.6812,-6.6812,-6.6812,-6.6812,-6.6812,-6.6812,-6.6812,-6.6812,-6.6972,-6.6896,-6.6888,-6.6812,-6.6854,-6.6896,-6.6938,-6.6896,-6.7175,-6.7523,-6.7259,-6.7413,-6.7371,-6.7269,-6.6888,-6.6812,-6.6854,-6.6938,-6.7222,-6.7428,-6.7638,-6.7799,-6.7965,-6.8083,-6.8083,-6.8014,-6.7738,-6.7014,-6.629,-6.5255,-6.4083,-6.3703,-6.36,-6.36,-6.36,-6.36,-6.36,-6.36,-6.36,-6.36,-6.36,-6.36,-6.36,-6.36,-6.3637,-6.3604,-6.2983,-6.233,-6.1675,-6.0982,-6.0252,-5.983,-5.9685,-5.9751,-5.9751,-5.9786,-5.982,-5.9888,-5.9884,-5.9978,-6.0075,-6.0171,-6.0519,-6.0685,-6.0815,-6.0917,-6.1054,-6.1086,-6.0945,-6.0803,-6.056,-6.0556,-6.0485,-6.064,-6.0762,-6.0793,-6.0823,-6.0793,-6.0823,-6.0854,-6.0914,-6.0793,-6.0609,-6.0609,-6.0609,-6.0671,-6.0732,-6.0854,-6.0944,-6.1034,-7.2671,-7.2671,-7.2671,-7.2249,-7.1587,-7.124,-7.0206,-6.8903,-6.8463,-6.7768,-6.7049,-6.688,-6.6812,-6.6812,-6.6812,-6.6812,-6.6812,-6.6812,-6.6812,-6.6812,-6.6812,-6.6854,-6.6812,-6.6812,-6.7014,-6.7139,-6.7139,-6.698,-6.6938,-6.7097,-6.7139,-6.718,-6.7304,-6.753,-6.7686,-6.7482,-6.738,-6.7316,-6.7207,-6.7056,-6.6896,-6.7056,-6.718,-6.7304,-6.7516,-6.7759,-6.7839,-6.8004,-6.8083,-6.8123,-6.8123,-6.7738,-6.7014,-6.629,-6.5497,-6.4669,-6.4048,-6.36,-6.3637,-6.3673,-6.3673,-6.3673,-6.3673,-6.36,-6.3673,-6.3673,-6.3673,-6.36,-6.3637,-6.371,-6.3716,-6.3163,-6.2508,-6.1919,-6.1361,-6.0661,-6.0165,-6.0326,-6.0391,-6.0663,-6.0838,-6.0557,-6.0452,-6.0375,-6.0364,-6.0454,-6.0622,-6.1043,-6.1357,-6.1628,-6.1801,-6.1974,-6.2036,-6.1925,-6.1707,-6.1392,-6.1143,-6.094,-6.0919,-6.1069,-6.1064,-6.1152,-6.1328,-6.1357,-6.1357,-6.1211,-6.0974,-6.0823,-6.0732,-6.0823,-6.0974,-6.1093,-6.1211,-6.1299,-6.1364,-7.2671,-7.2678,-7.2188,-7.1843,-7.1394,-7.0512,-6.9667,-6.8768,-6.8117,-6.757,-6.7048,-6.6854,-6.6812,-6.6812,-6.6812,-6.6812,-6.6812,-6.6812,-6.6812,-6.6854,-6.6938,-6.7014,-6.7097,-6.7146,-6.7304,-6.7346,-6.7387,-6.7346,-6.7229,-6.7304,-6.7387,-6.7387,-6.7503,-6.7783,-6.7892,-6.768,-6.7776,-6.7762,-6.7618,-6.7304,-6.7263,-6.7304,-6.7428,-6.7516,-6.7719,-6.7839,-6.7999,-6.8004,-6.8162,-6.8241,-6.828,-6.8254,-6.7881,-6.733,-6.667,-6.6393,-6.5177,-6.4412,-6.3923,-6.3927,-6.3892,-6.3929,-6.3929,-6.3965,-6.3929,-6.3929,-6.3929,-6.3929,-6.3929,-6.3965,-6.4037,-6.3759,-6.331,-6.2683,-6.2051,-6.173,-6.13,-6.1143,-6.127,-6.1577,-6.1884,-6.1671,-6.153,-6.153,-6.149,-6.145,-6.1756,-6.2249,-6.2493,-6.2626,-6.28,-6.2973,-6.2964,-6.2949,-6.2724,-6.2468,-6.2171,-6.1891,-6.1384,-6.1465,-6.1422,-6.1473,-6.1587,-6.1615,-6.1537,-6.1328,-6.1152,-6.1152,-6.1152,-6.1241,-6.1328,-6.1458,-6.1552,-6.1581,-6.1645,-7.2291,-7.2091,-7.167,-7.1291,-7.0843,-6.9779,-6.9032,-6.8554,-6.783,-6.7387,-6.718,-6.693,-6.6812,-6.6812,-6.6812,-6.6854,-6.693,-6.6896,-6.6938,-6.7022,-6.7146,-6.7263,-6.7304,-6.7428,-6.751,-6.7591,-6.7591,-6.7638,-6.7719,-6.7719,-6.7719,-6.7597,-6.7678,-6.7918,-6.8117,-6.7987,-6.7918,-6.8104,-6.7715,-6.7469,-6.7475,-6.7516,-6.7638,-6.7759,-6.7919,-6.8004,-6.8162,-6.8241,-6.8358,-6.8435,-6.8474,-6.8517,-6.842,-6.7867,-6.7449,-6.7101,-6.6234,-6.5468,-6.4874,-6.4526,-6.4285,-6.4215,-6.4215,-6.4179,-6.4179,-6.4215,-6.4215,-6.4179,-6.4179,-6.4216,-6.4287,-6.4287,-6.3973,-6.3516,-6.3088,-6.2939,-6.2752,-6.2415,-6.2253,-6.2458,-6.2795,-6.3061,-6.2923,-6.2862,-6.2724,-6.2515,-6.2831,-6.3391,-6.3632,-6.3801,-6.4081,-6.4286,-6.3995,-6.3979,-6.3794,-6.3526,-6.3219,-6.2846,-6.2335,-6.2047,-6.2083,-6.1824,-6.1728,-6.17,-6.1788,-6.168,-6.1559,-6.1559,-6.1587,-6.153,-6.1537,-6.1774,-6.1903,-6.2004,-6.2248,-7.1153,-7.0601,-7.1187,-7.067,-6.9532,-6.94,-6.8722,-6.7971,-6.7666,-6.7428,-6.7222,-6.6972,-6.6854,-6.6854,-6.6896,-6.698,-6.718,-6.7139,-6.7263,-6.7353,-6.7469,-6.751,-6.7516,-6.7597,-6.7678,-6.7799,-6.7879,-6.8078,-6.8241,-6.8241,-6.8044,-6.7845,-6.7965,-6.8113,-6.8182,-6.8142,-6.7994,-6.808,-6.7713,-6.7591,-6.7597,-6.7719,-6.7839,-6.7919,-6.8123,-6.8358,-6.8397,-6.8513,-6.8628,-6.8667,-6.8705,-6.8781,-6.8717,-6.8264,-6.7987,-6.778,-6.7296,-6.6703,-6.6317,-6.5299,-6.439,-6.4285,-6.4216,-6.4287,-6.4287,-6.4251,-6.4251,-6.4287,-6.4393,-6.4463,-6.4568,-6.4601,-6.4457,-6.4205,-6.3879,-6.3763,-6.3605,-6.3471,-6.3346,-6.3408,-6.3714,-6.4158,-6.4393,-6.4302,-6.3882,-6.3673,-6.3924,-6.445,-6.487,-6.511,-6.5536,-6.5638,-6.5202,-6.5016,-6.4908,-6.4603,-6.4086,-6.3747,-6.3344,-6.3055,-6.2911,-6.2635,-6.241,-6.2365,-6.2518,-6.2221,-6.2104,-6.2318,-6.2313,-6.186,-6.1824,-6.2449,-6.2903,-6.3148,-6.3494,-7.0482,-6.9739,-7.0015,-6.9808,-6.9256,-6.8773,-6.8354,-6.7994,-6.7759,-6.7557,-6.7387,-6.7304,-6.7229,-6.7229,-6.7229,-6.727,-6.7387,-6.7387,-6.7469,-6.7516,-6.7597,-6.7759,-6.7839,-6.7965,-6.8162,-6.828,-6.8358,-6.8397,-6.8551,-6.859,-6.8551,-6.8435,-6.8435,-6.8435,-6.8435,-6.8319,-6.8241,-6.8123,-6.7999,-6.7879,-6.7919,-6.8078,-6.8162,-6.8201,-6.8397,-6.859,-6.859,-6.8667,-6.8781,-6.893,-6.893,-6.908,-6.9194,-6.8881,-6.8777,-6.8817,-6.8292,-6.8046,-6.7728,-6.6672,-6.5793,-6.5163,-6.4848,-6.4533,-6.4533,-6.4603,-6.4672,-6.4741,-6.4776,-6.4878,-6.5014,-6.5046,-6.4972,-6.482,-6.4667,-6.4547,-6.4496,-6.4429,-6.4552,-6.4685,-6.5069,-6.5484,-6.5682,-6.5779,-6.5251,-6.4831,-6.5118,-6.5472,-6.579,-6.6006,-6.6253,-6.6391,-6.5959,-6.5881,-6.5737,-6.5364,-6.4917,-6.4621,-6.4325,-6.4036,-6.3848,-6.3804,-6.3643,-6.349,-6.3345,-6.3281,-6.3289,-6.3342,-6.3169,-6.2715,-6.2996,-6.3587,-6.3941,-6.4259,-6.4512,-6.9842,-6.9065,-6.8951,-6.8946,-6.8842,-6.8325,-6.8083,-6.8044,-6.7879,-6.7678,-6.7475,-6.7475,-6.7475,-6.7475,-6.7475,-6.7516,-6.7597,-6.7638,-6.7719,-6.7879,-6.8039,-6.8123,-6.828,-6.8397,-6.8513,-6.8705,-6.8705,-6.8705,-6.8816,-6.8854,-6.8854,-6.8857,-6.8895,-6.8857,-6.8667,-6.859,-6.8474,-6.8435,-6.8358,-6.828,-6.828,-6.8397,-6.8474,-6.8513,-6.8705,-6.8816,-6.8854,-6.8895,-6.908,-6.9192,-6.9266,-6.9414,-6.9597,-6.9706,-6.9742,-6.9672,-6.946,-6.9141,-6.8788,-6.794,-6.6884,-6.6004,-6.5581,-6.5194,-6.4982,-6.5014,-6.5048,-6.5082,-6.5216,-6.5349,-6.5415,-6.5447,-6.5542,-6.5454,-6.5439,-6.5319,-6.5488,-6.55,-6.5735,-6.597,-6.6247,-6.6301,-6.6332,-6.6355,-6.6109,-6.5754,-6.5898,-6.6115,-6.6259,-6.6404,-6.6476,-6.6548,-6.647,-6.647,-6.65,-6.6096,-6.5728,-6.5648,-6.5316,-6.4918,-6.4729,-6.4685,-6.4468,-6.407,-6.4033,-6.4323,-6.4331,-6.423,-6.4005,-6.3671,-6.4106,-6.4621,-6.4838,-6.5091,-6.5337,-6.9159,-6.8427,-6.8231,-6.8152,-6.8187,-6.8118,-6.8083,-6.8083,-6.7919,-6.7719,-6.7557,-6.7557,-6.7557,-6.7557,-6.7638,-6.7759,-6.7919,-6.8004,-6.8162,-6.8319,-6.8435,-6.859,-6.8667,-6.8705,-6.8743,-6.8705,-6.8781,-6.893,-6.9078,-6.9043,-6.919,-6.9264,-6.9227,-6.9118,-6.8743,-6.8705,-6.8705,-6.8705,-6.8667,-6.8628,-6.8628,-6.8667,-6.8705,-6.8778,-6.893,-6.9078,-6.9118,-6.9229,-6.9377,-6.9524,-6.9525,-6.967,-6.9884,-6.9885,-6.992,-6.992,-6.992,-6.9814,-6.9743,-6.8398,-6.7478,-6.6632,-6.6209,-6.5819,-6.5426,-6.5282,-6.5316,-6.5349,-6.5382,-6.551,-6.5675,-6.5804,-6.5962,-6.6016,-6.5966,-6.6023,-6.6125,-6.6253,-6.638,-6.6476,-6.6632,-6.6757,-6.6757,-6.6757,-6.672,-6.6648,-6.672,-6.6757,-6.6697,-6.6697,-6.6668,-6.6668,-6.6668,-6.6697,-6.6697,-6.6727,-6.6576,-6.6496,-6.6243,-6.5772,-6.5446,-6.5265,-6.4975,-6.4613,-6.4794,-6.5156,-6.512,-6.5048,-6.4939,-6.4903,-6.5192,-6.5591,-6.5808,-6.5917,-6.6025,-6.8945,-6.8397,-6.8319,-6.8201,-6.8083,-6.8083,-6.8083,-6.8083,-6.8039,-6.7959,-6.7919,-6.7919,-6.7999,-6.8044,-6.8083,-6.8162,-6.8358,-6.8435,-6.859,-6.859,-6.8705,-6.8781,-6.8892,-6.8967,-6.9005,-6.9118,-6.919,-6.919,-6.9302,-6.9264,-6.9302,-6.9376,-6.9376,-6.9339,-6.9155,-6.9043,-6.8967,-6.893,-6.8816,-6.8705,-6.8743,-6.8892,-6.8967,-6.8967,-6.919,-6.9339,-6.9377,-6.9487,-6.9561,-6.9742,-6.9778,-6.9885,-7.0062,-7.0097,-7.0167,-7.0237,-7.0272,-7.0272,-7.0271,-6.9596,-6.8781,-6.772,-6.6732,-6.6201,-6.5457,-6.5415,-6.5513,-6.5643,-6.5672,-6.5863,-6.6052,-6.615,-6.6243,-6.6238,-6.6228,-6.6319,-6.6416,-6.6572,-6.6697,-6.6697,-6.6822,-6.6822,-6.6822,-6.6822,-6.6822,-6.6822,-6.6822,-6.6822,-6.6757,-6.6757,-6.6727,-6.6727,-6.6793,-6.6793,-6.6822,-6.6822,-6.6822,-6.6677,-6.6641,-6.6533,-6.6207,-6.5881,-6.5917,-6.5772,-6.5881,-6.6025,-6.5917,-6.5917,-6.6098,-6.6243,-6.6236,-6.6236,-6.6315,-6.6424,-6.6533,-6.8892,-6.8663,-6.8551,-6.8435,-6.828,-6.8162,-6.8083,-6.8083,-6.8162,-6.8201,-6.8201,-6.828,-6.8358,-6.8474,-6.8513,-6.8551,-6.8705,-6.8816,-6.8819,-6.8854,-6.893,-6.9043,-6.919,-6.919,-6.9264,-6.9376,-6.9376,-6.9376,-6.9376,-6.9376,-6.9376,-6.9376,-6.9376,-6.9376,-6.9339,-6.9264,-6.919,-6.919,-6.9043,-6.9005,-6.9043,-6.908,-6.919,-6.9227,-6.9339,-6.9449,-6.956,-6.9634,-6.9706,-6.992,-7.0026,-7.0097,-7.0237,-7.0306,-7.0341,-7.048,-7.0514,-7.0478,-7.0444,-7.0409,-6.9522,-6.8526,-6.7502,-6.6721,-6.6008,-6.5886,-6.5836,-6.5927,-6.6052,-6.6177,-6.63,-6.6397,-6.6427,-6.6421,-6.6518,-6.6608,-6.6638,-6.6757,-6.6793,-6.6822,-6.6822,-6.6822,-6.6822,-6.6822,-6.6822,-6.6822,-6.6822,-6.6822,-6.6822,-6.6822,-6.6822,-6.6822,-6.6822,-6.6822,-6.6822,-6.6822,-6.6822,-6.6822,-6.6822,-6.6822,-6.675,-6.6424,-6.6677,-6.6822,-6.6569,-6.6489,-6.6671,-6.6779,-6.6693,-6.6693,-6.6722,-6.6765,-6.6822,-6.6822,-6.6822,-6.9115,-6.9078,-6.8781,-6.8705,-6.8628,-6.8319,-6.8123,-6.8162,-6.8319,-6.8397,-6.8435,-6.859,-6.8667,-6.8705,-6.8705,-6.8743,-6.8819,-6.904,-6.9078,-6.9153,-6.9227,-6.9339,-6.9339,-6.9376,-6.9376,-6.9376,-6.9376,-6.9376,-6.9376,-6.9376,-6.9376,-6.9376,-6.9376,-6.9376,-6.9376,-6.9376,-6.9339,-6.9302,-6.9302,-6.9264,-6.9264,-6.9339,-6.9339,-6.9376,-6.9412,-6.9524,-6.9598,-6.9706,-6.9885,-7.0062,-7.0202,-7.0306,-7.0445,-7.0514,-7.0514,-7.0514,-7.0514,-7.0514,-7.0548,-7.0548,-7.0364,-6.9506,-6.8722,-6.7933,-6.7103,-6.6384,-6.6124,-6.6177,-6.6269,-6.6361,-6.6482,-6.6512,-6.6578,-6.6638,-6.6727,-6.6793,-6.6793,-6.6822,-6.6822,-6.6822,-6.6822,-6.6822,-6.6822,-6.6822,-6.6822,-6.6822,-6.6822,-6.6822,-6.6822,-6.6822,-6.6822,-6.6822,-6.6822,-6.6822,-6.6822,-6.6822,-6.6822,-6.6822,-6.6822,-6.6822,-6.6822,-6.6822,-6.6815,-6.6815,-6.6815,-6.6845,-6.6932,-6.699,-6.6983,-6.7019,-6.6983,-6.6961,-6.6903,-6.6822,-6.6822,-6.9303,-6.9115,-6.904,-6.8892,-6.8705,-6.859,-6.8513,-6.8551,-6.859,-6.8628,-6.8628,-6.8667,-6.8819,-6.9002,-6.8967,-6.9043,-6.9155,-6.9264,-6.9302,-6.9339,-6.9339,-6.9376,-6.9376,-6.9376,-6.9376,-6.9376,-6.9376,-6.9376,-6.9376,-6.9376,-6.9376,-6.9376,-6.9376,-6.9376,-6.9412,-6.9376,-6.9412,-6.9412,-6.9412,-6.9376,-6.9376,-6.9376,-6.9412,-6.9412,-6.9487,-6.9633,-6.9813,-6.992,-7.0132,-7.0306,-7.0375,-7.048,-7.048,-7.0514,-7.0514,-7.0514,-7.0514,-7.0548,-7.0684,-7.0718,-7.0642,-7.0414,-6.9699,-6.8618,-6.768,-6.6849,-6.6444,-6.6427,-6.6488,-6.6548,-6.671,-6.6776,-6.6842,-6.6944,-6.7112,-6.7257,-6.7257,-6.7257,-6.7221,-6.704,-6.704,-6.6895,-6.6895,-6.6822,-6.6822,-6.6822,-6.6822,-6.6822,-6.6822,-6.6822,-6.6822,-6.6822,-6.6822,-6.6822,-6.6822,-6.6822,-6.6822,-6.6822,-6.6822,-6.6822,-6.6852,-6.6852,-6.6845,-6.6903,-6.6961,-6.7011,-6.7097,-6.7126,-6.719,-6.7154,-6.7126,-6.704,-6.6954,-6.6932,-6.6845,-6.9451,-6.9227,-6.9227,-6.9118,-6.9005,-6.9005,-6.9005,-6.8967,-6.8892,-6.8854,-6.8892,-6.8967,-6.908,-6.919,-6.9227,-6.9264,-6.9376,-6.9376,-6.9376,-6.9376,-6.9376,-6.9376,-6.9376,-6.9376,-6.9376,-6.9376,-6.9376,-6.9376,-6.9376,-6.9376,-6.9376,-6.9376,-6.9376,-6.9449,-6.9451,-6.9487,-6.9559,-6.9524,-6.9522,-6.9412,-6.9412,-6.9412,-6.9449,-6.9487,-6.9597,-6.9777,-6.9991,-7.0167,-7.0272,-7.048,-7.0514,-7.0514,-7.0514,-7.0514,-7.0582,-7.0582,-7.065,-7.0718,-7.0817,-7.085,-7.0949,-7.0901,-7.039,-6.9413,-6.8404,-6.7569,-6.7053,-6.6716,-6.6674,-6.6668,-6.6872,-6.7076,-6.7184,-6.7329,-6.7547,-6.78,-6.78,-6.78,-6.7619,-6.7402,-6.7257,-6.7112,-6.7003,-6.6895,-6.6822,-6.6822,-6.6822,-6.6822,-6.6822,-6.6822,-6.6822,-6.6822,-6.6822,-6.6822,-6.6822,-6.6822,-6.6822,-6.6822,-6.6822,-6.6822,-6.6881,-6.6903,-6.6961,-6.7076,-6.7126,-6.7182,-6.721,-6.7266,-6.7331,-6.7294,-6.7294,-6.7266,-6.7219,-6.7097,-6.7048,-6.9524,-6.9376,-6.9376,-6.9376,-6.9376,-6.9376,-6.9376,-6.9376,-6.919,-6.9115,-6.9153,-6.9302,-6.9339,-6.9339,-6.9339,-6.9339,-6.9376,-6.9376,-6.9376,-6.9376,-6.9376,-6.9376,-6.9376,-6.9376,-6.9376,-6.9376,-6.9376,-6.9376,-6.9376,-6.9376,-6.9376,-6.9376,-6.9376,-6.9449,-6.956,-6.9597,-6.9633,-6.9741,-6.9633,-6.9522,-6.9522,-6.9486,-6.9522,-6.9598,-6.9706,-6.9813,-7.0097,-7.0237,-7.0342,-7.0445,-7.0514,-7.0514,-7.0514,-7.0548,-7.065,-7.0718,-7.0785,-7.0883,-7.0982,-7.1048,-7.1146,-7.1027,-7.0622,-6.9999,-6.9204,-6.8083,-6.7427,-6.6987,-6.6872,-6.7089,-6.73,-6.7764,-6.8054,-6.8186,-6.8397,-6.8572,-6.8668,-6.8608,-6.844,-6.812,-6.7764,-6.7583,-6.7257,-6.7148,-6.6822,-6.6822,-6.6822,-6.6822,-6.6822,-6.6822,-6.6822,-6.6822,-6.6822,-6.6822,-6.6822,-6.6822,-6.6852,-6.6852,-6.6815,-6.6903,-6.699,-6.7076,-6.7105,-6.7182,-6.7294,-6.7294,-6.7322,-6.7442,-6.7497,-6.7497,-6.7497,-6.7497,-6.7442,-6.7294,-6.7182,-6.9669,-6.9412,-6.9376,-6.9376,-6.9376,-6.9376,-6.9376,-6.9376,-6.9339,-6.9266,-6.9339,-6.9376,-6.9376,-6.9376,-6.9376,-6.9376,-6.9376,-6.9376,-6.9376,-6.9376,-6.9376,-6.9376,-6.9376,-6.9376,-6.9376,-6.9376,-6.9376,-6.9376,-6.9376,-6.9376,-6.9376,-6.9376,-6.9412,-6.9486,-6.9598,-6.9634,-6.9741,-6.9956,-6.9884,-6.9777,-6.9777,-6.9777,-6.9778,-6.9849,-6.9956,-7.0062,-7.0237,-7.0341,-7.041,-7.0514,-7.0514,-7.0514,-7.0514,-7.065,-7.0718,-7.0785,-7.0883,-7.1048,-7.1179,-7.1243,-7.1308,-7.1368,-7.1142,-7.0739,-6.9942,-6.8681,-6.7813,-6.7408,-6.7293,-6.7547,-6.7909,-6.8482,-6.8947,-6.9116,-6.9322,-6.9484,-6.958,-6.9454,-6.9328,-6.8869,-6.841,-6.8054,-6.7728,-6.7329,-6.6931,-6.6822,-6.6822,-6.6822,-6.6822,-6.6822,-6.6815,-6.6815,-6.6822,-6.6822,-6.6822,-6.6881,-6.6874,-6.6932,-6.6961,-6.7011,-6.7126,-6.7238,-6.7359,-6.7414,-6.7497,-6.7497,-6.7488,-6.7606,-6.7633,-6.7606,-6.7606,-6.7606,-6.7606,-6.7552,-6.7378,-6.9633,-6.9412,-6.9376,-6.9165,-6.8884,-6.8849,-6.8673,-6.8357,-6.8322,-6.8533,-6.8919,-6.92,-6.9376,-6.9376,-6.9376,-6.9376,-6.9376,-6.9376,-6.9376,-6.9376,-6.9376,-6.9376,-6.9376,-6.9376,-6.9376,-6.9376,-6.9376,-6.9376,-6.9376,-6.9376,-6.9376,-6.9376,-6.9412,-6.9522,-6.967,-6.9742,-6.9884,-7.0167,-7.0132,-7.0132,-7.0097,-6.9991,-6.9991,-7.0062,-7.0132,-7.0237,-7.0341,-7.0444,-7.048,-7.0514,-7.0514,-7.0582,-7.0616,-7.0754,-7.0852,-7.1018,-7.1114,-7.1211,-7.134,-7.1404,-7.1399,-7.1463,-7.1494,-7.1024,-7.0444,-6.9327,-6.8929,-6.8561,-6.8307,-6.8525,-6.8802,-6.9274,-6.9697,-6.9969,-7.0459,-7.0841,-7.0907,-7.0841,-7.0489,-6.9986,-6.9563,-6.9219,-6.8754,-6.7902,-6.7576,-6.7329,-6.7257,-6.6997,-6.6931,-6.7171,-6.7099,-6.7055,-6.72,-6.7019,-6.6903,-6.6932,-6.6961,-6.7048,-6.7097,-6.7182,-6.7294,-6.747,-6.7579,-6.7606,-6.7606,-6.7633,-6.7687,-6.7687,-6.7687,-6.766,-6.7687,-6.7687,-6.7687,-6.7687,-6.7542,-6.9172,-6.9131,-6.906,-6.8673,-6.8112,-6.8076,-6.769,-6.7129,-6.7023,-6.7409,-6.8074,-6.8812,-6.9235,-6.9376,-6.9376,-6.9376,-6.9376,-6.9376,-6.9376,-6.9376,-6.9376,-6.9376,-6.9376,-6.9376,-6.9376,-6.9376,-6.9376,-6.9376,-6.9376,-6.9376,-6.9376,-6.9376,-6.9449,-6.9559,-6.9777,-6.992,-6.9991,-7.0272,-7.0341,-7.0445,-7.0341,-7.0167,-7.0167,-7.0202,-7.0237,-7.0341,-7.048,-7.0514,-7.0514,-7.0548,-7.0548,-7.065,-7.0752,-7.0852,-7.1051,-7.1215,-7.1276,-7.1372,-7.1467,-7.1499,-7.1463,-7.1494,-7.1494,-7.1241,-7.0661,-7.0366,-6.9968,-6.9817,-6.96,-6.9455,-6.9703,-7.009,-7.0478,-7.0883,-7.1484,-7.1938,-7.1938,-7.1908,-7.147,-7.093,-7.0549,-7.0175,-6.9606,-6.8754,-6.8325,-6.8041,-6.7758,-6.7395,-6.7345,-6.7796,-6.8037,-6.7964,-6.8,-6.771,-6.7193,-6.7186,-6.7251,-6.719,-6.7303,-6.7387,-6.747,-6.7579,-6.766,-6.766,-6.7687,-6.7687,-6.7687,-6.7687,-6.7687,-6.7687,-6.7687,-6.7687,-6.7687,-6.7687,-6.7687,-6.7623,-6.7445,-6.748,-6.7374,-6.7234,-6.7234,-6.7129,-6.7023,-6.6953,-6.7057,-6.7228,-6.7858,-6.8562,-6.9376,-6.9376,-6.9376,-6.9302,-6.9302,-6.9376,-6.9376,-6.9302,-6.9339,-6.9376,-6.9376,-6.9376,-6.9376,-6.9376,-6.9376,-6.9376,-6.9376,-6.9376,-6.9376,-6.9376,-6.9522,-6.9634,-6.9813,-7.0026,-7.0272,-7.041,-7.0514,-7.0514,-7.0375,-7.0445,-7.0445,-7.0445,-7.048,-7.0514,-7.0514,-7.0514,-7.0548,-7.065,-7.0718,-7.0886,-7.1051,-7.1215,-7.1276,-7.1404,-7.1467,-7.1494,-7.1494,-7.1494,-7.1494,-7.1494,-7.1458,-7.1132,-7.1164,-7.0977,-7.0998,-7.0743,-7.038,-7.0556,-7.1053,-7.1508,-7.1749,-7.2189,-7.2226,-7.2226,-7.2197,-7.1984,-7.153,-7.1149,-7.09,-7.0615,-6.99,-6.9295,-6.9084,-6.8968,-6.8611,-6.848,-6.8713,-6.891,-6.8874,-6.8801,-6.8138,-6.7482,-6.7547,-6.7575,-6.7505,-6.7442,-6.7497,-6.7579,-6.7633,-6.7687,-6.7687,-6.7687,-6.7687,-6.7687,-6.7687,-6.7687,-6.7687,-6.7687,-6.7687,-6.7687,-6.7687,-6.7687]},{"header":{"parameterUnit":"m.s-1","parameterCategory":1,"la1":31.0,"la2":29.5877,"lo1":-88.7671,"lo2":-86.6584,"dy":0.0162,"dx":0.0185,"nx":115,"ny":88,"refTime":"2023-06-12T12:00:00:Z","depth":0,"parameterNumber":3,"parameterNumberName":"V-component_of_WINDS"},"data":[0.0,0.0,0.0,0.0,0.0,0.0,0.0,0.0,0.0,0.0,0.0,0.0,0.0,0.0,0.0,0.0,0.0,0.0,0.0,0.0,0.0,0.0,0.0,0.0,0.0,0.0,0.0,0.0,0.0,0.0,0.0,0.0,0.0,0.0,0.0,0.0,0.0,0.0,0.0,0.0,0.0,0.0,0.0,0.0,0.0,0.0,0.0,0.0,0.0,0.0,0.0,0.0,0.0,0.0,0.0,0.0,0.0,0.0,0.0,0.0,0.0,0.0,0.0,0.0,0.0,0.0,0.0,0.0,0.0,0.0,0.0,0.0,0.0,0.0,0.0,0.0,0.0,0.0,0.0,0.0,0.0,0.0,0.0,0.0,0.0,0.0,0.0,0.0,0.0,0.0,0.0,0.0,0.0,0.0,0.0,0.0,0.0,0.0,0.0,0.0,0.0,0.0,0.0,0.0,0.0,0.0,0.0,0.0,0.0,0.0,0.0,0.0,0.0,0.0,0.0,0.0,0.0,0.0,0.0,0.0,0.0,0.0,0.0,0.0,0.0,0.0,0.0,0.0,0.0,0.0,0.0,0.0,0.0,0.0,0.0,0.0,0.0,0.0,0.0,0.0,0.0,0.0,0.0,0.0,0.0,0.0,0.0,0.0,0.0,0.0,0.0,0.0,0.0,0.0,0.0,0.0,0.0,0.0,0.0,0.0,0.0,0.0,0.0,0.0,0.0,0.0,0.0,0.0,0.0,0.0,0.0,0.0,0.0,0.0,0.0,0.0,0.0,0.0,0.0,0.0,0.0,0.0,0.0,0.0,0.0,0.0,0.0,0.0,0.0,0.0,0.0,0.0,0.0,0.0,0.0,0.0,0.0,0.0,0.0,0.0,0.0,0.0,0.0,0.0,0.0,0.0,0.0,0.0,0.0,0.0,0.0,0.0,0.0,0.0,0.0,0.0,0.0,0.0,0.0,0.0,0.0,0.0,0.0,0.0,0.0,0.0,0.0,0.0,0.0,0.0,0.0,0.0,0.0,0.0,0.0,0.0,0.0,0.0,0.0,0.0,0.0,0.0,0.0,0.0,0.0,0.0,0.0,0.0,0.0,0.0,0.0,0.0,0.0,0.0,0.0,0.0,0.0,0.0,0.0,0.0,0.0,0.0,0.0,0.0,0.0,0.0,0.0,0.0,0.0,0.0,0.0,0.0,0.0,0.0,0.0,0.0,0.0,0.0,0.0,0.0,0.0,0.0,0.0,0.0,0.0,0.0,0.0,0.0,0.0,0.0,0.0,0.0,0.0,0.0,0.0,0.0,0.0,0.0,0.0,0.0,0.0,0.0,0.0,0.0,0.0,0.0,0.0,0.0,0.0,0.0,0.0,0.0,0.0,0.0,0.0,0.0,0.0,0.0,0.0,0.0,0.0,0.0,0.0,0.0,0.0,0.0,0.0,0.0,0.0,0.0,0.0,0.0,0.0,0.0,0.0,0.0,0.0,0.0,0.0,0.0,0.0,0.0,0.0,0.0,0.0,0.0,0.0,0.0,0.0,0.0,0.0,0.0,0.0,0.0,0.0,0.0,0.0,0.0,0.0,0.0,0.0,0.0,0.0,0.0,0.0,0.0,0.0,0.0,0.0,0.0,0.0,0.0,0.0,0.0,0.0,0.0,0.0,0.0,0.0,0.0,0.0,0.0,0.0,0.0,0.0,0.0,0.0,0.0,0.0,0.0,0.0,0.0,0.0,0.0,0.0,0.0,0.0,0.0,0.0,0.0,0.0,0.0,0.0,0.0,0.0,0.0,0.0,0.0,0.0,0.0,0.0,0.0,0.0,0.0,0.0,0.0,0.0,0.0,0.0,0.0,0.0,0.0,0.0,0.0,0.0,0.0,0.0,0.0,0.0,0.0,0.0,0.0,0.0,0.0,0.0,0.0,0.0,0.0,0.0,0.0,0.0,0.0,0.0,0.0,0.0,0.0,0.0,0.0,0.0,0.0,0.0,0.0,0.0,0.0,0.0,0.0,0.0,0.0,0.0,0.0,0.0,0.0,0.0,0.0,0.0,0.0,0.0,0.0,0.0,0.0,0.0,0.0,0.0,0.0,0.0,0.0,0.0,0.0,0.0,0.0,0.0,0.0,0.0,0.0,0.0,0.0,0.0,0.0,0.0,0.0,0.0,0.0,0.0,0.0,0.0,0.0,0.0,0.0,0.0,0.0,0.0,0.0,0.0,0.0,0.0,0.0,0.0,0.0,0.0,0.0,0.0,0.0,0.0,0.0,0.0,0.0,0.0,0.0,0.0,0.0,0.0,0.0,0.0,0.0,0.0,0.0,0.0,0.0,0.0,0.0,0.0,0.0,0.0,0.0,0.0,0.0,0.0,0.0,0.0,0.0,0.0,0.0,0.0,0.0,0.0,0.0,0.0,0.0,0.0,0.0,0.0,0.0,0.0,0.0,0.0,0.0,0.0,0.0,0.0,0.0,0.0,0.0,0.0,0.0,0.0,0.0,0.0,0.0,0.0,0.0,0.0,0.0,0.0,0.0,0.0,0.0,0.0,0.0,0.0,0.0,0.0,0.0,0.0,0.0,0.0,0.0,0.0,0.0,0.0,0.0,0.0,0.0,0.0,0.0,0.0,0.0,0.0,0.0,0.0,0.0,0.0,0.0,0.0,0.0,0.0,0.0,0.0,0.0,0.0,0.0,0.0,0.0,0.0,0.0,0.0,0.0,0.0,0.0,0.0,0.0,0.0,0.0,0.0,0.0,0.0,0.0,0.0,0.0,0.0,0.0,0.0,0.0,0.0,0.0,0.0,0.0,0.0,0.0,0.0,0.0,0.0,0.0,0.0,0.0,0.0,0.0,0.0,0.0,0.0,0.0,0.0,0.0,0.0,0.0,0.0,0.0,0.0,0.0,0.0,0.0,0.0,0.0,0.0,0.0,0.0,0.0,0.0,0.0,0.0,0.0,0.0,0.0,0.0,0.0,0.0,0.0,0.0,0.0,0.0,0.0,0.0,0.0,0.0,0.0,0.0,0.0,0.0,0.0,0.0,0.0,0.0,0.0,0.0,0.0,0.0,0.0,0.0,0.0,0.0,0.0,0.0,0.0,0.0,0.0,0.0,0.0,0.0,0.0,0.0,0.0,0.0,0.0,0.0,0.0,0.0,0.0,0.0,0.0,0.0,0.0,0.0,0.0,0.0,0.0,0.0,0.0,0.0,0.0,0.0,0.0,0.0,0.0,0.0,0.0,0.0,0.0,0.0,0.0,0.0,0.0,0.0,0.0,0.0,0.0,0.0,0.0,0.0,0.0,0.0,0.0,0.0,0.0,0.0,0.0,0.0,0.0,0.0,0.0,0.0,0.0,0.0,0.0,0.0,0.0,0.0,0.0,0.0,0.0,0.0,0.0,0.0,0.0,0.0,0.0,0.0,0.0,0.0,0.0,0.0,0.0,0.0,0.0,0.0,0.0,0.0,0.0,0.0,0.0,0.0,0.0,0.0,0.0,0.0,0.0,0.0,0.0,0.0,0.0,0.0,0.0,0.0,0.0,0.0,0.0,0.0,0.0,0.0,0.0,0.0,0.0,0.0,0.0,0.0,0.0,0.0,0.0,0.0,0.0,0.0,0.0,0.0,0.0,0.0,0.0,0.0,0.0,0.0,0.0,0.0,0.0,0.0,0.0,0.0,0.0,0.0,0.0,0.0,0.0,0.0,0.0,0.0,0.0,0.0,0.0,0.0,0.0,0.0,0.0,0.0,0.0,0.0,0.0,0.0,0.0,0.0,0.0,0.0,0.0,0.0,0.0,0.0,0.0,0.0,0.0,0.0,0.0,0.0,0.0,0.0,0.0,0.0,0.0,0.0,0.0,0.0,0.0,0.0,0.0,0.0,0.0,0.0,0.0,0.0,0.0,0.0,0.0,0.0,0.0,0.0,0.0,0.0,0.0,0.0,0.0,0.0,0.0,0.0,0.0,0.0,0.0,0.0,0.0,0.0,0.0,0.0,0.0,0.0,0.0,0.0,0.0,0.0,0.0,0.0,0.0,0.0,0.0,0.0,0.0,0.0,0.0,0.0,0.0,0.0,0.0,0.0,0.0,0.0,0.0,0.0,0.0,0.0,0.0,0.0,0.0,0.0,0.0,0.0,0.0,0.0,0.0,0.0,0.0,0.0,0.0,0.0,0.0,0.0,0.0,0.0,0.0,0.0,0.0,0.0,0.0,0.0,0.0,0.0,0.0,0.0,0.0,0.0,0.0,0.0,0.0,0.0,0.0,-1.8313,0.0,0.0,0.0,0.0,0.0,0.0,0.0,0.0,0.0,0.0,0.0,0.0,0.0,0.0,0.0,0.0,0.0,0.0,0.0,0.0,0.0,0.0,0.0,0.0,0.0,0.0,0.0,0.0,0.0,0.0,0.0,0.0,0.0,0.0,0.0,0.0,0.0,0.0,0.0,0.0,0.0,0.0,0.0,0.0,0.0,0.0,0.0,0.0,0.0,0.0,0.0,0.0,0.0,0.0,0.0,0.0,0.0,0.0,0.0,0.0,0.0,0.0,0.0,0.0,0.0,0.0,0.0,0.0,0.0,0.0,0.0,0.0,0.0,0.0,0.0,0.0,0.0,0.0,0.0,0.0,0.0,0.0,0.0,0.0,0.0,0.0,0.0,0.0,0.0,0.0,0.0,0.0,0.0,0.0,0.0,0.0,0.0,0.0,0.0,0.0,0.0,0.0,0.0,0.0,0.0,0.0,0.0,0.0,0.0,0.0,-1.9487,-1.947,-1.9024,-1.8752,-1.8684,0.0,0.0,0.0,0.0,0.0,0.0,0.0,0.0,0.0,0.0,0.0,0.0,0.0,0.0,0.0,0.0,0.0,0.0,0.0,0.0,0.0,0.0,0.0,0.0,0.0,0.0,0.0,0.0,0.0,0.0,0.0,0.0,0.0,0.0,0.0,0.0,0.0,0.0,0.0,0.0,0.0,0.0,0.0,0.0,0.0,0.0,0.0,0.0,0.0,0.0,0.0,0.0,0.0,0.0,0.0,0.0,0.0,0.0,0.0,0.0,0.0,0.0,0.0,0.0,0.0,0.0,0.0,0.0,0.0,0.0,0.0,0.0,0.0,0.0,0.0,0.0,0.0,0.0,0.0,0.0,0.0,0.0,0.0,0.0,0.0,0.0,0.0,0.0,0.0,0.0,0.0,0.0,0.0,0.0,0.0,0.0,0.0,0.0,0.0,0.0,0.0,0.0,0.0,0.0,0.0,0.0,0.0,0.0,0.0,0.0,0.0,0.0,-1.9627,-1.9354,-1.907,0.0,0.0,0.0,0.0,0.0,0.0,0.0,0.0,0.0,0.0,0.0,0.0,0.0,0.0,0.0,0.0,0.0,0.0,0.0,0.0,0.0,0.0,0.0,0.0,0.0,0.0,0.0,0.0,0.0,0.0,0.0,0.0,0.0,0.0,0.0,0.0,0.0,0.0,0.0,0.0,0.0,0.0,0.0,0.0,0.0,0.0,0.0,0.0,0.0,0.0,0.0,0.0,0.0,0.0,0.0,0.0,0.0,0.0,0.0,0.0,0.0,0.0,0.0,0.0,0.0,0.0,0.0,0.0,0.0,0.0,0.0,0.0,0.0,0.0,0.0,0.0,0.0,0.0,0.0,0.0,0.0,0.0,0.0,0.0,0.0,0.0,0.0,0.0,0.0,0.0,0.0,0.0,0.0,0.0,0.0,0.0,0.0,0.0,0.0,0.0,0.0,0.0,0.0,0.0,0.0,0.0,0.0,0.0,0.0,0.0,-1.9788,-2.0052,-1.9713,0.0,-1.9524,0.0,0.0,0.0,0.0,0.0,0.0,0.0,0.0,0.0,0.0,0.0,0.0,0.0,0.0,0.0,0.0,0.0,0.0,0.0,0.0,0.0,0.0,0.0,0.0,0.0,0.0,0.0,0.0,0.0,0.0,0.0,0.0,0.0,0.0,0.0,0.0,0.0,0.0,0.0,0.0,0.0,0.0,0.0,0.0,0.0,0.0,0.0,0.0,0.0,0.0,0.0,0.0,0.0,0.0,0.0,0.0,0.0,0.0,0.0,0.0,0.0,0.0,0.0,0.0,0.0,0.0,0.0,0.0,0.0,0.0,0.0,0.0,0.0,0.0,0.0,0.0,0.0,0.0,0.0,0.0,0.0,0.0,0.0,0.0,0.0,0.0,0.0,0.0,0.0,0.0,0.0,0.0,0.0,0.0,0.0,0.0,0.0,0.0,0.0,0.0,0.0,0.0,0.0,0.0,0.0,0.0,0.0,0.0,0.0,0.0,-2.0338,-2.0472,-2.035,-2.0325,0.0,0.0,0.0,0.0,0.0,0.0,0.0,0.0,0.0,0.0,0.0,0.0,0.0,0.0,0.0,0.0,0.0,0.0,0.0,0.0,0.0,0.0,0.0,0.0,0.0,0.0,0.0,0.0,0.0,0.0,0.0,0.0,0.0,0.0,0.0,0.0,0.0,0.0,0.0,0.0,0.0,0.0,0.0,0.0,0.0,0.0,0.0,0.0,0.0,0.0,0.0,0.0,0.0,0.0,0.0,0.0,0.0,0.0,0.0,0.0,0.0,0.0,0.0,0.0,0.0,0.0,0.0,0.0,0.0,0.0,0.0,0.0,0.0,0.0,0.0,0.0,0.0,0.0,0.0,0.0,0.0,0.0,0.0,0.0,0.0,0.0,0.0,0.0,0.0,0.0,0.0,0.0,0.0,0.0,0.0,0.0,0.0,0.0,0.0,0.0,0.0,0.0,0.0,0.0,0.0,0.0,0.0,0.0,0.0,0.0,-2.0699,-2.0835,-2.0862,-2.1015,-2.1062,-2.1065,0.0,0.0,0.0,0.0,0.0,0.0,0.0,0.0,0.0,0.0,0.0,0.0,0.0,0.0,0.0,0.0,0.0,0.0,0.0,0.0,0.0,0.0,0.0,0.0,0.0,0.0,0.0,0.0,0.0,0.0,0.0,0.0,0.0,0.0,0.0,0.0,0.0,0.0,0.0,0.0,0.0,0.0,0.0,0.0,0.0,0.0,0.0,0.0,0.0,0.0,0.0,0.0,0.0,0.0,0.0,0.0,0.0,0.0,0.0,0.0,0.0,0.0,0.0,0.0,0.0,0.0,0.0,0.0,0.0,0.0,0.0,0.0,0.0,0.0,0.0,0.0,0.0,0.0,0.0,0.0,0.0,0.0,0.0,0.0,0.0,0.0,0.0,0.0,0.0,0.0,0.0,0.0,0.0,0.0,0.0,0.0,0.0,0.0,0.0,0.0,0.0,0.0,0.0,0.0,0.0,0.0,0.0,0.0,-2.0952,-2.0997,-2.1105,-2.1347,-2.1535,-2.1467,0.0,0.0,0.0,0.0,0.0,0.0,0.0,0.0,0.0,0.0,0.0,0.0,0.0,0.0,0.0,0.0,0.0,0.0,0.0,0.0,0.0,0.0,0.0,0.0,0.0,0.0,0.0,0.0,0.0,0.0,0.0,0.0,0.0,0.0,0.0,0.0,0.0,0.0,0.0,0.0,0.0,0.0,0.0,0.0,0.0,0.0,0.0,0.0,0.0,0.0,0.0,0.0,0.0,0.0,0.0,0.0,0.0,0.0,0.0,0.0,0.0,0.0,0.0,0.0,0.0,0.0,0.0,0.0,0.0,0.0,0.0,0.0,0.0,0.0,0.0,0.0,0.0,0.0,0.0,0.0,0.0,0.0,0.0,0.0,0.0,0.0,0.0,0.0,0.0,0.0,0.0,0.0,0.0,0.0,0.0,0.0,0.0,0.0,0.0,0.0,0.0,0.0,0.0,0.0,0.0,0.0,0.0,0.0,0.0,-2.1042,-2.1195,-2.1392,-2.1571,-2.1642,-2.1614,0.0,0.0,0.0,0.0,0.0,0.0,0.0,0.0,0.0,0.0,0.0,0.0,0.0,0.0,0.0,0.0,0.0,0.0,0.0,0.0,0.0,0.0,0.0,0.0,0.0,0.0,0.0,0.0,0.0,0.0,0.0,0.0,0.0,0.0,0.0,0.0,0.0,0.0,0.0,0.0,0.0,0.0,0.0,0.0,0.0,0.0,0.0,0.0,0.0,0.0,0.0,0.0,0.0,0.0,0.0,0.0,0.0,0.0,0.0,0.0,0.0,0.0,0.0,0.0,0.0,0.0,0.0,0.0,0.0,0.0,0.0,0.0,0.0,0.0,0.0,0.0,0.0,0.0,0.0,0.0,0.0,0.0,0.0,0.0,0.0,0.0,0.0,0.0,0.0,0.0,0.0,0.0,0.0,0.0,0.0,0.0,0.0,0.0,0.0,0.0,0.0,0.0,0.0,0.0,0.0,0.0,0.0,0.0,0.0,-2.1401,0.0,-2.1753,-2.1888,-2.1888,-2.1833,0.0,0.0,0.0,0.0,0.0,0.0,0.0,0.0,0.0,0.0,0.0,0.0,0.0,0.0,0.0,0.0,0.0,0.0,0.0,0.0,0.0,0.0,0.0,0.0,0.0,0.0,0.0,0.0,0.0,0.0,0.0,0.0,0.0,0.0,0.0,0.0,0.0,0.0,0.0,0.0,0.0,0.0,0.0,0.0,0.0,0.0,0.0,0.0,0.0,0.0,0.0,0.0,0.0,0.0,0.0,0.0,0.0,0.0,0.0,0.0,0.0,0.0,0.0,0.0,0.0,0.0,0.0,0.0,0.0,0.0,0.0,0.0,0.0,0.0,0.0,0.0,0.0,0.0,0.0,0.0,0.0,0.0,0.0,0.0,0.0,0.0,0.0,0.0,0.0,0.0,0.0,0.0,0.0,0.0,0.0,0.0,0.0,0.0,0.0,0.0,0.0,0.0,0.0,0.0,0.0,0.0,0.0,0.0,-2.1888,-2.2254,-2.2272,-2.2291,-2.2291,-2.2291,-2.2108,0.0,0.0,0.0,0.0,0.0,0.0,0.0,0.0,0.0,0.0,0.0,0.0,0.0,0.0,0.0,0.0,0.0,0.0,0.0,0.0,0.0,0.0,0.0,0.0,0.0,0.0,0.0,0.0,0.0,0.0,0.0,0.0,0.0,0.0,0.0,0.0,0.0,0.0,0.0,0.0,0.0,0.0,0.0,0.0,0.0,0.0,0.0,0.0,0.0,0.0,0.0,0.0,0.0,0.0,0.0,0.0,0.0,0.0,0.0,0.0,0.0,0.0,0.0,0.0,0.0,0.0,0.0,0.0,0.0,0.0,0.0,0.0,0.0,0.0,0.0,0.0,0.0,0.0,0.0,0.0,0.0,0.0,0.0,0.0,0.0,0.0,0.0,0.0,0.0,0.0,0.0,0.0,0.0,0.0,0.0,0.0,0.0,0.0,0.0,0.0,0.0,0.0,0.0,0.0,0.0,0.0,0.0,0.0,0.0,-2.2318,-2.2565,-2.2712,-2.2712,-2.2712,-2.251,0.0,0.0,0.0,0.0,0.0,0.0,0.0,0.0,0.0,0.0,0.0,0.0,0.0,0.0,0.0,0.0,0.0,0.0,0.0,0.0,0.0,0.0,0.0,0.0,0.0,0.0,0.0,0.0,0.0,0.0,0.0,0.0,0.0,0.0,0.0,0.0,0.0,0.0,0.0,0.0,0.0,0.0,0.0,0.0,0.0,0.0,0.0,0.0,0.0,0.0,0.0,0.0,0.0,0.0,0.0,0.0,0.0,0.0,0.0,0.0,0.0,0.0,0.0,0.0,0.0,0.0,0.0,0.0,0.0,0.0,0.0,0.0,0.0,0.0,0.0,0.0,0.0,0.0,0.0,0.0,0.0,0.0,0.0,0.0,0.0,0.0,0.0,0.0,0.0,0.0,0.0,0.0,0.0,0.0,0.0,0.0,0.0,0.0,0.0,0.0,0.0,0.0,0.0,0.0,0.0,0.0,0.0,0.0,0.0,-2.3015,-2.3272,-2.34,-2.3352,-2.3352,-2.3096,-2.2529,0.0,0.0,0.0,0.0,0.0,0.0,0.0,0.0,0.0,0.0,0.0,0.0,0.0,0.0,0.0,0.0,0.0,0.0,0.0,0.0,0.0,0.0,0.0,0.0,0.0,0.0,0.0,0.0,0.0,0.0,0.0,0.0,0.0,0.0,0.0,0.0,0.0,0.0,0.0,0.0,0.0,0.0,0.0,0.0,0.0,0.0,0.0,0.0,0.0,0.0,0.0,0.0,0.0,0.0,0.0,0.0,0.0,0.0,0.0,0.0,0.0,0.0,0.0,0.0,0.0,0.0,0.0,0.0,0.0,0.0,0.0,0.0,0.0,0.0,0.0,0.0,0.0,0.0,0.0,0.0,0.0,0.0,0.0,0.0,0.0,0.0,0.0,0.0,0.0,0.0,0.0,0.0,0.0,0.0,0.0,0.0,0.0,0.0,0.0,0.0,0.0,0.0,0.0,0.0,0.0,0.0,0.0,0.0,-2.433,-2.433,-2.4312,-2.4275,-2.4275,-2.384,0.0,0.0,0.0,0.0,0.0,0.0,0.0,0.0,0.0,0.0,0.0,0.0,0.0,0.0,0.0,0.0,0.0,0.0,0.0,0.0,0.0,0.0,0.0,0.0,0.0,0.0,0.0,0.0,0.0,0.0,0.0,0.0,0.0,0.0,0.0,0.0,0.0,0.0,0.0,0.0,0.0,0.0,0.0,0.0,0.0,0.0,0.0,0.0,0.0,0.0,0.0,0.0,0.0,0.0,0.0,0.0,0.0,0.0,0.0,0.0,0.0,0.0,0.0,0.0,0.0,0.0,0.0,0.0,0.0,0.0,0.0,0.0,0.0,0.0,0.0,0.0,0.0,0.0,0.0,0.0,0.0,0.0,0.0,0.0,0.0,0.0,0.0,0.0,0.0,0.0,0.0,0.0,0.0,0.0,0.0,0.0,0.0,0.0,0.0,0.0,0.0,0.0,0.0,0.0,0.0,0.0,0.0,0.0,0.0,-2.5894,-2.6143,-2.5919,-2.5139,-2.5102,-2.4716,0.0,0.0,0.0,0.0,0.0,0.0,0.0,0.0,0.0,0.0,0.0,0.0,0.0,0.0,0.0,0.0,0.0,0.0,0.0,0.0,0.0,0.0,0.0,0.0,0.0,0.0,0.0,0.0,0.0,0.0,0.0,0.0,0.0,0.0,0.0,0.0,0.0,0.0,0.0,0.0,0.0,0.0,0.0,0.0,0.0,0.0,0.0,0.0,0.0,0.0,0.0,0.0,0.0,0.0,0.0,0.0,0.0,0.0,0.0,0.0,0.0,0.0,0.0,0.0,0.0,0.0,0.0,0.0,0.0,0.0,0.0,0.0,0.0,0.0,0.0,0.0,0.0,0.0,0.0,0.0,0.0,0.0,0.0,0.0,0.0,0.0,0.0,0.0,0.0,0.0,0.0,0.0,0.0,0.0,0.0,0.0,0.0,0.0,0.0,0.0,0.0,0.0,0.0,0.0,0.0,0.0,0.0,0.0,-2.5663,-2.6772,-2.738,-2.7397,-2.6821,-2.6486,-2.5856,0.0,0.0,0.0,0.0,0.0,0.0,0.0,0.0,0.0,0.0,0.0,0.0,0.0,0.0,0.0,0.0,0.0,0.0,0.0,0.0,0.0,0.0,0.0,0.0,0.0,0.0,0.0,0.0,0.0,0.0,0.0,0.0,0.0,0.0,0.0,0.0,0.0,0.0,0.0,0.0,0.0,0.0,0.0,0.0,0.0,0.0,0.0,0.0,0.0,0.0,0.0,0.0,0.0,0.0,0.0,0.0,0.0,0.0,0.0,0.0,0.0,0.0,0.0,0.0,0.0,0.0,0.0,0.0,0.0,0.0,0.0,0.0,0.0,0.0,0.0,0.0,0.0,0.0,0.0,0.0,0.0,0.0,0.0,0.0,0.0,0.0,0.0,0.0,0.0,0.0,0.0,0.0,0.0,0.0,0.0,0.0,0.0,0.0,0.0,0.0,0.0,0.0,0.0,0.0,0.0,0.0,0.0,0.0,-2.6745,-2.723,-2.8332,-2.8937,-2.8956,-2.8045,-2.7084,0.0,0.0,0.0,0.0,0.0,0.0,0.0,0.0,0.0,0.0,0.0,0.0,0.0,0.0,0.0,0.0,0.0,0.0,0.0,0.0,0.0,0.0,0.0,0.0,0.0,0.0,0.0,0.0,0.0,0.0,0.0,0.0,0.0,0.0,0.0,0.0,0.0,0.0,0.0,0.0,0.0,0.0,0.0,0.0,0.0,0.0,0.0,0.0,0.0,0.0,0.0,0.0,0.0,0.0,0.0,0.0,0.0,0.0,0.0,0.0,0.0,0.0,0.0,0.0,0.0,0.0,0.0,0.0,0.0,0.0,0.0,0.0,0.0,0.0,0.0,0.0,0.0,0.0,0.0,0.0,0.0,0.0,0.0,0.0,0.0,0.0,0.0,0.0,0.0,0.0,0.0,0.0,0.0,0.0,0.0,0.0,0.0,0.0,0.0,0.0,0.0,0.0,0.0,0.0,0.0,0.0,0.0,0.0,-2.7491,-2.8786,-2.9623,-3.0218,-3.0466,-2.8879,-2.7706,0.0,0.0,0.0,0.0,0.0,0.0,0.0,0.0,0.0,0.0,0.0,0.0,0.0,0.0,0.0,0.0,0.0,0.0,0.0,0.0,0.0,0.0,0.0,0.0,0.0,0.0,0.0,0.0,0.0,0.0,0.0,0.0,0.0,0.0,0.0,0.0,0.0,0.0,0.0,0.0,0.0,0.0,0.0,0.0,0.0,0.0,0.0,0.0,-2.2662,0.0,0.0,0.0,0.0,0.0,0.0,0.0,0.0,0.0,0.0,0.0,0.0,0.0,0.0,0.0,0.0,0.0,0.0,0.0,0.0,0.0,0.0,0.0,0.0,0.0,0.0,0.0,0.0,0.0,0.0,0.0,0.0,0.0,0.0,0.0,0.0,0.0,0.0,0.0,0.0,0.0,0.0,0.0,0.0,0.0,0.0,0.0,0.0,0.0,0.0,0.0,0.0,0.0,0.0,0.0,0.0,0.0,0.0,0.0,-2.8423,-2.9756,-3.0527,-3.113,-3.1498,-3.0181,-2.8951,0.0,0.0,0.0,0.0,0.0,0.0,0.0,0.0,0.0,0.0,0.0,0.0,0.0,0.0,0.0,0.0,0.0,0.0,0.0,0.0,0.0,0.0,0.0,0.0,0.0,0.0,0.0,0.0,0.0,0.0,0.0,0.0,0.0,0.0,0.0,0.0,0.0,0.0,0.0,0.0,0.0,0.0,0.0,0.0,0.0,0.0,0.0,0.0,0.0,0.0,0.0,0.0,0.0,0.0,0.0,0.0,0.0,0.0,0.0,0.0,0.0,0.0,0.0,0.0,0.0,0.0,0.0,0.0,0.0,0.0,0.0,0.0,0.0,0.0,0.0,0.0,0.0,0.0,0.0,0.0,0.0,0.0,0.0,0.0,0.0,0.0,0.0,0.0,0.0,0.0,0.0,0.0,0.0,0.0,0.0,0.0,0.0,0.0,0.0,0.0,0.0,0.0,0.0,0.0,0.0,0.0,0.0,-2.7962,-2.9313,-3.0547,-3.1326,-3.1894,-3.2307,-3.1504,-3.0353,-2.8829,0.0,0.0,0.0,0.0,0.0,0.0,0.0,0.0,0.0,0.0,0.0,0.0,0.0,0.0,0.0,0.0,0.0,0.0,0.0,0.0,0.0,0.0,0.0,0.0,0.0,0.0,0.0,0.0,0.0,0.0,0.0,0.0,0.0,0.0,0.0,0.0,0.0,0.0,-2.1768,-2.211,0.0,0.0,0.0,0.0,0.0,0.0,0.0,0.0,-2.4473,0.0,0.0,0.0,0.0,0.0,0.0,0.0,0.0,0.0,0.0,0.0,0.0,0.0,0.0,0.0,0.0,0.0,0.0,0.0,0.0,0.0,0.0,0.0,0.0,0.0,0.0,0.0,0.0,0.0,0.0,0.0,0.0,0.0,0.0,0.0,0.0,0.0,0.0,0.0,0.0,0.0,0.0,0.0,0.0,0.0,0.0,0.0,0.0,0.0,0.0,0.0,0.0,0.0,0.0,0.0,0.0,-2.7132,-2.8757,-3.018,-3.1268,-3.2127,-3.2617,-3.2676,-3.2207,-3.1328,-2.9963,0.0,0.0,0.0,0.0,0.0,0.0,0.0,0.0,0.0,0.0,0.0,0.0,0.0,0.0,0.0,0.0,0.0,0.0,0.0,0.0,0.0,0.0,0.0,0.0,0.0,0.0,0.0,0.0,0.0,0.0,0.0,0.0,0.0,0.0,0.0,0.0,0.0,0.0,0.0,-2.2791,-2.3169,0.0,0.0,0.0,0.0,0.0,0.0,0.0,0.0,-2.4941,0.0,0.0,0.0,0.0,0.0,0.0,0.0,0.0,0.0,0.0,0.0,0.0,0.0,0.0,0.0,0.0,0.0,0.0,0.0,0.0,0.0,0.0,0.0,0.0,0.0,0.0,0.0,0.0,0.0,0.0,0.0,0.0,0.0,0.0,0.0,0.0,0.0,0.0,0.0,0.0,0.0,0.0,0.0,0.0,0.0,0.0,0.0,0.0,0.0,0.0,0.0,0.0,0.0,0.0,0.0,-2.7945,-2.929,-3.0626,-3.1816,-3.2461,-3.2891,-3.3105,-3.25,-3.166,0.0,0.0,0.0,0.0,0.0,0.0,0.0,0.0,0.0,0.0,0.0,0.0,0.0,0.0,0.0,0.0,0.0,0.0,0.0,0.0,0.0,0.0,0.0,0.0,0.0,0.0,0.0,0.0,0.0,0.0,0.0,0.0,0.0,0.0,0.0,0.0,0.0,0.0,0.0,0.0,-2.3415,-2.3817,-2.4313,0.0,0.0,0.0,0.0,0.0,0.0,-2.5273,-2.541,0.0,0.0,0.0,0.0,0.0,0.0,0.0,0.0,0.0,0.0,0.0,0.0,0.0,0.0,0.0,0.0,0.0,0.0,0.0,0.0,0.0,0.0,0.0,0.0,0.0,0.0,0.0,0.0,0.0,0.0,0.0,0.0,0.0,0.0,0.0,0.0,0.0,0.0,0.0,0.0,0.0,0.0,0.0,0.0,0.0,0.0,0.0,0.0,0.0,0.0,0.0,0.0,0.0,0.0,0.0,-2.8559,-2.9828,-3.1016,-3.219,-3.2656,-3.3086,-3.3398,-3.2598,-3.1816,0.0,0.0,0.0,0.0,0.0,0.0,0.0,0.0,0.0,0.0,0.0,0.0,0.0,0.0,0.0,0.0,0.0,0.0,0.0,0.0,0.0,0.0,0.0,0.0,0.0,0.0,0.0,0.0,0.0,0.0,0.0,0.0,0.0,0.0,0.0,0.0,0.0,0.0,0.0,0.0,0.0,-2.4562,-2.4986,-2.5314,0.0,0.0,0.0,0.0,-2.5947,-2.5947,0.0,0.0,0.0,0.0,0.0,0.0,0.0,0.0,0.0,0.0,0.0,0.0,0.0,0.0,0.0,0.0,0.0,0.0,0.0,0.0,0.0,0.0,0.0,0.0,0.0,0.0,0.0,0.0,0.0,0.0,0.0,0.0,0.0,0.0,0.0,0.0,0.0,0.0,0.0,0.0,0.0,0.0,0.0,0.0,0.0,0.0,0.0,0.0,0.0,0.0,0.0,0.0,0.0,0.0,0.0,0.0,-2.8891,-3.0489,-3.1621,-3.2168,-3.2949,-3.3379,-3.3398,-3.2598,-3.1934,0.0,0.0,0.0,0.0,0.0,0.0,0.0,0.0,0.0,0.0,0.0,0.0,0.0,0.0,0.0,0.0,0.0,0.0,0.0,0.0,0.0,0.0,0.0,0.0,0.0,0.0,0.0,0.0,0.0,0.0,0.0,0.0,0.0,0.0,0.0,0.0,0.0,0.0,0.0,0.0,0.0,-2.5693,-2.6122,-2.6543,-2.6816,0.0,0.0,-2.6875,-2.6855,-2.6875,0.0,0.0,0.0,0.0,0.0,0.0,0.0,0.0,0.0,0.0,0.0,0.0,0.0,0.0,0.0,0.0,0.0,0.0,0.0,0.0,0.0,0.0,0.0,0.0,0.0,0.0,0.0,0.0,0.0,0.0,0.0,0.0,0.0,0.0,0.0,0.0,0.0,0.0,0.0,0.0,0.0,0.0,0.0,0.0,0.0,0.0,0.0,0.0,0.0,0.0,0.0,0.0,0.0,0.0,0.0,-2.8447,-2.9629,-3.0879,-3.1953,-3.2851,-3.3476,-3.3789,-3.3789,-3.2969,-3.2207,0.0,0.0,0.0,0.0,0.0,0.0,0.0,0.0,0.0,0.0,0.0,0.0,0.0,0.0,0.0,0.0,0.0,0.0,0.0,0.0,0.0,0.0,0.0,0.0,0.0,0.0,0.0,0.0,0.0,0.0,0.0,0.0,0.0,0.0,0.0,0.0,0.0,0.0,0.0,0.0,0.0,0.0,-2.668,-2.6894,0.0,0.0,0.0,-2.7012,-2.7012,0.0,0.0,0.0,0.0,0.0,0.0,0.0,0.0,0.0,0.0,0.0,0.0,0.0,0.0,0.0,0.0,0.0,0.0,0.0,0.0,0.0,0.0,0.0,0.0,0.0,0.0,0.0,0.0,0.0,0.0,0.0,0.0,0.0,0.0,0.0,0.0,0.0,0.0,0.0,0.0,0.0,0.0,0.0,0.0,0.0,0.0,0.0,0.0,0.0,0.0,0.0,0.0,0.0,0.0,0.0,0.0,0.0,-3.0176,-3.1172,-3.2246,-3.3379,-3.3848,-3.4062,-3.4062,-3.334,0.0,0.0,0.0,0.0,0.0,0.0,0.0,0.0,0.0,0.0,0.0,0.0,0.0,0.0,0.0,0.0,0.0,0.0,0.0,0.0,0.0,0.0,0.0,0.0,0.0,0.0,0.0,-2.0943,0.0,0.0,0.0,0.0,0.0,0.0,0.0,0.0,0.0,0.0,0.0,0.0,0.0,0.0,-2.6855,-2.7285,-2.7422,-2.7519,0.0,0.0,-2.7617,-2.75,-2.75,-2.7461,0.0,0.0,0.0,0.0,0.0,0.0,0.0,0.0,0.0,0.0,0.0,0.0,0.0,0.0,0.0,0.0,0.0,0.0,0.0,0.0,0.0,0.0,0.0,0.0,0.0,0.0,0.0,0.0,0.0,0.0,0.0,0.0,0.0,0.0,0.0,0.0,0.0,0.0,0.0,0.0,0.0,0.0,0.0,0.0,0.0,0.0,0.0,0.0,0.0,0.0,0.0,0.0,0.0,0.0,0.0,-3.0215,-3.1465,-3.2539,-3.3398,-3.3848,-3.4062,-3.4062,-3.3633,-3.2988,0.0,0.0,0.0,0.0,0.0,0.0,0.0,0.0,0.0,0.0,0.0,0.0,0.0,0.0,0.0,0.0,0.0,0.0,0.0,0.0,0.0,0.0,0.0,0.0,0.0,0.0,0.0,0.0,0.0,0.0,0.0,0.0,0.0,0.0,0.0,0.0,0.0,0.0,0.0,0.0,0.0,-2.7787,-2.8144,-2.8535,-2.8926,0.0,0.0,-2.9258,-2.8848,-2.8789,-2.8652,-2.8262,0.0,0.0,0.0,0.0,0.0,0.0,0.0,0.0,0.0,0.0,0.0,0.0,0.0,0.0,0.0,0.0,0.0,0.0,0.0,0.0,0.0,0.0,0.0,0.0,0.0,0.0,0.0,0.0,0.0,0.0,0.0,0.0,0.0,0.0,0.0,0.0,0.0,0.0,0.0,0.0,0.0,0.0,0.0,0.0,0.0,0.0,0.0,0.0,0.0,0.0,0.0,0.0,0.0,-2.9883,-3.0996,-3.2031,-3.3086,-3.416,-3.4648,-3.4746,-3.4453,-3.4043,-3.3301,0.0,0.0,0.0,0.0,0.0,0.0,0.0,0.0,0.0,0.0,0.0,0.0,0.0,0.0,0.0,0.0,0.0,0.0,0.0,0.0,0.0,0.0,0.0,0.0,0.0,0.0,0.0,0.0,-2.2775,-2.3016,-2.3309,0.0,0.0,0.0,0.0,0.0,0.0,0.0,0.0,0.0,0.0,-2.8203,-2.8613,-2.9043,0.0,0.0,-2.957,-2.9512,-2.9336,-2.9082,-2.8867,-2.8711,-2.834,0.0,0.0,0.0,0.0,0.0,0.0,0.0,0.0,0.0,0.0,0.0,0.0,0.0,0.0,0.0,0.0,0.0,0.0,0.0,0.0,0.0,0.0,0.0,0.0,0.0,0.0,0.0,0.0,0.0,0.0,0.0,0.0,0.0,0.0,0.0,0.0,0.0,0.0,0.0,0.0,0.0,0.0,0.0,0.0,0.0,0.0,0.0,0.0,0.0,0.0,0.0,0.0,-3.0469,-3.1504,-3.248,-3.3535,-3.4668,-3.5156,-3.5234,-3.4922,-3.4492,-3.3711,0.0,0.0,0.0,0.0,0.0,0.0,0.0,0.0,0.0,0.0,0.0,0.0,0.0,0.0,0.0,0.0,0.0,0.0,0.0,0.0,0.0,0.0,0.0,0.0,0.0,0.0,0.0,0.0,-2.3594,-2.3916,-2.4283,0.0,0.0,0.0,0.0,0.0,0.0,0.0,0.0,0.0,0.0,-2.8672,-2.9219,-2.957,-2.9805,-2.9941,-2.9961,-2.9922,-2.9785,-2.9512,-2.9258,-2.9141,0.0,0.0,0.0,0.0,0.0,0.0,0.0,0.0,0.0,0.0,0.0,0.0,0.0,0.0,0.0,0.0,0.0,0.0,0.0,0.0,0.0,0.0,0.0,0.0,0.0,0.0,0.0,0.0,0.0,0.0,-2.5378,0.0,0.0,0.0,0.0,0.0,0.0,0.0,0.0,0.0,0.0,0.0,0.0,0.0,0.0,0.0,0.0,0.0,0.0,0.0,0.0,0.0,0.0,-3.1074,-3.1543,-3.2773,-3.3848,-3.4687,-3.5156,-3.5391,-3.5371,-3.4922,-3.4258,-3.3379,0.0,0.0,0.0,0.0,0.0,0.0,0.0,0.0,0.0,0.0,0.0,0.0,0.0,0.0,0.0,0.0,0.0,0.0,0.0,0.0,0.0,0.0,0.0,0.0,0.0,0.0,-2.3719,-2.397,-2.4302,0.0,0.0,0.0,0.0,0.0,0.0,0.0,0.0,0.0,0.0,-2.8652,-2.9219,-3.0039,-3.0176,-3.0332,-3.0781,-3.084,-3.0703,-3.0254,-3.0176,-3.0039,0.0,0.0,0.0,0.0,0.0,0.0,0.0,0.0,0.0,0.0,0.0,0.0,0.0,0.0,0.0,0.0,0.0,0.0,0.0,0.0,0.0,0.0,0.0,0.0,0.0,0.0,0.0,-2.7058,-2.6899,0.0,0.0,0.0,0.0,0.0,0.0,0.0,0.0,0.0,0.0,0.0,-2.9221,-2.9334,0.0,0.0,0.0,0.0,0.0,0.0,0.0,0.0,0.0,0.0,0.0,0.0,-3.1367,-3.2363,-3.334,-3.4277,-3.5137,-3.5586,-3.5664,-3.5391,-3.4941,-3.4043,-3.2637,0.0,0.0,0.0,0.0,0.0,0.0,0.0,0.0,0.0,0.0,0.0,0.0,0.0,0.0,0.0,0.0,0.0,0.0,0.0,0.0,0.0,0.0,0.0,0.0,0.0,-2.4744,0.0,0.0,0.0,0.0,0.0,0.0,0.0,0.0,0.0,0.0,0.0,-2.8242,-2.8652,-2.9316,-2.9883,-3.0156,-3.0469,-3.0703,0.0,0.0,0.0,0.0,0.0,0.0,0.0,0.0,0.0,0.0,0.0,0.0,0.0,0.0,-2.8535,-2.7969,-2.7871,-2.7871,-2.7871,0.0,0.0,0.0,0.0,0.0,0.0,0.0,0.0,0.0,0.0,0.0,0.0,0.0,0.0,-2.8682,0.0,-2.8031,0.0,0.0,0.0,0.0,0.0,0.0,0.0,0.0,-2.9489,-2.9891,-3.0606,-3.0606,-3.0723,0.0,-3.0879,-3.0742,0.0,0.0,0.0,0.0,0.0,0.0,0.0,0.0,-3.2031,-3.3008,-3.3848,-3.4648,-3.5371,-3.5801,-3.5898,-3.5605,-3.5019,-3.4043,-3.2656,-3.1797,-3.1055,0.0,0.0,0.0,0.0,0.0,0.0,0.0,0.0,0.0,0.0,0.0,0.0,0.0,0.0,0.0,0.0,0.0,0.0,0.0,0.0,0.0,0.0,0.0,-2.5859,0.0,0.0,0.0,0.0,0.0,0.0,0.0,0.0,0.0,-2.793,-2.8379,-2.8887,-2.9316,-2.9844,-3.0254,-3.041,0.0,0.0,0.0,0.0,0.0,0.0,0.0,-3.0449,-3.0449,-3.0078,-2.9746,-2.9646,-2.957,-2.957,-2.957,0.0,0.0,-2.8828,-2.875,-2.873,-2.873,-2.873,-2.873,-2.873,-2.8945,-2.9141,0.0,0.0,0.0,0.0,0.0,0.0,0.0,0.0,-3.0645,-3.0508,0.0,-2.9794,0.0,0.0,0.0,0.0,0.0,-2.9298,0.0,0.0,-3.0932,-3.1556,-3.2207,-3.2226,-3.2226,-3.2226,-3.2287,-3.2207,-3.209,-3.0565,0.0,0.0,0.0,0.0,0.0,0.0,-3.3027,-3.3437,-3.4277,-3.4941,-3.541,-3.582,-3.6016,-3.5957,-3.5156,-3.4277,-3.3437,-3.2617,-3.1797,-3.0937,-3.0469,0.0,0.0,0.0,0.0,0.0,0.0,0.0,0.0,0.0,0.0,0.0,0.0,0.0,0.0,0.0,0.0,0.0,0.0,0.0,0.0,-2.6777,0.0,0.0,0.0,0.0,0.0,0.0,0.0,0.0,0.0,0.0,-2.8437,-2.9062,-2.9726,-3.0137,0.0,0.0,0.0,0.0,-3.0937,-3.0957,-3.0937,-3.0937,-3.0918,-3.0918,-3.0898,-3.0879,0.0,0.0,-2.9687,-2.9685,-2.9704,-2.9629,-2.9724,-2.9665,-2.9609,-2.9607,-2.9531,-2.9587,-2.9567,-2.9551,-2.957,-2.9587,-2.959,-3.4978,0.0,0.0,0.0,0.0,-3.2695,-3.2695,-3.2695,-3.2572,-3.2396,-3.2105,-3.1623,0.0,0.0,0.0,0.0,0.0,0.0,-3.1414,-3.2124,-3.226,-3.275,-3.3516,-3.3535,-3.3598,-3.3535,-3.3598,-3.3359,-3.3027,-3.2266,-3.1719,-3.1445,0.0,0.0,0.0,0.0,-3.3457,-3.3906,-3.4746,-3.541,-3.584,-3.5957,-3.5879,-3.5566,-3.5019,-3.4297,-3.3457,-3.291,-3.2226,-3.1387,-3.0918,0.0,0.0,0.0,0.0,0.0,0.0,0.0,0.0,0.0,0.0,0.0,0.0,0.0,0.0,0.0,0.0,0.0,0.0,0.0,-2.6836,-2.6953,-2.7012,0.0,0.0,0.0,0.0,0.0,0.0,0.0,0.0,0.0,-2.9668,-2.9863,-3.0059,0.0,0.0,-3.1191,-3.1328,-3.1601,-3.1797,-3.1797,-3.1797,0.0,-3.1387,-3.1328,-3.123,-3.0937,-3.0781,-3.0644,-3.0527,-3.0508,-3.0508,-3.0508,-3.0508,-3.0508,-3.0488,-2.998,-2.9609,-2.957,-2.957,-2.957,-2.9646,-2.9785,-3.0019,-3.6836,-3.4922,-3.4414,-3.4101,-3.3926,-3.3926,-3.3926,-3.3926,-3.3926,-3.3789,-3.3535,-3.3189,-3.2758,-3.2273,-3.1854,0.0,0.0,0.0,-3.2879,-3.3301,-3.3476,-3.3828,-3.4297,-3.4316,-3.4316,-3.4316,-3.4316,-3.418,-3.3926,-3.3672,-3.3418,-3.3164,0.0,0.0,-3.293,-3.3594,-3.416,-3.4609,-3.5117,-3.5605,-3.6016,-3.6035,-3.5898,-3.5644,-3.5039,-3.4453,-3.3945,-3.3203,-3.248,-3.1797,-3.1367,-3.0859,0.0,0.0,0.0,0.0,0.0,0.0,0.0,0.0,0.0,0.0,0.0,-2.7012,-2.7012,0.0,0.0,0.0,-2.7324,-2.7598,-2.7754,-2.793,0.0,0.0,0.0,0.0,0.0,0.0,0.0,-2.9766,-3.0195,-3.0547,-3.0703,-3.0859,-3.0918,-3.0742,-3.1328,-3.1777,-3.1777,0.0,-3.2229,-3.2229,-3.2229,-3.207,-3.1816,-3.1777,-3.168,-3.1426,-3.1406,-3.1328,-3.1152,-3.1133,-3.1074,-3.0937,-3.0898,-3.0898,-3.0898,-3.0449,-3.0098,-3.0098,-3.0154,-3.0098,-3.0098,-3.0293,-3.0527,-3.8208,-3.7344,-3.6191,-3.541,-3.4922,-3.4902,-3.4902,-3.4902,-3.4902,-3.4883,-3.4824,-3.4414,-3.418,-3.4101,-3.3691,0.0,-3.3535,-3.3984,-3.4199,-3.4238,-3.4668,-3.4863,-3.4902,-3.4922,-3.4883,-3.4863,-3.4863,-3.4844,-3.4805,-3.4766,-3.4766,-3.4785,-3.3984,-3.3769,-3.4121,-3.4531,-3.498,-3.5449,-3.5488,-3.5684,-3.6074,-3.6035,-3.6035,-3.6016,-3.5156,-3.4687,-3.4668,-3.3496,-3.2637,-3.2248,-3.1777,-3.1172,-3.0312,0.0,0.0,0.0,0.0,0.0,0.0,0.0,0.0,0.0,0.0,0.0,0.0,0.0,0.0,0.0,-2.793,0.0,-2.8926,-2.9336,0.0,0.0,0.0,-2.9626,-2.9609,-2.9724,-2.9824,-3.0254,0.0,0.0,-3.1523,-3.1953,-3.207,-3.168,-3.1973,-3.2287,-3.2226,-3.2266,-3.2326,-3.2324,-3.2285,-3.2266,-3.2226,-3.2229,-3.2109,-3.209,-3.2229,-3.1992,-3.166,-3.1562,-3.1406,-3.1035,-3.0957,-3.0957,-3.0957,-3.0918,-3.0957,-3.0976,-3.0957,-3.0937,-3.0918,-3.0976,-3.1133,-3.951,-3.873,-3.8418,-3.7676,-3.6699,-3.668,-3.668,-3.668,-3.668,-3.6504,-3.6172,-3.5742,-3.5176,-3.4551,-3.4434,-3.4394,-3.4414,-3.4863,-3.5254,-3.5586,-3.5996,-3.6367,-3.668,-3.668,-3.6523,-3.6211,-3.6191,-3.6035,-3.5703,-3.5391,-3.5391,-3.5664,-3.5176,-3.4805,-3.457,-3.5,-3.5449,-3.5859,-3.6191,-3.6426,-3.6504,-3.6191,-3.6035,-3.6016,-3.5156,-3.4687,-3.4687,-3.3789,-3.293,-3.2207,-3.207,-3.1621,-3.0762,-3.0391,0.0,0.0,0.0,0.0,0.0,0.0,0.0,0.0,0.0,-2.8125,-2.8437,0.0,-2.8594,0.0,-2.9141,-2.9316,-2.9414,-2.9567,0.0,0.0,-2.957,-2.9707,-3.0019,-3.0351,-3.0742,-3.1152,-3.1582,-3.1894,-3.2012,-3.2383,-3.2617,-3.25,-3.2578,-3.2637,-3.2656,-3.293,-3.3125,-3.3105,-3.3086,-3.3008,-3.2695,-3.2363,-3.2187,-3.2229,-3.2229,-3.2129,-3.2031,-3.2012,-3.1875,-3.1465,-3.1367,-3.1367,-3.1367,-3.1367,-3.1504,-3.1758,-3.1601,-3.1367,-3.1387,-3.1621,-3.1894,-4.0053,-3.9512,-3.9512,-3.9101,-3.8418,-3.8027,-3.7754,-3.7578,-3.7578,-3.7344,-3.6934,-3.6699,-3.6328,-3.5859,-3.5859,-3.5859,-3.5879,-3.6133,-3.6367,-3.6601,-3.6836,-3.707,-3.7305,-3.7305,-3.7187,-3.6953,-3.6953,-3.6816,-3.6582,-3.6348,-3.6367,-3.6582,-3.6367,-3.6113,-3.5879,-3.5937,-3.6172,-3.6582,-3.6641,-3.6749,-3.6729,-3.625,-3.6035,-3.5996,-3.5156,-3.4687,-3.4687,-3.3887,-3.3125,-3.248,-3.2266,-3.1855,-3.1211,-3.0742,-3.041,0.0,0.0,0.0,0.0,0.0,0.0,0.0,0.0,0.0,0.0,0.0,-2.9316,-2.9551,-2.9746,-2.9844,-2.9844,-3.0215,-3.043,-3.043,-3.0605,-3.082,-3.1055,-3.1309,-3.1543,-3.1777,-3.2187,-3.2441,-3.2461,-3.2812,-3.3066,-3.3066,-3.3066,-3.3066,-3.3086,-3.3281,-3.3418,-3.3418,-3.3418,-3.3359,-3.3105,-3.2891,-3.2734,-3.2715,-3.2734,-3.2676,-3.248,-3.2441,-3.2305,-3.1914,-3.1797,-3.1816,-3.1797,-3.1797,-3.1894,-3.207,-3.2129,-3.2031,-3.1855,-3.1992,-3.2207,-4.0391,-4.0059,-4.0059,-4.0059,-4.0,-3.9238,-3.8633,-3.8184,-3.8184,-3.791,-3.7461,-3.7402,-3.7344,-3.7305,-3.7305,-3.7305,-3.7305,-3.7363,-3.7383,-3.7383,-3.7441,-3.7461,-3.7461,-3.7461,-3.7441,-3.7383,-3.7383,-3.7363,-3.7305,-3.7305,-3.7305,-3.7305,-3.7305,-3.7324,-3.7363,-3.7012,-3.7012,-3.7363,-3.6973,-3.6827,-3.6738,-3.6269,-3.6035,-3.5996,-3.5176,-3.4687,-3.4668,-3.3887,-3.3223,-3.2812,-3.2441,-3.2031,-3.1543,-3.1172,-3.0762,0.0,-3.0273,0.0,0.0,0.0,0.0,0.0,0.0,0.0,0.0,-2.9707,-2.9766,-2.9805,-3.0156,-3.0391,-3.043,-3.1152,-3.1601,-3.1601,-3.1934,-3.2229,-3.2229,-3.2207,-3.2246,-3.2246,-3.2617,-3.2871,-3.2891,-3.3203,-3.3418,-3.3398,-3.3379,-3.3379,-3.3398,-3.3398,-3.3418,-3.3418,-3.3418,-3.3418,-3.3379,-3.3379,-3.3359,-3.3379,-3.3359,-3.3301,-3.293,-3.2871,-3.2734,-3.2363,-3.2246,-3.2246,-3.2246,-3.2246,-3.2285,-3.2383,-3.2637,-3.2695,-3.2363,-3.2344,-3.2441,-4.1016,-4.0937,-4.0937,-4.0937,-4.0918,-4.0742,-4.0254,-3.9531,-3.9512,-3.9082,-3.832,-3.7969,-3.7617,-3.7305,-3.7305,-3.7305,-3.7305,-3.7656,-3.7812,-3.7812,-3.8164,-3.834,-3.834,-3.834,-3.8144,-3.7832,-3.7793,-3.7637,-3.7305,-3.7305,-3.7305,-3.7305,-3.7305,-3.748,-3.7773,0.0,0.0,0.0,-3.7402,-3.7187,-3.7148,-3.6426,-3.6035,-3.6016,-3.5156,0.0,-3.4668,-3.3887,-3.3223,-3.2832,-3.2715,0.0,0.0,0.0,0.0,0.0,0.0,0.0,0.0,0.0,0.0,0.0,-3.0957,-3.084,-3.0156,-3.043,-3.0781,-3.1113,-3.1211,-3.1406,-3.1758,-3.1934,-3.2051,-3.2051,-3.2109,-3.2229,-3.2229,-3.2461,-3.2676,-3.2676,-3.3047,-3.3301,-3.3281,-3.3379,-3.3418,-3.3418,-3.3418,-3.3418,-3.3418,-3.3418,-3.3418,-3.3418,-3.3418,-3.3418,-3.3418,-3.3418,-3.3418,-3.3418,-3.3418,-3.3379,-3.3301,-3.3281,-3.3144,-3.2734,-3.2676,-3.2656,-3.2656,-3.2676,-3.2773,-3.3105,-3.3242,-3.3184,-3.2773,-3.2949,-3.3203,-4.1172,0.0,-4.1172,-4.1172,0.0,-4.1172,-4.0937,-4.0508,-4.0293,-3.9707,-3.8887,-3.8652,-3.832,-3.793,-3.793,-3.793,-3.793,-3.8144,-3.8242,-3.8262,-3.8476,-3.8574,-3.8574,-3.8574,-3.8457,-3.8242,-3.8242,-3.8144,-3.793,-3.793,-3.793,-3.793,-3.793,-3.8047,-3.8242,-3.8242,-3.8242,-3.8242,-3.7832,-3.75,-3.7285,-3.668,-3.625,-3.6016,-3.5156,0.0,0.0,0.0,0.0,0.0,0.0,0.0,0.0,-3.1953,0.0,-3.1543,-3.1523,-3.1523,-3.1523,-3.1583,-3.1523,-3.1523,-3.1719,-3.1641,-3.1191,-3.1387,-3.1601,-3.1816,-3.1836,-3.1934,-3.2148,-3.2344,-3.248,-3.25,-3.2656,-3.2793,-3.2812,-3.2969,-3.3105,-3.3125,-3.3281,-3.3418,-3.3418,-3.3418,-3.3418,-3.3418,-3.3418,-3.3418,-3.3418,-3.3418,-3.3418,-3.3418,-3.3418,-3.3418,-3.3418,-3.3418,-3.3418,-3.3418,-3.3418,-3.3418,-3.3418,-3.3262,-3.3027,-3.2832,-3.2793,-3.2793,-3.2812,-3.2949,-3.3184,-3.3359,-3.3418,-3.3359,-3.3144,-3.3281,-3.3418,-4.1269,-4.1269,-4.1211,-4.1172,-4.1172,-4.1172,-4.1172,-4.1152,0.0,0.0,0.0,-3.9277,-3.9004,-3.8691,-3.8613,-3.8574,-3.8574,-3.8574,-3.8574,-3.8574,-3.8574,-3.8574,-3.8574,-3.8574,-3.8574,-3.8574,-3.8574,-3.8574,-3.8574,-3.8574,-3.8574,-3.8574,-3.8574,-3.8574,-3.8574,-3.8574,-3.8574,-3.8555,-3.8144,-3.7715,-3.7305,-3.6894,-3.6465,-3.6035,-3.5156,-3.4687,-3.4687,-3.3867,-3.3418,-3.3398,-3.3105,-3.2871,-3.2793,-3.2461,-3.2307,-3.2168,-3.2229,-3.2229,-3.2229,-3.2229,-3.2268,-3.2266,-3.2285,-3.2246,-3.2168,-3.2229,-3.2207,-3.2326,-3.2285,-3.2305,-3.2383,-3.2695,-3.291,-3.291,-3.3223,-3.3398,-3.3398,-3.3418,-3.3398,-3.3418,-3.3418,-3.3418,-3.3418,-3.3418,-3.3418,-3.3418,-3.3418,-3.3418,-3.3418,-3.3418,-3.3418,-3.3418,-3.3418,-3.3418,-3.3418,-3.3418,-3.3418,-3.3418,-3.3418,-3.3398,-3.3281,-3.3027,-3.2793,-3.2656,-3.2676,-3.2695,-3.2793,-3.3027,-3.332,-3.3398,-3.3418,-3.3418,-3.3418,-3.3418,-3.3418,-4.1719,-4.168,-4.1328,-4.1172,-4.1172,-4.1172,-4.1172,-4.1133,-4.0703,-4.0449,-4.0293,-3.9531,-3.918,-3.9101,-3.875,-3.8574,-3.8574,-3.8574,-3.8574,-3.8574,-3.8574,-3.8574,-3.8574,-3.8574,-3.8574,-3.8574,-3.8574,-3.8574,-3.8574,-3.8574,-3.8574,-3.8574,-3.8574,-3.8574,-3.8574,-3.8574,-3.8574,-3.8574,-3.8144,-3.7715,-3.7305,-3.6894,-3.6465,-3.6016,-3.5156,-3.4687,-3.4687,-3.3887,-3.3418,-3.3418,-3.3359,-3.3164,-3.2812,-3.2734,-3.2539,-3.2207,-3.2168,-3.2229,-3.2168,-3.2229,-3.2324,-3.2656,-3.2715,-3.2559,-3.2268,-3.2229,-3.2385,-3.2656,-3.2715,-3.2851,-3.3184,-3.3281,-3.3301,-3.332,-3.3379,-3.3418,-3.3418,-3.3418,-3.3418,-3.3418,-3.3418,-3.3418,-3.3418,-3.3355,-3.3355,-3.3418,-3.3418,-3.3418,-3.3418,-3.3418,-3.3418,-3.3418,-3.3418,-3.3418,-3.3418,-3.3418,-3.3355,-3.3418,-3.3355,-3.3238,-3.2906,-3.277,-3.2555,-3.2324,-3.2246,-3.2383,-3.2676,-3.2832,-3.3047,-3.332,-3.3418,-3.3418,-3.3418,-3.3418,-3.3418,-4.2148,-4.209,-4.168,-4.1504,-4.1504,-4.1269,-4.1172,-4.1152,-4.0957,-4.0742,-4.0488,-4.0078,-3.9648,-3.9199,-3.9004,-3.8789,-3.8574,-3.8574,-3.8574,-3.8574,-3.8574,-3.8574,-3.8574,-3.8574,-3.8574,-3.8574,-3.8574,-3.8574,-3.8574,-3.8574,-3.8574,-3.8574,-3.8574,-3.8574,-3.8574,-3.8574,-3.8574,-3.8574,-3.8379,-3.7949,-3.7305,-3.7109,-3.6699,-3.6035,-3.541,-3.4941,-3.4707,-3.4101,-3.3672,-3.3437,-3.3418,-3.334,-3.3144,-3.3144,-3.3047,-3.2871,-3.2851,-3.2851,-3.2851,-3.2851,-3.293,-3.3125,-3.3125,-3.3066,-3.2871,-3.2851,-3.293,-3.3105,-3.3125,-3.3203,-3.3398,-3.3418,-3.3418,-3.3418,-3.3418,-3.3418,-3.3418,-3.3418,-3.3418,-3.3418,-3.3418,-3.3418,-3.3418,-3.3228,-3.3248,-3.3355,-3.3418,-3.3355,-3.3355,-3.3228,-3.3165,-3.3355,-3.3418,-3.3418,-3.3355,-3.3228,-3.3165,-3.3102,-3.2975,-3.2675,-3.2354,-3.2204,-3.198,-3.1672,-3.1696,-3.1992,-3.2383,-3.2656,-3.2949,-3.3301,-3.3418,-3.3418,-3.3418,-3.3418,-3.3418,-4.2578,-4.2539,-4.2012,-4.1758,-4.1641,-4.1308,-4.1172,-4.1172,-4.1172,-4.0976,-4.0684,-4.0566,-4.0078,-3.9394,-3.9258,-3.8965,-3.8613,-3.8574,-3.8574,-3.8574,-3.8574,-3.8574,-3.8574,-3.8574,-3.8574,-3.8574,-3.8574,-3.8574,-3.8574,-3.8574,-3.8574,-3.8574,-3.8574,-3.8574,-3.8574,-3.8574,-3.8574,-3.8574,-3.8574,-3.8164,-3.7344,-3.7305,-3.6894,-3.6074,-3.5605,-3.5234,-3.4863,-3.4434,-3.4062,-3.373,-3.3613,-3.3574,-3.3555,-3.3476,-3.3418,-3.3418,-3.3418,-3.3418,-3.3418,-3.3418,-3.3418,-3.3418,-3.3418,-3.3418,-3.3418,-3.3418,-3.3418,-3.3418,-3.3398,-3.3398,-3.3418,-3.3418,-3.3418,-3.3418,-3.3418,-3.3418,-3.3418,-3.3418,-3.3355,-3.3292,-3.3292,-3.3228,-3.3165,-3.2912,-3.2931,-3.3102,-3.3165,-3.3165,-3.3184,-3.2912,-3.2931,-3.3038,-3.3165,-3.3102,-3.3165,-3.2994,-3.2804,-3.2804,-3.2613,-3.2277,-3.1979,-3.1703,-3.1344,-3.1041,-3.1009,-3.1322,-3.1869,-3.2157,-3.2564,-3.2947,-3.3102,-3.3165,-3.3228,-3.3355,-3.3355,-4.3027,-4.2891,-4.2148,-4.1582,-4.125,-4.1191,-4.1172,-4.1172,-4.1172,-4.1172,-4.1055,-4.0703,-4.0273,-3.9824,-3.9394,-3.9004,-3.8594,-3.8574,-3.8574,-3.8574,-3.8574,-3.8574,-3.8574,-3.8574,-3.8574,-3.8574,-3.8574,-3.8574,-3.8574,-3.8574,-3.8574,-3.8574,-3.8574,-3.8574,-3.8574,-3.8574,-3.8574,-3.8574,-3.8574,-3.8164,-3.7363,-3.7305,-3.6894,-3.6055,-3.5625,-3.5371,-3.5293,-3.4883,-3.4629,-3.4551,-3.4199,-3.4004,-3.3984,-3.3652,-3.3418,-3.3437,-3.3437,-3.3418,-3.3418,-3.3418,-3.3437,-3.3418,-3.3418,-3.3418,-3.3418,-3.3418,-3.3418,-3.3418,-3.3418,-3.3418,-3.3418,-3.3418,-3.3418,-3.3418,-3.3418,-3.3418,-3.3418,-3.3418,-3.3292,-3.2975,-3.2994,-3.2848,-3.2613,-3.2549,-3.2485,-3.2549,-3.2613,-3.2613,-3.2613,-3.2549,-3.2422,-3.2485,-3.2485,-3.2485,-3.2549,-3.2485,-3.2422,-3.2422,-3.2422,-3.2169,-3.181,-3.1413,-3.11,-3.0797,-3.0398,-3.0632,-3.1127,-3.137,-3.1675,-3.2467,-3.2613,-3.2613,-3.2931,-3.3121,-3.3292,-4.3457,-4.3359,-4.2519,-4.1777,-4.1211,-4.1172,-4.1172,-4.1172,-4.1172,-4.1172,-4.1152,-4.0996,-4.0527,-3.9883,-3.9687,-3.9238,-3.8594,-3.8574,-3.8574,-3.8574,-3.8574,-3.8574,-3.8574,-3.8574,-3.8574,-3.8574,-3.8574,-3.8574,-3.8574,-3.8574,-3.8574,-3.8574,-3.8574,-3.8574,-3.8574,-3.8574,-3.8574,-3.8574,-3.8574,-3.8281,-3.7715,-3.7422,-3.7012,-3.6445,-3.5976,-3.5644,-3.541,-3.5195,-3.498,-3.4726,-3.4531,-3.4434,-3.4434,-3.4277,-3.418,-3.418,-3.418,-3.4062,-3.3828,-3.3809,-3.3691,-3.3437,-3.3418,-3.3418,-3.3418,-3.3418,-3.3418,-3.3418,-3.3418,-3.3418,-3.3418,-3.3418,-3.3418,-3.3418,-3.3418,-3.3355,-3.3418,-3.3228,-3.3038,-3.2912,-3.274,-3.2549,-3.2422,-3.2422,-3.2294,-3.2166,-3.223,-3.2358,-3.2358,-3.223,-3.2102,-3.2102,-3.1974,-3.2038,-3.223,-3.223,-3.2102,-3.2038,-3.191,-3.1697,-3.1344,-3.1327,-3.1108,-3.0677,-3.0554,-3.0751,-3.1518,-3.155,-3.1759,-3.2207,-3.2422,-3.2485,-3.2613,-3.274,-3.2804,-4.3535,-4.3398,-4.2598,-4.1836,-4.1191,-4.1172,-4.1172,-4.1172,-4.1172,-4.1172,-4.1172,-4.1172,-4.0762,-4.0117,-3.9961,-3.9473,-3.8789,-3.8633,-3.8574,-3.8574,-3.8574,-3.8574,-3.8574,-3.8574,-3.8574,-3.8574,-3.8574,-3.8574,-3.8574,-3.8574,-3.8574,-3.8574,-3.8574,-3.8574,-3.8574,-3.8574,-3.8574,-3.8574,-3.8574,-3.8418,-3.8086,-3.7695,-3.7207,-3.6699,-3.6367,-3.5996,-3.5586,-3.5566,-3.541,-3.5078,-3.4941,-3.4883,-3.4883,-3.4766,-3.4687,-3.4687,-3.4687,-3.457,-3.4258,-3.4238,-3.4121,-3.3809,-3.3769,-3.3769,-3.375,-3.3672,-3.353,-3.3467,-3.3306,-3.3292,-3.3418,-3.3292,-3.3292,-3.3228,-3.3165,-3.3102,-3.3102,-3.2912,-3.274,-3.2613,-3.2358,-3.223,-3.2166,-3.2102,-3.1974,-3.1846,-3.1974,-3.2166,-3.2102,-3.191,-3.1782,-3.1782,-3.1589,-3.1635,-3.2019,-3.191,-3.1782,-3.1717,-3.157,-3.135,-3.0974,-3.1172,-3.1169,-3.0742,-3.0853,-3.0953,-3.1171,-3.1402,-3.1678,-3.1997,-3.2166,-3.223,-3.223,-3.2294,-3.2358,-4.3105,-4.2969,-4.2187,-4.1582,-4.1172,-4.1172,-4.1172,-4.1172,-4.1172,-4.1172,-4.1172,-4.1172,-4.0918,-4.0469,-4.0098,-3.9629,-3.9141,-3.875,-3.8574,-3.8574,-3.8574,-3.8574,-3.8574,-3.8574,-3.8574,-3.8574,-3.8574,-3.8574,-3.8574,-3.8574,-3.8574,-3.8574,-3.8574,-3.8574,-3.8574,-3.8574,-3.8574,-3.8574,-3.8574,-3.8555,-3.8476,-3.8105,-3.7519,-3.6836,-3.6641,-3.6406,-3.6035,-3.5976,-3.5957,-3.5937,-3.5566,-3.5351,-3.5332,-3.4961,-3.4766,-3.4746,-3.4726,-3.4726,-3.4687,-3.4668,-3.4629,-3.4609,-3.4466,-3.4609,-3.4362,-3.405,-3.3791,-3.3572,-3.3142,-3.3038,-3.3228,-3.3038,-3.2931,-3.2931,-3.2676,-3.2549,-3.2485,-3.2485,-3.2294,-3.2038,-3.1993,-3.1846,-3.1506,-3.1442,-3.1506,-3.1442,-3.1442,-3.1506,-3.157,-3.1506,-3.1442,-3.1442,-3.1442,-3.1442,-3.1442,-3.1506,-3.1506,-3.1442,-3.1506,-3.1359,-3.1231,-3.1166,-3.0964,-3.078,-3.0678,-3.0722,-3.0843,-3.0927,-3.1156,-3.1487,-3.1809,-3.191,-3.191,-3.2166,-3.223,-4.2754,-4.2246,-4.1933,-4.1562,-4.1191,-4.1172,-4.1172,-4.1172,-4.1172,-4.1172,-4.1172,-4.1172,-4.1094,-4.0898,-4.0215,-3.9648,-3.918,-3.8769,-3.8574,-3.8574,-3.8574,-3.8574,-3.8574,-3.8574,-3.8574,-3.8574,-3.8574,-3.8574,-3.8574,-3.8574,-3.8574,-3.8574,-3.8574,-3.8574,-3.8574,-3.8574,-3.8574,-3.8574,-3.8574,-3.8574,-3.8574,-3.8418,-3.8047,-3.75,-3.6934,-3.6465,-3.6035,-3.6035,-3.6035,-3.6035,-3.5859,-3.5801,-3.5781,-3.5644,-3.5547,-3.5547,-3.5547,-3.543,-3.5195,-3.5156,-3.4953,-3.4398,-3.4398,-3.4305,-3.3992,-3.362,-3.3352,-3.3165,-3.286,-3.2676,-3.2657,-3.2676,-3.2549,-3.2549,-3.2485,-3.2358,-3.2358,-3.223,-3.2038,-3.191,-3.1717,-3.1506,-3.1442,-3.1377,-3.1377,-3.1377,-3.1377,-3.1377,-3.1377,-3.1377,-3.1377,-3.1377,-3.1377,-3.1377,-3.1377,-3.1442,-3.1442,-3.1442,-3.1377,-3.1377,-3.1286,-3.1267,-3.1185,-3.1148,-3.0882,-3.0882,-3.1148,-3.1166,-3.1231,-3.1332,-3.1589,-3.1653,-3.1589,-3.1846,-3.1763,-4.2246,-4.1641,-4.1601,-4.1445,-4.1191,-4.1172,-4.1172,-4.1172,-4.1172,-4.1172,-4.1172,-4.1172,-4.1172,-4.1035,-4.0273,-3.9746,-3.9375,-3.8848,-3.8574,-3.8574,-3.8574,-3.8574,-3.8574,-3.8574,-3.8574,-3.8574,-3.8574,-3.8574,-3.8574,-3.8574,-3.8574,-3.8574,-3.8574,-3.8574,-3.8574,-3.8574,-3.8574,-3.8574,-3.8574,-3.8574,-3.8574,-3.8574,-3.8379,-3.791,-3.7363,-3.6797,-3.6269,-3.6094,-3.6035,-3.6035,-3.6035,-3.6035,-3.6035,-3.6035,-3.6035,-3.6035,-3.6016,-3.585,-3.5529,-3.5471,-3.5133,-3.449,-3.4423,-3.4289,-3.3983,-3.3624,-3.3359,-3.3067,-3.2663,-3.2399,-3.2121,-3.2083,-3.2102,-3.2166,-3.2166,-3.2102,-3.2102,-3.191,-3.1782,-3.1717,-3.157,-3.1442,-3.1377,-3.1377,-3.1377,-3.1377,-3.1377,-3.1377,-3.1377,-3.1377,-3.1377,-3.1377,-3.1377,-3.1377,-3.1377,-3.1377,-3.1377,-3.1377,-3.1377,-3.1377,-3.1377,-3.1377,-3.1377,-3.1377,-3.1377,-3.1377,-3.1377,-3.1377,-3.1377,-3.1377,-3.1442,-3.1506,-3.1442,-3.1442,-3.1442,-4.1562,-4.123,-4.1172,-4.1211,-4.1172,-4.1172,-4.1172,-4.1172,-4.1172,-4.1172,-4.1172,-4.1172,-4.1172,-4.0996,-4.0273,-3.9883,-3.9687,-3.8965,-3.8574,-3.8574,-3.8574,-3.8574,-3.8574,-3.8574,-3.8574,-3.8574,-3.8574,-3.8574,-3.8574,-3.8574,-3.8574,-3.8574,-3.8574,-3.8574,-3.8574,-3.8574,-3.8574,-3.8574,-3.8574,-3.8574,-3.8574,-3.8574,-3.8398,-3.8008,-3.7871,-3.748,-3.6719,-3.6289,-3.6074,-3.6035,-3.6035,-3.6035,-3.6035,-3.6035,-3.5947,-3.5967,-3.5967,-3.5811,-3.5519,-3.5431,-3.5275,-3.4857,-3.4846,-3.4701,-3.4557,-3.4275,-3.3811,-3.3151,-3.2693,-3.2209,-3.158,-3.1506,-3.1589,-3.1782,-3.1699,-3.1506,-3.1506,-3.1442,-3.1442,-3.1442,-3.1442,-3.1377,-3.1377,-3.1377,-3.1377,-3.1377,-3.1377,-3.1377,-3.1377,-3.1377,-3.1377,-3.1377,-3.1377,-3.1377,-3.1377,-3.1377,-3.1377,-3.1377,-3.1377,-3.1377,-3.1377,-3.1377,-3.1377,-3.1377,-3.1377,-3.1377,-3.1377,-3.1377,-3.1377,-3.1377,-3.1377,-3.1377,-3.1377,-3.1377,-3.1377,-4.1289,-4.1172,-4.1172,-4.1172,-4.1172,-4.1172,-4.1172,-4.1172,-4.1172,-4.1172,-4.1172,-4.1172,-4.1172,-4.0976,-4.0293,-3.9883,-3.9824,-3.9004,-3.8574,-3.8574,-3.8574,-3.8574,-3.8574,-3.8574,-3.8574,-3.8574,-3.8574,-3.8574,-3.8574,-3.8574,-3.8574,-3.8574,-3.8574,-3.8574,-3.8574,-3.8574,-3.8574,-3.8574,-3.8574,-3.8574,-3.8574,-3.8574,-3.8496,-3.8359,-3.8086,-3.7773,-3.7519,-3.6855,-3.6348,-3.6055,-3.6035,-3.6035,-3.6035,-3.6035,-3.5879,-3.5694,-3.5694,-3.547,-3.5127,-3.5059,-3.4921,-3.4646,-3.4577,-3.4439,-3.4107,-3.3792,-3.3403,-3.2862,-3.2372,-3.1901,-3.1552,-3.1377,-3.1442,-3.157,-3.1442,-3.1377,-3.1377,-3.1377,-3.1377,-3.1377,-3.1377,-3.1377,-3.1377,-3.1377,-3.1377,-3.1377,-3.1377,-3.1377,-3.1377,-3.1377,-3.1377,-3.1377,-3.1377,-3.1377,-3.1377,-3.1377,-3.1377,-3.1377,-3.1377,-3.1377,-3.1377,-3.1377,-3.1377,-3.1377,-3.1377,-3.1377,-3.1377,-3.1377,-3.1377,-3.1377,-3.1377,-3.1377,-3.1377,-3.1377,-3.1377,-4.1172,-4.1172,-4.1172,-4.1172,-4.1172,-4.1172,-4.1172,-4.1172,-4.1172,-4.1172,-4.1172,-4.1172,-4.1172,-4.0996,-4.0273,-3.9902,-3.9805,-3.8984,-3.8574,-3.8574,-3.8574,-3.8574,-3.8574,-3.8574,-3.8574,-3.8574,-3.8574,-3.8574,-3.8574,-3.8574,-3.8574,-3.8574,-3.8574,-3.8574,-3.8574,-3.8574,-3.8574,-3.8574,-3.8574,-3.8574,-3.8574,-3.8574,-3.8574,-3.8535,-3.8301,-3.8105,-3.791,-3.7402,-3.6875,-3.6348,-3.5977,-3.5831,-3.5811,-3.5675,-3.547,-3.5333,-3.5264,-3.5127,-3.4784,-3.4715,-3.4577,-3.4232,-3.4163,-3.4094,-3.3831,-3.3541,-3.3266,-3.2863,-3.2478,-3.2056,-3.1689,-3.1451,-3.1377,-3.1377,-3.1442,-3.1377,-3.1377,-3.1377,-3.1377,-3.1377,-3.1377,-3.1377,-3.1377,-3.1377,-3.1377,-3.1377,-3.1377,-3.1377,-3.1377,-3.1377,-3.1377,-3.1377,-3.1377,-3.1377,-3.1377,-3.1377,-3.1377,-3.1377,-3.1377,-3.1377,-3.1377,-3.1377,-3.1377,-3.1377,-3.1377,-3.1377,-3.1377,-3.1377,-3.1377,-3.1377,-3.1377,-3.1377,-3.1377,-3.1377,-3.1377,-4.1172,-4.1172,-4.1172,-4.1172,-4.1172,-4.1172,-4.1172,-4.1172,-4.1172,-4.1172,-4.1172,-4.1172,-4.1133,-4.0937,-4.0234,-3.9863,-3.9707,-3.8984,-3.8574,-3.8574,-3.8574,-3.8574,-3.8574,-3.8574,-3.8574,-3.8574,-3.8574,-3.8574,-3.8574,-3.8574,-3.8574,-3.8574,-3.8574,-3.8574,-3.8574,-3.8574,-3.8574,-3.8574,-3.8574,-3.8574,-3.8574,-3.8574,-3.8574,-3.8574,-3.8535,-3.8359,-3.8066,-3.7799,-3.739,-3.6669,-3.5888,-3.5489,-3.5401,-3.5127,-3.499,-3.4921,-3.4853,-3.4715,-3.4439,-3.437,-3.4232,-3.3955,-3.3886,-3.3817,-3.3798,-3.3762,-3.356,-3.3193,-3.2845,-3.2441,-3.2019,-3.1689,-3.1469,-3.1377,-3.1377,-3.1377,-3.1377,-3.1377,-3.1377,-3.1377,-3.1377,-3.1377,-3.1377,-3.1377,-3.1377,-3.1377,-3.1377,-3.1377,-3.1377,-3.1377,-3.1377,-3.1377,-3.1377,-3.1377,-3.1377,-3.1377,-3.1377,-3.1377,-3.1377,-3.1377,-3.1377,-3.1377,-3.1377,-3.1377,-3.1377,-3.1377,-3.1377,-3.1377,-3.1377,-3.1377,-3.1377,-3.1377,-3.1377,-3.1377,-3.1377,-4.1172,-4.1172,-4.1172,-4.1172,-4.1172,-4.1172,-4.1172,-4.1172,-4.1172,-4.1172,-4.1172,-4.1172,-4.0996,-4.0644,-4.0137,-3.9726,-3.9336,-3.8828,-3.8574,-3.8574,-3.8574,-3.8574,-3.8574,-3.8574,-3.8574,-3.8574,-3.8574,-3.8574,-3.8574,-3.8574,-3.8574,-3.8574,-3.8574,-3.8574,-3.8574,-3.8574,-3.8574,-3.8574,-3.8574,-3.8574,-3.8574,-3.8574,-3.8574,-3.8574,-3.8574,-3.8516,-3.8379,-3.7817,-3.7113,-3.6302,-3.5494,-3.5059,-3.5059,-3.4902,-3.4715,-3.4577,-3.4508,-3.437,-3.4024,-3.3955,-3.3886,-3.3817,-3.3817,-3.3817,-3.3817,-3.3817,-3.3615,-3.3303,-3.3083,-3.2771,-3.2184,-3.1909,-3.1708,-3.1433,-3.1377,-3.1377,-3.1377,-3.1377,-3.1377,-3.1377,-3.1377,-3.1377,-3.1377,-3.1377,-3.1377,-3.1377,-3.1377,-3.1377,-3.1377,-3.1377,-3.1377,-3.1377,-3.1377,-3.1377,-3.1377,-3.1377,-3.1377,-3.1377,-3.1377,-3.1377,-3.1377,-3.1377,-3.1377,-3.1377,-3.1377,-3.1377,-3.1377,-3.1377,-3.1377,-3.1377,-3.1377,-3.1313,-3.1377,-3.1377,-3.1313,-4.1172,-4.1172,-4.1172,-4.1172,-4.1172,-4.1172,-4.1172,-4.1172,-4.1172,-4.1172,-4.1133,-4.0976,-4.0762,-4.0469,-3.9883,-3.9473,-3.918,-3.8769,-3.8594,-3.8574,-3.8574,-3.8574,-3.8574,-3.8574,-3.8574,-3.8574,-3.8574,-3.8574,-3.8574,-3.8574,-3.8574,-3.8574,-3.8574,-3.8574,-3.8574,-3.8574,-3.8574,-3.8574,-3.8574,-3.8574,-3.8574,-3.8574,-3.8574,-3.8574,-3.8574,-3.8574,-3.8297,-3.7586,-3.6737,-3.5959,-3.53,-3.4884,-3.4665,-3.4508,-3.437,-3.4163,-3.4163,-3.4024,-3.3886,-3.3817,-3.3817,-3.3817,-3.3817,-3.3817,-3.3817,-3.3817,-3.367,-3.3523,-3.334,-3.2991,-3.2606,-3.2239,-3.1836,-3.1469,-3.1377,-3.1377,-3.1377,-3.1377,-3.1377,-3.1377,-3.1377,-3.1377,-3.1377,-3.1377,-3.1377,-3.1377,-3.1377,-3.1377,-3.1377,-3.1377,-3.1377,-3.1377,-3.1377,-3.1377,-3.1377,-3.1377,-3.1313,-3.1313,-3.1249,-3.1313,-3.1313,-3.1313,-3.1377,-3.1377,-3.1377,-3.1377,-3.1313,-3.1313,-3.1313,-3.1249,-3.1249,-3.112,-3.1055,-3.1138,-3.112,-4.1094,-4.1172,-4.1172,-4.1172,-4.1172,-4.1172,-4.1172,-4.1172,-4.1094,-4.1074,-4.0976,-4.0644,-4.0391,-4.0332,-3.957,-3.918,-3.9101,-3.873,-3.8613,-3.8574,-3.8574,-3.8574,-3.8574,-3.8574,-3.8574,-3.8574,-3.8574,-3.8574,-3.8574,-3.8574,-3.8574,-3.8574,-3.8574,-3.8574,-3.8574,-3.8574,-3.8574,-3.8574,-3.8574,-3.8574,-3.8574,-3.8574,-3.8574,-3.8574,-3.8501,-3.8302,-3.784,-3.7188,-3.644,-3.5557,-3.5182,-3.478,-3.4413,-3.401,-3.3886,-3.3886,-3.3886,-3.3817,-3.3817,-3.3817,-3.3817,-3.3817,-3.3817,-3.3817,-3.3817,-3.3817,-3.3798,-3.3743,-3.3486,-3.3285,-3.3046,-3.2478,-3.1928,-3.1579,-3.1451,-3.1377,-3.1377,-3.1377,-3.1377,-3.1377,-3.1377,-3.1377,-3.1377,-3.1377,-3.1377,-3.1377,-3.1377,-3.1377,-3.1377,-3.1377,-3.1377,-3.1377,-3.1377,-3.1377,-3.1377,-3.1313,-3.1249,-3.1202,-3.1055,-3.1055,-3.1073,-3.1138,-3.1249,-3.1249,-3.1073,-3.1073,-3.112,-3.112,-3.1055,-3.0991,-3.0879,-3.0685,-3.0555,-3.0685,-3.0685,-4.0666,-4.0666,-4.1016,-4.1172,-4.1172,-4.1172,-4.1172,-4.1152,-4.082,-4.0703,-4.0566,-4.0215,-3.9844,-3.9512,-3.9277,-3.9023,-3.8769,-3.8613,-3.8574,-3.8574,-3.8574,-3.8574,-3.8574,-3.8574,-3.8574,-3.8574,-3.8574,-3.8574,-3.8574,-3.8574,-3.8574,-3.8574,-3.8574,-3.8574,-3.8574,-3.8574,-3.8574,-3.8574,-3.8574,-3.8574,-3.8574,-3.8574,-3.8574,-3.8574,-3.8282,-3.7936,-3.7549,-3.7106,-3.6439,-3.5647,-3.4931,-3.4581,-3.4379,-3.4051,-3.3853,-3.3817,-3.3817,-3.3817,-3.3817,-3.3817,-3.3817,-3.3817,-3.3817,-3.3817,-3.3817,-3.3817,-3.3817,-3.3817,-3.3725,-3.3523,-3.3193,-3.2478,-3.2038,-3.1818,-3.1561,-3.1377,-3.1377,-3.1377,-3.1377,-3.1377,-3.1377,-3.1377,-3.1377,-3.1377,-3.1377,-3.1377,-3.1377,-3.1377,-3.1377,-3.1313,-3.1249,-3.1184,-3.1184,-3.1138,-3.1073,-3.1009,-3.0944,-3.0879,-3.0879,-3.0732,-3.075,-3.0815,-3.0797,-3.075,-3.0573,-3.062,-3.0815,-3.075,-3.0685,-3.0555,-3.049,-3.0361,-3.0296,-3.0313,-3.0248,-4.0197,-4.0275,-4.0685,-4.0841,-4.0919,-4.1094,-4.1172,-4.1094,-4.0703,-4.0527,-4.0371,-3.9883,-3.9434,-3.918,-3.9004,-3.8769,-3.8613,-3.8574,-3.8574,-3.8574,-3.8574,-3.8574,-3.8574,-3.8574,-3.8574,-3.8574,-3.8574,-3.8574,-3.8574,-3.8574,-3.8574,-3.8574,-3.8574,-3.8574,-3.8574,-3.8574,-3.8574,-3.8574,-3.8574,-3.8574,-3.8574,-3.8574,-3.8574,-3.8501,-3.8228,-3.7789,-3.7402,-3.7034,-3.646,-3.5871,-3.5302,-3.477,-3.444,-3.4202,-3.4018,-3.3835,-3.3817,-3.3817,-3.3817,-3.3817,-3.3817,-3.3817,-3.3817,-3.3817,-3.3817,-3.3817,-3.3817,-3.3817,-3.378,-3.3651,-3.3248,-3.2698,-3.2276,-3.1964,-3.1634,-3.1396,-3.1377,-3.1377,-3.1377,-3.1377,-3.1377,-3.1377,-3.1377,-3.1313,-3.1249,-3.112,-3.112,-3.1055,-3.0815,-3.0815,-3.0815,-3.0815,-3.0879,-3.0815,-3.0685,-3.062,-3.062,-3.0555,-3.0555,-3.0361,-3.0213,-3.0278,-3.0343,-3.0296,-3.0313,-3.0443,-3.0508,-3.0378,-3.023,-3.0165,-3.0083,-3.0035,-2.9905,-2.9774,-2.9709,-3.9823,-3.9823,-4.0197,-4.0431,-4.0529,-4.0841,-4.1035,-4.0919,-4.0605,-4.0312,-4.0176,-3.9434,-3.9082,-3.9004,-3.875,-3.8594,-3.8574,-3.8574,-3.8574,-3.8574,-3.8574,-3.8574,-3.8574,-3.8574,-3.8574,-3.8574,-3.8574,-3.8574,-3.8574,-3.8574,-3.8574,-3.8574,-3.8574,-3.8574,-3.8574,-3.8574,-3.8574,-3.8574,-3.8574,-3.8574,-3.8574,-3.8574,-3.8574,-3.8501,-3.8063,-3.7715,-3.7347,-3.696,-3.6497,-3.6182,-3.5889,-3.5302,-3.4715,-3.4385,-3.422,-3.3853,-3.3817,-3.3817,-3.3817,-3.3817,-3.3817,-3.3817,-3.3817,-3.3817,-3.3817,-3.3817,-3.3817,-3.3817,-3.378,-3.3688,-3.334,-3.2826,-3.2459,-3.2111,-3.1689,-3.1414,-3.1313,-3.1313,-3.1313,-3.1377,-3.1313,-3.1249,-3.1184,-3.112,-3.0991,-3.0861,-3.0879,-3.075,-3.049,-3.0378,-3.0426,-3.0555,-3.062,-3.049,-3.0361,-3.01,-3.01,-3.0035,-3.0118,-2.9905,-2.9626,-2.9495,-2.9561,-3.0035,-3.01,-3.01,-3.0118,-3.0053,-2.9905,-2.9757,-2.9561,-2.9447,-2.9316,-2.9185,-2.9185,-3.943,-3.943,-3.9823,-3.9981,-4.0059,-4.0431,-4.0395,-4.0125,-4.0043,-3.9785,-3.9394,-3.8926,-3.8711,-3.8672,-3.8633,-3.8574,-3.8574,-3.8574,-3.8574,-3.8574,-3.8574,-3.8574,-3.8574,-3.8574,-3.8574,-3.8574,-3.8574,-3.8574,-3.8574,-3.8574,-3.8574,-3.8574,-3.8574,-3.8574,-3.8613,-3.8574,-3.8594,-3.8633,-3.8613,-3.8574,-3.8574,-3.8574,-3.8574,-3.8501,-3.7916,-3.7495,-3.7255,-3.6738,-3.6275,-3.6201,-3.6146,-3.5669,-3.5045,-3.4623,-3.4257,-3.3908,-3.3817,-3.3817,-3.3817,-3.3817,-3.3817,-3.3817,-3.3817,-3.3817,-3.3817,-3.3817,-3.3817,-3.3817,-3.3817,-3.3762,-3.3707,-3.3083,-3.2643,-3.2331,-3.1826,-3.1285,-3.1073,-3.1009,-3.1055,-3.1184,-3.112,-3.0991,-3.0944,-3.0879,-3.0685,-3.049,-3.0361,-3.0296,-3.0118,-3.0118,-3.0165,-3.0313,-3.0443,-3.023,-2.9952,-2.9626,-2.9447,-2.9382,-2.9316,-2.9202,-2.8922,-2.8659,-2.879,-2.925,-2.9513,-2.9447,-2.9447,-2.9513,-2.9382,-2.9119,-2.8988,-2.8856,-2.879,-2.8725,-2.8659,-3.8956,-3.8956,-3.943,-3.9588,-3.9629,-3.9793,-3.9932,-3.9817,-3.9467,-3.919,-3.9067,-3.8769,-3.8574,-3.8574,-3.8574,-3.8574,-3.8574,-3.8574,-3.8574,-3.8574,-3.8574,-3.8574,-3.8574,-3.8574,-3.8574,-3.8574,-3.8574,-3.8574,-3.8574,-3.8574,-3.8574,-3.8574,-3.8574,-3.8672,-3.8789,-3.8691,-3.873,-3.8769,-3.8691,-3.8574,-3.8574,-3.8574,-3.8501,-3.8136,-3.7696,-3.7347,-3.7034,-3.6571,-3.6201,-3.6201,-3.6201,-3.587,-3.5394,-3.4917,-3.444,-3.3963,-3.3817,-3.3817,-3.3817,-3.3817,-3.3817,-3.3817,-3.3817,-3.3817,-3.3817,-3.3817,-3.3817,-3.3817,-3.3817,-3.3817,-3.378,-3.323,-3.2814,-3.2351,-3.1774,-3.1262,-3.0822,-3.0703,-3.0685,-3.0797,-3.0685,-3.0555,-3.062,-3.049,-3.0296,-3.0165,-2.997,-2.9791,-2.9678,-2.9647,-2.9664,-2.9633,-2.9716,-2.9599,-2.9367,-2.9136,-2.8922,-2.8856,-2.8659,-2.8543,-2.8411,-2.8196,-2.8329,-2.8725,-2.879,-2.8659,-2.879,-2.879,-2.8659,-2.8593,-2.8527,-2.8461,-2.8395,-2.8263,-2.813,-3.864,-3.864,-3.9035,-3.9138,-3.9086,-3.9099,-3.9298,-3.9357,-3.8857,-3.8809,-3.9023,-3.875,-3.8574,-3.8574,-3.8574,-3.8574,-3.8574,-3.8574,-3.8574,-3.8574,-3.8574,-3.8574,-3.8574,-3.8574,-3.8574,-3.8375,-3.8428,-3.8521,-3.8574,-3.8501,-3.8428,-3.8355,-3.8428,-3.8491,-3.8592,-3.8345,-3.8627,-3.8701,-3.8642,-3.8521,-3.8574,-3.8501,-3.8355,-3.7936,-3.7568,-3.7107,-3.6812,-3.6423,-3.6201,-3.6201,-3.6164,-3.6017,-3.5632,-3.5247,-3.4697,-3.4073,-3.3872,-3.3817,-3.3817,-3.3817,-3.3817,-3.3817,-3.3817,-3.3817,-3.3817,-3.3817,-3.3817,-3.3817,-3.3817,-3.3747,-3.3641,-3.3312,-3.2707,-3.2106,-3.1576,-3.1115,-3.0485,-3.0165,-3.0035,-3.0035,-3.0053,-3.007,-3.0022,-2.9857,-2.9578,-2.9382,-2.9185,-2.9272,-2.9108,-2.8926,-2.8893,-2.8877,-2.881,-2.8743,-2.8677,-2.8643,-2.856,-2.8527,-2.8196,-2.7932,-2.7865,-2.7799,-2.7865,-2.7799,-2.7733,-2.76,-2.7865,-2.8263,-2.8263,-2.8263,-2.813,-2.7998,-2.7733,-2.7533,-2.7334,-3.864,-3.864,-3.864,-3.8517,-3.8264,-3.858,-3.8517,-3.8292,-3.8439,-3.8635,-3.8711,-3.8613,-3.8574,-3.8574,-3.8574,-3.8574,-3.8574,-3.8574,-3.8574,-3.8574,-3.8574,-3.8501,-3.8574,-3.8574,-3.8302,-3.8082,-3.8082,-3.8282,-3.8355,-3.8155,-3.8082,-3.8009,-3.7789,-3.7625,-3.7906,-3.7792,-3.7734,-3.8086,-3.8121,-3.8228,-3.8428,-3.8228,-3.8009,-3.7789,-3.7329,-3.6886,-3.6738,-3.6349,-3.6201,-3.6126,-3.6126,-3.6017,-3.5632,-3.5247,-3.4825,-3.4385,-3.4055,-3.3817,-3.3747,-3.3678,-3.3678,-3.3678,-3.3678,-3.3817,-3.3678,-3.3678,-3.3678,-3.3817,-3.3747,-3.3608,-3.3345,-3.2968,-3.2366,-3.1805,-3.1265,-3.0659,-3.0079,-2.9668,-2.9536,-2.9423,-2.9509,-2.9372,-2.9321,-2.9121,-2.8873,-2.8593,-2.8511,-2.8627,-2.8693,-2.8574,-2.8572,-2.857,-2.8435,-2.8302,-2.8121,-2.8059,-2.7945,-2.8013,-2.7682,-2.735,-2.7267,-2.7067,-2.6666,-2.6599,-2.6599,-2.6934,-2.7467,-2.7799,-2.7998,-2.7799,-2.7467,-2.72,-2.6934,-2.6733,-2.6682,-3.864,-3.8542,-3.8383,-3.8199,-3.7961,-3.7789,-3.7629,-3.7727,-3.7855,-3.8035,-3.8321,-3.8501,-3.8574,-3.8574,-3.8574,-3.8574,-3.8574,-3.8574,-3.8574,-3.8501,-3.8355,-3.8302,-3.8155,-3.799,-3.7789,-3.7715,-3.7642,-3.7715,-3.7843,-3.7789,-3.7642,-3.7642,-3.7514,-3.7573,-3.7536,-3.7516,-3.7666,-3.7851,-3.7868,-3.7789,-3.7862,-3.7789,-3.7568,-3.7329,-3.696,-3.6738,-3.6442,-3.6349,-3.6052,-3.5903,-3.5829,-3.5625,-3.5242,-3.4863,-3.4522,-3.4378,-3.3839,-3.3531,-3.3454,-3.3278,-3.326,-3.3191,-3.3191,-3.3121,-3.3191,-3.3191,-3.3191,-3.3191,-3.3191,-3.3121,-3.2981,-3.2838,-3.2258,-3.1681,-3.0937,-3.0442,-2.9898,-2.9327,-2.906,-2.8959,-2.8857,-2.8758,-2.8692,-2.8692,-2.8592,-2.8492,-2.8388,-2.8533,-2.8562,-2.8458,-2.8454,-2.845,-2.828,-2.8027,-2.7763,-2.7568,-2.7275,-2.7233,-2.693,-2.6646,-2.6548,-2.6331,-2.6063,-2.5996,-2.628,-2.6666,-2.7067,-2.7067,-2.7067,-2.6867,-2.6666,-2.6563,-2.6445,-2.6378,-2.6326,-3.8438,-3.8231,-3.8108,-3.7906,-3.7668,-3.7005,-3.6995,-3.7222,-3.7406,-3.7642,-3.8009,-3.8448,-3.8574,-3.8574,-3.8574,-3.8501,-3.8448,-3.8428,-3.8355,-3.8209,-3.799,-3.7862,-3.7789,-3.7568,-3.7421,-3.7274,-3.7274,-3.7107,-3.696,-3.696,-3.696,-3.7181,-3.7034,-3.7165,-3.737,-3.7202,-3.7165,-3.7557,-3.7535,-3.7495,-3.7402,-3.7329,-3.7107,-3.6886,-3.659,-3.6349,-3.6052,-3.5903,-3.568,-3.553,-3.5456,-3.5288,-3.505,-3.4673,-3.446,-3.4282,-3.3748,-3.3358,-3.3233,-3.3055,-3.2755,-3.2719,-3.2719,-3.2789,-3.2789,-3.2719,-3.2719,-3.2789,-3.2789,-3.2631,-3.2491,-3.2403,-3.1809,-3.1236,-3.06,-3.0189,-2.9763,-2.9104,-2.8617,-2.8546,-2.837,-2.8159,-2.818,-2.8317,-2.8337,-2.8325,-2.8386,-2.8473,-2.8414,-2.8322,-2.8364,-2.8287,-2.8075,-2.7819,-2.7656,-2.7293,-2.6916,-2.6596,-2.6299,-2.6178,-2.6193,-2.6004,-2.5727,-2.5794,-2.5989,-2.5944,-2.613,-2.613,-2.6063,-2.6197,-2.628,-2.6222,-2.6117,-2.608,-2.6103,-3.7833,-3.7539,-3.7851,-3.7576,-3.6971,-3.6803,-3.6829,-3.6905,-3.7219,-3.7568,-3.7936,-3.8375,-3.8501,-3.8501,-3.8428,-3.8282,-3.8009,-3.8082,-3.7862,-3.7623,-3.7495,-3.7421,-3.7329,-3.7181,-3.7034,-3.6812,-3.6664,-3.6293,-3.5903,-3.5903,-3.6275,-3.6645,-3.6423,-3.6312,-3.6348,-3.6423,-3.6534,-3.6868,-3.7052,-3.7274,-3.7181,-3.696,-3.6738,-3.659,-3.6126,-3.568,-3.5605,-3.5381,-3.5157,-3.5082,-3.5007,-3.4857,-3.4636,-3.4408,-3.4175,-3.3979,-3.3461,-3.3075,-3.2974,-3.2913,-3.272,-3.2667,-3.2631,-3.2491,-3.2491,-3.2561,-3.2649,-3.2491,-3.2281,-3.214,-3.1841,-3.1595,-3.1177,-3.071,-3.0213,-2.9818,-2.9322,-2.8675,-2.8286,-2.8148,-2.8035,-2.7897,-2.7749,-2.7959,-2.7943,-2.7934,-2.8044,-2.8107,-2.8122,-2.8058,-2.8156,-2.8116,-2.7844,-2.7682,-2.7636,-2.7256,-2.6873,-2.6568,-2.6319,-2.6199,-2.6139,-2.5784,-2.5612,-2.5514,-2.5657,-2.5455,-2.5328,-2.5733,-2.605,-2.6019,-2.6004,-2.6027,-2.6055,-2.6076,-2.6057,-3.718,-3.7081,-3.7228,-3.7118,-3.6824,-3.6567,-3.644,-3.6534,-3.6886,-3.7255,-3.7642,-3.7789,-3.7843,-3.7843,-3.7843,-3.777,-3.7642,-3.7642,-3.7495,-3.7329,-3.7181,-3.6886,-3.6738,-3.6423,-3.6052,-3.5829,-3.568,-3.5605,-3.5306,-3.5231,-3.5306,-3.553,-3.553,-3.553,-3.553,-3.5754,-3.5903,-3.6126,-3.6442,-3.6664,-3.659,-3.6293,-3.6052,-3.5978,-3.5605,-3.5231,-3.5231,-3.5082,-3.4857,-3.4649,-3.4649,-3.4348,-3.4029,-3.3782,-3.3638,-3.3378,-3.2848,-3.2639,-3.2668,-3.2608,-3.2624,-3.2312,-3.2156,-3.1999,-3.1999,-3.1859,-3.1718,-3.1576,-3.1506,-3.1294,-3.101,-3.0852,-3.0643,-3.014,-2.9726,-2.9331,-2.8969,-2.835,-2.8068,-2.7958,-2.7956,-2.788,-2.7712,-2.7583,-2.7529,-2.7519,-2.7641,-2.7707,-2.7757,-2.7848,-2.7867,-2.784,-2.7659,-2.7542,-2.7481,-2.7158,-2.6807,-2.6602,-2.6398,-2.6279,-2.6121,-2.6022,-2.5794,-2.5652,-2.5593,-2.5648,-2.5731,-2.5914,-2.5923,-2.5897,-2.5933,-2.5933,-2.5996,-2.6044,-2.6146,-3.6551,-3.6433,-3.6566,-3.6659,-3.6604,-3.6329,-3.6201,-3.6275,-3.6664,-3.7034,-3.7402,-3.7402,-3.7402,-3.7402,-3.7402,-3.7329,-3.7181,-3.7107,-3.696,-3.6664,-3.6367,-3.6126,-3.5829,-3.5605,-3.5381,-3.5007,-3.5007,-3.5007,-3.4875,-3.4799,-3.4799,-3.4707,-3.4632,-3.4707,-3.5082,-3.5231,-3.5456,-3.553,-3.568,-3.5829,-3.5829,-3.5605,-3.5456,-3.5381,-3.5007,-3.4875,-3.4799,-3.4632,-3.4348,-3.4122,-3.3971,-3.3668,-3.3289,-3.2968,-3.2892,-3.2581,-3.239,-3.2149,-3.2259,-3.2133,-3.2171,-3.1748,-3.1544,-3.1358,-3.1169,-3.101,-3.0939,-3.0868,-3.0584,-3.0299,-3.0157,-3.0085,-2.9783,-2.9313,-2.8964,-2.8656,-2.856,-2.8141,-2.7988,-2.7833,-2.778,-2.7548,-2.7475,-2.7316,-2.7299,-2.7236,-2.7296,-2.7386,-2.7446,-2.7505,-2.7535,-2.7565,-2.7448,-2.7448,-2.7375,-2.7125,-2.689,-2.6774,-2.6555,-2.6393,-2.6234,-2.6135,-2.6047,-2.5886,-2.5871,-2.5988,-2.6073,-2.6114,-2.5941,-2.5725,-2.59,-2.619,-2.6279,-2.6381,-2.6398,-3.6002,-3.5716,-3.6088,-3.6237,-3.6256,-3.6219,-3.6201,-3.6201,-3.659,-3.696,-3.7255,-3.7255,-3.7255,-3.7255,-3.7107,-3.6886,-3.659,-3.6349,-3.6052,-3.5754,-3.553,-3.5231,-3.5082,-3.5007,-3.4932,-3.5007,-3.4857,-3.4649,-3.4441,-3.4423,-3.4215,-3.4064,-3.4139,-3.4273,-3.4932,-3.5007,-3.5007,-3.5007,-3.5082,-3.5157,-3.5157,-3.5082,-3.5007,-3.495,-3.4649,-3.4441,-3.4273,-3.4046,-3.3744,-3.3441,-3.3348,-3.3044,-3.2681,-3.2588,-3.2512,-3.2419,-3.2419,-3.2462,-3.2522,-3.1894,-3.1555,-3.1337,-3.1226,-3.0954,-3.0596,-3.0442,-3.037,-3.0299,-3.0228,-2.9855,-2.9585,-2.9298,-2.8938,-2.8619,-2.8341,-2.811,-2.8068,-2.7867,-2.7665,-2.7535,-2.726,-2.7056,-2.7056,-2.7056,-2.7041,-2.7012,-2.7041,-2.7056,-2.7202,-2.7202,-2.7274,-2.7274,-2.7274,-2.7202,-2.7202,-2.7129,-2.6983,-2.6866,-2.6764,-2.6574,-2.6442,-2.6369,-2.6252,-2.6105,-2.6179,-2.6325,-2.631,-2.6281,-2.6237,-2.6222,-2.6339,-2.65,-2.6588,-2.6632,-2.6676,-3.5224,-3.5605,-3.5754,-3.5978,-3.6201,-3.6201,-3.6201,-3.6201,-3.6367,-3.6516,-3.659,-3.659,-3.6442,-3.6275,-3.6201,-3.6052,-3.568,-3.553,-3.5231,-3.5231,-3.5007,-3.4857,-3.4724,-3.4574,-3.4499,-3.4273,-3.4215,-3.4215,-3.3988,-3.4064,-3.3988,-3.3837,-3.3837,-3.3912,-3.4197,-3.4423,-3.4574,-3.4649,-3.4875,-3.5007,-3.4932,-3.4724,-3.4574,-3.4574,-3.4215,-3.3912,-3.3744,-3.3517,-3.3272,-3.2892,-3.2816,-3.2588,-3.2299,-3.2222,-3.2069,-3.1916,-3.184,-3.184,-3.1747,-3.1533,-3.1436,-3.122,-3.1029,-3.0782,-3.0436,-3.0157,-2.9942,-2.9656,-2.9497,-2.9066,-2.8635,-2.8506,-2.8289,-2.8202,-2.8027,-2.781,-2.768,-2.7405,-2.7202,-2.7202,-2.6998,-2.6998,-2.6998,-2.6998,-2.6998,-2.6998,-2.6998,-2.6998,-2.7056,-2.7056,-2.7129,-2.7129,-2.7071,-2.7071,-2.6998,-2.6998,-2.6998,-2.6939,-2.6925,-2.6881,-2.6749,-2.6617,-2.6632,-2.6574,-2.6617,-2.6676,-2.6632,-2.6632,-2.6705,-2.6764,-2.6677,-2.6677,-2.6793,-2.6837,-2.6881,-3.4724,-3.5174,-3.5306,-3.553,-3.5829,-3.6052,-3.6201,-3.6201,-3.6052,-3.5978,-3.5978,-3.5829,-3.568,-3.5456,-3.5381,-3.5306,-3.5007,-3.4875,-3.4782,-3.4799,-3.4649,-3.4423,-3.4215,-3.4215,-3.4064,-3.3837,-3.3837,-3.3837,-3.3837,-3.3837,-3.3837,-3.3837,-3.3837,-3.3837,-3.3912,-3.4064,-3.4215,-3.4215,-3.4423,-3.4499,-3.4423,-3.4348,-3.4215,-3.4139,-3.3912,-3.3685,-3.3365,-3.312,-3.2968,-3.2604,-3.2375,-3.2222,-3.1916,-3.1763,-3.1686,-3.1472,-3.1395,-3.1379,-3.1456,-3.144,-3.1317,-3.0959,-3.0852,-3.0494,-3.0081,-2.9593,-2.9226,-2.8923,-2.8635,-2.8346,-2.8057,-2.7928,-2.7855,-2.7768,-2.7638,-2.742,-2.7347,-2.7056,-2.7071,-2.6998,-2.6998,-2.6998,-2.6998,-2.6998,-2.6998,-2.6998,-2.6998,-2.6998,-2.6998,-2.6998,-2.6998,-2.6998,-2.6998,-2.6998,-2.6998,-2.6998,-2.6998,-2.6998,-2.6998,-2.6998,-2.6969,-2.6837,-2.6939,-2.6998,-2.6896,-2.6779,-2.6852,-2.6896,-2.6692,-2.6692,-2.6619,-2.6721,-2.6998,-2.6998,-2.6998,-3.4365,-3.4441,-3.4857,-3.5007,-3.5157,-3.5754,-3.6126,-3.6052,-3.5754,-3.5605,-3.553,-3.5231,-3.5082,-3.5007,-3.5007,-3.4932,-3.4782,-3.4516,-3.4441,-3.429,-3.4139,-3.3912,-3.3912,-3.3837,-3.3837,-3.3837,-3.3837,-3.3837,-3.3837,-3.3837,-3.3837,-3.3837,-3.3837,-3.3837,-3.3837,-3.3837,-3.3912,-3.3988,-3.3988,-3.4064,-3.4064,-3.3912,-3.3912,-3.3837,-3.3761,-3.3441,-3.3196,-3.2968,-3.2588,-3.2299,-3.1993,-3.1763,-3.1549,-3.1395,-3.1395,-3.1395,-3.1395,-3.1395,-3.1318,-3.1318,-3.0961,-3.0584,-3.0328,-2.9891,-2.9352,-2.8951,-2.8666,-2.8346,-2.813,-2.7913,-2.7623,-2.755,-2.7492,-2.7347,-2.7129,-2.7071,-2.7071,-2.6998,-2.6998,-2.6998,-2.6998,-2.6998,-2.6998,-2.6998,-2.6998,-2.6998,-2.6998,-2.6998,-2.6998,-2.6998,-2.6998,-2.6998,-2.6998,-2.6998,-2.6998,-2.6998,-2.6998,-2.6998,-2.6998,-2.6998,-2.6998,-2.6998,-2.691,-2.691,-2.691,-2.6838,-2.6619,-2.6473,-2.6385,-2.6399,-2.6385,-2.6546,-2.6692,-2.6998,-2.6998,-3.3895,-3.4365,-3.4516,-3.4724,-3.5007,-3.5231,-3.5381,-3.5306,-3.5231,-3.5157,-3.5157,-3.5082,-3.4782,-3.4591,-3.4574,-3.4423,-3.4197,-3.4064,-3.3988,-3.3912,-3.3912,-3.3837,-3.3837,-3.3837,-3.3837,-3.3837,-3.3837,-3.3837,-3.3837,-3.3837,-3.3837,-3.3837,-3.3837,-3.3837,-3.3761,-3.3837,-3.3761,-3.3761,-3.3761,-3.3837,-3.3837,-3.3837,-3.3761,-3.3761,-3.3517,-3.3213,-3.2833,-3.2512,-3.2146,-3.1763,-3.1609,-3.1472,-3.1472,-3.1395,-3.1395,-3.1395,-3.1395,-3.1318,-3.101,-3.0933,-3.0716,-3.0161,-2.9945,-2.9392,-2.8903,-2.8462,-2.8118,-2.7855,-2.771,-2.7565,-2.7377,-2.7319,-2.7261,-2.7217,-2.7115,-2.7174,-2.7174,-2.7174,-2.7159,-2.7086,-2.7086,-2.7027,-2.7027,-2.6998,-2.6998,-2.6998,-2.6998,-2.6998,-2.6998,-2.6998,-2.6998,-2.6998,-2.6998,-2.6998,-2.6998,-2.6998,-2.6998,-2.6998,-2.6998,-2.6998,-2.6925,-2.6925,-2.6838,-2.6692,-2.6546,-2.6312,-2.6093,-2.6019,-2.596,-2.5946,-2.6019,-2.6239,-2.6458,-2.6619,-2.6838,-3.3592,-3.4139,-3.4139,-3.4273,-3.4499,-3.4499,-3.4499,-3.4574,-3.4724,-3.4799,-3.4724,-3.4574,-3.4348,-3.4215,-3.4139,-3.4064,-3.3837,-3.3837,-3.3837,-3.3837,-3.3837,-3.3837,-3.3837,-3.3837,-3.3837,-3.3837,-3.3837,-3.3837,-3.3837,-3.3837,-3.3837,-3.3837,-3.3837,-3.3685,-3.3592,-3.3517,-3.3458,-3.3441,-3.3534,-3.3761,-3.3761,-3.3761,-3.3685,-3.3517,-3.3289,-3.2909,-3.2452,-3.2069,-3.184,-3.1472,-3.1395,-3.1395,-3.1395,-3.1395,-3.1241,-3.1241,-3.1087,-3.0933,-3.0608,-3.0531,-3.0299,-2.9913,-2.9517,-2.9018,-2.8596,-2.8161,-2.7774,-2.7464,-2.7362,-2.7274,-2.7188,-2.71,-2.7144,-2.7203,-2.7291,-2.7393,-2.7393,-2.7393,-2.732,-2.7232,-2.7174,-2.7115,-2.7071,-2.7027,-2.6998,-2.6998,-2.6998,-2.6998,-2.6998,-2.6998,-2.6998,-2.6998,-2.6998,-2.6998,-2.6998,-2.6998,-2.6998,-2.6998,-2.6998,-2.6998,-2.6852,-2.6692,-2.6546,-2.6253,-2.6019,-2.5873,-2.58,-2.5653,-2.5593,-2.558,-2.558,-2.5653,-2.5887,-2.6093,-2.6326,-3.3441,-3.3837,-3.3837,-3.3837,-3.3837,-3.3837,-3.3837,-3.3837,-3.4215,-3.4365,-3.429,-3.3988,-3.3912,-3.3912,-3.3912,-3.3912,-3.3837,-3.3837,-3.3837,-3.3837,-3.3837,-3.3837,-3.3837,-3.3837,-3.3837,-3.3837,-3.3837,-3.3837,-3.3837,-3.3837,-3.3837,-3.3837,-3.3837,-3.3685,-3.3365,-3.3289,-3.3213,-3.2985,-3.3213,-3.3534,-3.3534,-3.3609,-3.3534,-3.3196,-3.2968,-3.274,-3.2222,-3.1916,-3.1779,-3.1549,-3.1395,-3.1395,-3.1395,-3.1318,-3.1087,-3.0933,-3.0778,-3.0454,-3.0222,-3.0067,-2.9834,-2.9511,-2.9162,-2.8726,-2.84,-2.794,-2.7585,-2.732,-2.7188,-2.7276,-2.7276,-2.7378,-2.7495,-2.7376,-2.7374,-2.7357,-2.7222,-2.7372,-2.7478,-2.7436,-2.7378,-2.7305,-2.7174,-2.713,-2.6998,-2.6998,-2.6998,-2.6998,-2.6998,-2.6998,-2.6998,-2.6998,-2.6998,-2.6998,-2.6998,-2.6998,-2.6925,-2.6925,-2.691,-2.6692,-2.6473,-2.6253,-2.618,-2.5873,-2.558,-2.558,-2.5506,-2.5299,-2.5152,-2.5152,-2.5152,-2.5152,-2.5299,-2.558,-2.5873,-3.3137,-3.3761,-3.3837,-3.3837,-3.3837,-3.3837,-3.3837,-3.3837,-3.3912,-3.3971,-3.3912,-3.3837,-3.3837,-3.3837,-3.3837,-3.3837,-3.3837,-3.3837,-3.3837,-3.3837,-3.3837,-3.3837,-3.3837,-3.3837,-3.3837,-3.3837,-3.3837,-3.3837,-3.3837,-3.3837,-3.3837,-3.3837,-3.3761,-3.3609,-3.3196,-3.312,-3.2985,-3.2528,-3.2681,-3.2909,-3.2909,-3.2909,-3.2816,-3.2664,-3.2528,-3.2299,-3.1916,-3.1686,-3.1533,-3.1395,-3.1395,-3.1395,-3.1395,-3.1087,-3.0933,-3.0778,-3.0454,-3.0067,-2.9756,-2.9601,-2.9446,-2.9197,-2.8924,-2.867,-2.8347,-2.7923,-2.757,-2.732,-2.7188,-2.7291,-2.7437,-2.7582,-2.7682,-2.7575,-2.7481,-2.7283,-2.7145,-2.7359,-2.7571,-2.7563,-2.7553,-2.7495,-2.7364,-2.7203,-2.7042,-2.6998,-2.6998,-2.6998,-2.6998,-2.6998,-2.691,-2.691,-2.6998,-2.6998,-2.6998,-2.6852,-2.6765,-2.6619,-2.6546,-2.6312,-2.6019,-2.5726,-2.552,-2.5373,-2.5152,-2.5152,-2.5065,-2.4857,-2.4784,-2.4857,-2.4857,-2.4857,-2.4857,-2.5005,-2.5359,-3.3213,-3.3761,-3.3837,-3.3734,-3.3597,-3.358,-3.3494,-3.334,-3.3323,-3.3426,-3.3614,-3.3751,-3.3837,-3.3837,-3.3837,-3.3837,-3.3837,-3.3837,-3.3837,-3.3837,-3.3837,-3.3837,-3.3837,-3.3837,-3.3837,-3.3837,-3.3837,-3.3837,-3.3837,-3.3837,-3.3837,-3.3837,-3.3761,-3.3534,-3.3044,-3.2892,-3.2681,-3.2069,-3.2146,-3.2146,-3.2222,-3.2359,-3.2452,-3.2299,-3.2146,-3.1916,-3.1686,-3.1456,-3.1472,-3.1395,-3.1395,-3.1241,-3.1164,-3.0948,-3.0624,-3.0237,-2.9912,-2.9679,-2.9368,-2.9212,-2.9119,-2.8964,-2.8886,-2.8695,-2.8461,-2.8098,-2.7937,-2.77,-2.7598,-2.7686,-2.7623,-2.7813,-2.7806,-2.765,-2.7577,-2.7459,-2.7396,-2.7459,-2.75,-2.7392,-2.7402,-2.7528,-2.743,-2.7348,-2.7217,-2.7203,-2.7174,-2.6983,-2.7042,-2.6969,-2.6939,-2.6837,-2.6895,-2.6823,-2.6692,-2.6619,-2.6546,-2.6326,-2.6093,-2.5873,-2.558,-2.5226,-2.4931,-2.4857,-2.4857,-2.4784,-2.4636,-2.4636,-2.4636,-2.471,-2.4636,-2.4636,-2.4636,-2.4636,-2.4918,-3.3272,-3.3624,-3.3683,-3.3494,-3.322,-3.3203,-3.3015,-3.2741,-3.2689,-3.2968,-3.3386,-3.3655,-3.3768,-3.3837,-3.3837,-3.3837,-3.3837,-3.3837,-3.3837,-3.3837,-3.3837,-3.3837,-3.3837,-3.3837,-3.3837,-3.3837,-3.3837,-3.3837,-3.3837,-3.3837,-3.3837,-3.3837,-3.3685,-3.3458,-3.2909,-3.2512,-3.2359,-3.184,-3.1686,-3.1549,-3.1686,-3.2069,-3.2069,-3.1993,-3.1916,-3.1686,-3.1472,-3.1395,-3.1395,-3.1318,-3.1318,-3.1087,-3.0856,-3.0624,-3.0159,-2.9772,-2.9523,-2.929,-2.9056,-2.8978,-2.8964,-2.8886,-2.8886,-2.8783,-2.8549,-2.8341,-2.818,-2.8031,-2.7944,-2.7885,-2.7897,-2.7875,-2.7851,-2.7565,-2.7529,-2.7435,-2.7435,-2.7513,-2.7346,-2.7228,-2.7347,-2.7554,-2.7506,-2.743,-2.7345,-2.7318,-2.729,-2.7144,-2.6953,-2.6877,-2.68,-2.6772,-2.6786,-2.6671,-2.6383,-2.6296,-2.6237,-2.596,-2.5667,-2.5446,-2.5226,-2.4931,-2.471,-2.471,-2.4636,-2.4636,-2.4636,-2.4636,-2.4636,-2.4636,-2.4636,-2.4636,-2.4636,-2.4636,-2.4636,-3.2527,-3.2895,-3.2912,-3.2861,-3.2792,-3.2792,-3.2741,-3.2689,-3.2655,-3.2887,-3.3336,-3.3648,-3.3811,-3.3837,-3.3837,-3.3837,-3.3988,-3.3988,-3.3837,-3.3837,-3.3988,-3.3912,-3.3837,-3.3837,-3.3837,-3.3837,-3.3837,-3.3837,-3.3837,-3.3837,-3.3837,-3.3837,-3.3837,-3.3534,-3.312,-3.274,-3.2375,-3.184,-3.1533,-3.1395,-3.1395,-3.1609,-3.1549,-3.1549,-3.1549,-3.1472,-3.1395,-3.1395,-3.1395,-3.1318,-3.1087,-3.0933,-3.0547,-3.0159,-2.9772,-2.9523,-2.9212,-2.9056,-2.8886,-2.8886,-2.8886,-2.8886,-2.8886,-2.8871,-2.8739,-2.8662,-2.8497,-2.8235,-2.8134,-2.799,-2.7971,-2.7989,-2.7898,-2.7273,-2.6991,-2.7004,-2.7004,-2.7083,-2.7093,-2.719,-2.7311,-2.7305,-2.7284,-2.7183,-2.7122,-2.7126,-2.6994,-2.694,-2.7061,-2.6894,-2.6711,-2.6697,-2.6669,-2.6326,-2.6073,-2.6013,-2.594,-2.5575,-2.5299,-2.5152,-2.4931,-2.4784,-2.4636,-2.4636,-2.4636,-2.4636,-2.4636,-2.4636,-2.4636,-2.4636,-2.4636,-2.4636,-2.4636,-2.4636,-2.4636]}]]